[[{"header":{"parameterUnit":"m.s-1","parameterCategory":1,"la1":30.6,"la2":29.2853,"lo1":-89.7004,"lo2":-87.6739,"dy":0.0162,"dx":0.0183,"nx":112,"ny":82,"refTime":"2025-02-24T06:00:00:Z","depth":0,"parameterNumber":2,"parameterNumberName":"U-component_of_WINDS"},"data":[0.0,0.0,0.0,0.0,0.0,0.0,0.0,0.0,0.0,0.0,0.0,0.0,0.0,0.0,0.0,0.0,0.0,0.0,0.0,0.0,0.0,0.0,0.0,0.0,0.0,0.0,0.0,0.0,0.0,0.0,0.0,0.0,0.0,0.0,0.0,0.0,0.0,0.0,0.0,0.0,0.0,0.0,0.0,0.0,0.0,0.0,0.0,0.0,0.0,0.0,0.0,0.0,0.0,0.0,0.0,0.0,0.0,0.0,0.0,0.0,0.0,0.0,0.0,0.0,0.0,0.0,0.0,0.0,0.0,0.0,0.0,0.0,0.0,0.0,0.0,0.0,0.0,0.0,0.0,0.0,0.0,0.0,0.0,0.0,0.0,0.0,0.0,0.0,0.0,0.0,0.0,-1.0769,-1.1883,-1.2278,-1.1638,-1.1136,-1.0105,-0.8411,0.0,0.0,0.0,0.0,0.0,0.0,0.0,0.0,0.0,0.0,0.0,0.0,0.0,0.0,0.0,0.0,0.0,0.0,0.0,0.0,0.0,0.0,0.0,0.0,0.0,0.0,0.0,0.0,0.0,0.0,0.0,0.0,0.0,0.0,0.0,0.0,0.0,0.0,0.0,0.0,0.0,0.0,0.0,0.0,0.0,0.0,0.0,0.0,0.0,0.0,0.0,0.0,0.0,0.0,0.0,0.0,0.0,0.0,0.0,0.0,0.0,0.0,0.0,0.0,0.0,0.0,0.0,0.0,0.0,0.0,0.0,0.0,0.0,0.0,0.0,0.0,0.0,0.0,0.0,0.0,0.0,0.0,0.0,0.0,0.0,0.0,0.0,0.0,0.0,0.0,0.0,0.0,0.0,0.0,0.0,0.0,0.0,0.0,0.0,0.0,0.0,0.0,0.0,0.0,-0.9537,-1.1896,-1.2697,-1.2672,-1.1676,-1.1512,-1.0558,-0.8437,0.0,0.0,0.0,0.0,0.0,0.0,0.0,0.0,0.0,0.0,0.0,0.0,0.0,0.0,0.0,0.0,0.0,0.0,0.0,0.0,0.0,0.0,0.0,0.0,0.0,0.0,0.0,0.0,0.0,0.0,0.0,0.0,0.0,0.0,0.0,0.0,0.0,0.0,0.0,0.0,0.0,0.0,0.0,0.0,0.0,0.0,0.0,0.0,0.0,0.0,0.0,0.0,0.0,0.0,0.0,0.0,0.0,0.0,0.0,0.0,0.0,0.0,0.0,0.0,0.0,0.0,0.0,0.0,0.0,0.0,0.0,0.0,0.0,0.0,0.0,0.0,0.0,0.0,0.0,0.0,0.0,0.0,0.0,0.0,0.0,0.0,0.0,0.0,0.0,0.0,0.0,0.0,0.0,0.0,0.0,0.0,0.0,0.0,0.0,0.0,0.0,0.0,0.0,-0.8645,-1.0011,-1.2164,-1.2657,-1.2623,-1.2071,-1.1763,-1.0716,-0.8653,-0.8238,0.0,0.0,0.0,0.0,0.0,0.0,0.0,0.0,0.0,0.0,0.0,0.0,0.0,0.0,0.0,0.0,0.0,0.0,0.0,0.0,0.0,0.0,0.0,0.0,0.0,0.0,0.0,0.0,0.0,0.0,0.0,0.0,0.0,0.0,0.0,0.0,0.0,0.0,0.0,0.0,0.0,0.0,0.0,0.0,0.0,0.0,0.0,0.0,0.0,0.0,0.0,0.0,0.0,0.0,0.0,0.0,0.0,0.0,0.0,0.0,0.0,0.0,0.0,0.0,0.0,0.0,0.0,0.0,0.0,0.0,0.0,0.0,0.0,0.0,0.0,0.0,0.0,0.0,0.0,0.0,0.0,0.0,0.0,0.0,0.0,0.0,0.0,0.0,0.0,0.0,0.0,0.0,0.0,0.0,0.0,0.0,0.0,0.0,0.0,0.0,0.0,0.0,-0.9499,-1.0293,-1.2073,-1.2305,-1.2259,-1.207,-1.1486,-1.04,-0.8655,-0.7955,0.0,0.0,0.0,0.0,0.0,0.0,0.0,0.0,0.0,0.0,0.0,0.0,0.0,0.0,0.0,0.0,0.0,0.0,0.0,0.0,0.0,0.0,0.0,0.0,0.0,0.0,0.0,0.0,0.0,0.0,0.0,0.0,0.0,0.0,0.0,0.0,0.0,0.0,0.0,0.0,0.0,0.0,0.0,0.0,0.0,0.0,0.0,0.0,0.0,0.0,0.0,0.0,0.0,0.0,0.0,0.0,0.0,0.0,0.0,0.0,0.0,0.0,0.0,0.0,0.0,0.0,0.0,0.0,0.0,0.0,0.0,0.0,0.0,0.0,0.0,0.0,0.0,0.0,0.0,0.0,0.0,0.0,0.0,0.0,0.0,0.0,0.0,0.0,0.0,0.0,0.0,0.0,0.0,0.0,0.0,0.0,0.0,0.0,0.0,0.0,0.0,0.0,-0.9242,-1.0253,-1.1689,-1.1861,-1.1633,-1.1057,-1.0244,-0.9249,-0.8119,-0.7259,0.0,0.0,0.0,0.0,0.0,0.0,0.0,0.0,0.0,0.0,0.0,0.0,0.0,0.0,0.0,0.0,0.0,0.0,0.0,0.0,0.0,0.0,0.0,0.0,0.0,0.0,0.0,0.0,0.0,0.0,0.0,0.0,0.0,0.0,0.0,0.0,0.0,0.0,0.0,0.0,0.0,0.0,0.0,0.0,0.0,0.0,0.0,0.0,0.0,0.0,0.0,0.0,0.0,0.0,0.0,0.0,0.0,0.0,0.0,0.0,0.0,0.0,0.0,0.0,0.0,0.0,0.0,0.0,0.0,0.0,0.0,0.0,0.0,0.0,0.0,0.0,0.0,0.0,0.0,0.0,0.0,0.0,0.0,0.0,0.0,0.0,0.0,0.0,0.0,0.0,0.0,0.0,0.0,0.0,0.0,0.0,0.0,0.0,0.0,0.0,0.0,0.0,-0.8725,-0.963,0.0,-1.1505,-1.1235,-1.1034,-1.0407,-0.9426,-0.7977,0.0,0.0,0.0,0.0,0.0,0.0,0.0,0.0,0.0,0.0,0.0,0.0,0.0,0.0,0.0,0.0,0.0,0.0,0.0,0.0,0.0,0.0,0.0,0.0,0.0,0.0,0.0,0.0,0.0,0.0,0.0,0.0,0.0,0.0,0.0,0.0,0.0,0.0,0.0,0.0,0.0,0.0,0.0,0.0,0.0,0.0,0.0,0.0,0.0,0.0,0.0,0.0,0.0,0.0,0.0,0.0,0.0,0.0,0.0,0.0,0.0,0.0,0.0,0.0,0.0,0.0,0.0,0.0,0.0,0.0,0.0,0.0,0.0,0.0,0.0,0.0,0.0,0.0,0.0,0.0,0.0,0.0,0.0,0.0,0.0,0.0,0.0,0.0,0.0,0.0,0.0,0.0,0.0,0.0,0.0,0.0,0.0,0.0,0.0,0.0,0.0,0.0,-0.8049,-0.8439,-0.9275,0.0,-1.0992,-1.0729,-1.0616,-1.0047,-0.9081,-0.7661,0.0,0.0,0.0,0.0,0.0,0.0,0.0,0.0,0.0,0.0,0.0,0.0,0.0,0.0,0.0,0.0,0.0,0.0,0.0,0.0,0.0,0.0,0.0,0.0,0.0,0.0,0.0,0.0,0.0,0.0,0.0,0.0,0.0,0.0,0.0,0.0,0.0,0.0,0.0,0.0,0.0,0.0,0.0,0.0,0.0,0.0,0.0,0.0,0.0,0.0,0.0,0.0,0.0,0.0,0.0,0.0,0.0,0.0,0.0,0.0,0.0,0.0,0.0,0.0,0.0,0.0,0.0,0.0,0.0,0.0,0.0,0.0,0.0,0.0,0.0,0.0,0.0,0.0,0.0,0.0,0.0,0.0,0.0,0.0,0.0,0.0,0.0,0.0,0.0,0.0,0.0,0.0,0.0,0.0,0.0,0.0,0.0,0.0,0.0,0.0,0.0,0.0,-0.7588,-0.8477,-0.9336,-1.0195,-1.0283,-1.0107,-0.9622,-0.8867,-0.8018,0.0,0.0,0.0,0.0,0.0,0.0,0.0,0.0,0.0,0.0,0.0,0.0,0.0,0.0,0.0,0.0,0.0,0.0,0.0,0.0,0.0,0.0,0.0,0.0,0.0,0.0,0.0,0.0,0.0,0.0,0.0,0.0,0.0,0.0,0.0,0.0,0.0,0.0,0.0,0.0,0.0,0.0,0.0,0.0,0.0,0.0,0.0,0.0,0.0,0.0,0.0,0.0,0.0,0.0,0.0,0.0,0.0,0.0,0.0,0.0,0.0,0.0,0.0,0.0,0.0,0.0,0.0,0.0,0.0,0.0,0.0,0.0,0.0,0.0,0.0,0.0,0.0,0.0,0.0,0.0,0.0,0.0,0.0,0.0,0.0,0.0,0.0,0.0,0.0,0.0,0.0,0.0,0.0,0.0,0.0,0.0,0.0,0.0,0.0,0.0,0.0,0.0,0.0,-0.7627,-0.8697,-0.9658,-1.0225,-1.0283,-0.999,-0.9248,-0.8965,-0.8184,-0.6709,0.0,0.0,0.0,0.0,0.0,0.0,0.0,0.0,0.0,0.0,0.0,0.0,0.0,0.0,0.0,0.0,0.0,0.0,0.0,0.0,0.0,0.0,0.0,0.0,0.0,0.0,0.0,0.0,0.0,0.0,0.0,0.0,0.0,0.0,0.0,0.0,0.0,0.0,0.0,0.0,0.0,0.0,0.0,0.0,0.0,0.0,0.0,0.0,0.0,0.0,0.0,0.0,0.0,0.0,0.0,0.0,0.0,0.0,0.0,0.0,0.0,0.0,0.0,0.0,0.0,0.0,0.0,0.0,0.0,0.0,0.0,0.0,0.0,0.0,0.0,0.0,0.0,0.0,0.0,0.0,0.0,0.0,0.0,0.0,0.0,0.0,0.0,0.0,0.0,0.0,0.0,0.0,0.0,0.0,0.0,0.0,0.0,0.0,0.0,0.0,0.0,0.0,-0.7647,-0.8804,-0.9795,-1.0234,-1.0283,-1.0,-0.9316,-0.9102,-0.834,-0.6787,0.0,0.0,0.0,0.0,0.0,0.0,0.0,0.0,0.0,0.0,0.0,0.0,0.0,0.0,0.0,0.0,0.0,0.0,0.0,0.0,0.0,0.0,0.0,0.0,0.0,0.0,0.0,0.0,0.0,0.0,0.0,0.0,0.0,0.0,0.0,0.0,0.0,0.0,0.0,0.0,0.0,0.0,0.0,0.0,0.0,0.0,0.0,0.0,0.0,0.0,0.0,0.0,0.0,0.0,0.0,0.0,0.0,0.0,0.0,0.0,0.0,0.0,0.0,0.0,0.0,0.0,0.0,0.0,0.0,0.0,0.0,0.0,0.0,0.0,0.0,0.0,0.0,0.0,0.0,0.0,0.0,0.0,0.0,0.0,0.0,0.0,0.0,0.0,0.0,0.0,0.0,0.0,0.0,0.0,0.0,0.0,0.0,0.0,0.0,0.0,0.0,0.0,-0.7705,-0.8863,-0.9844,-1.0244,-1.0283,-1.0107,-0.9631,-0.9248,-0.8477,-0.7236,0.0,0.0,0.0,0.0,0.0,0.0,0.0,0.0,0.0,0.0,0.0,0.0,0.0,0.0,0.0,0.0,0.0,0.0,0.0,0.0,0.0,0.0,0.0,0.0,0.0,0.0,0.0,0.0,0.0,0.0,0.0,0.0,0.0,0.0,0.0,0.0,0.0,0.0,0.0,0.0,0.0,0.0,0.0,0.0,0.0,0.0,0.0,0.0,0.0,0.0,0.0,0.0,0.0,0.0,0.0,0.0,0.0,0.0,0.0,0.0,-0.7588,0.0,0.0,0.0,0.0,0.0,0.0,0.0,0.0,0.0,0.0,0.0,0.0,0.0,0.0,0.0,0.0,0.0,0.0,0.0,0.0,0.0,0.0,0.0,0.0,0.0,0.0,0.0,0.0,0.0,0.0,0.0,0.0,0.0,0.0,0.0,0.0,0.0,0.0,0.0,0.0,0.0,-0.8184,-0.9355,-1.0186,-1.0273,-1.0283,-1.0107,-0.9631,-0.9248,-0.8603,-0.7627,-0.682,0.0,0.0,0.0,0.0,0.0,0.0,0.0,0.0,0.0,0.0,0.0,0.0,0.0,0.0,0.0,0.0,0.0,0.0,0.0,0.0,0.0,0.0,0.0,0.0,0.0,0.0,0.0,0.0,0.0,0.0,0.0,0.0,0.0,0.0,0.0,0.0,0.0,0.0,0.0,0.0,0.0,0.0,0.0,0.0,0.0,0.0,0.0,0.0,0.0,0.0,0.0,0.0,0.0,0.0,0.0,0.0,0.0,0.0,0.0,0.0,-0.8437,0.0,0.0,0.0,0.0,0.0,0.0,0.0,0.0,0.0,0.0,0.0,0.0,0.0,0.0,0.0,0.0,0.0,0.0,0.0,0.0,0.0,0.0,0.0,0.0,0.0,0.0,0.0,0.0,0.0,0.0,0.0,0.0,0.0,0.0,0.0,0.0,0.0,0.0,0.0,0.0,-0.832,-0.9528,-1.0283,-1.0283,-1.0283,-1.0186,-0.9961,-0.9551,-0.8945,-0.8096,-0.7412,0.0,0.0,0.0,0.0,0.0,0.0,0.0,0.0,0.0,0.0,0.0,0.0,0.0,0.0,0.0,0.0,0.0,0.0,0.0,0.0,0.0,0.0,0.0,0.0,0.0,0.0,0.0,0.0,0.0,0.0,0.0,0.0,0.0,0.0,0.0,0.0,0.0,0.0,0.0,0.0,0.0,0.0,0.0,0.0,0.0,0.0,0.0,0.0,0.0,0.0,0.0,0.0,0.0,0.0,-1.0352,-1.0625,-1.0703,-1.0928,-1.1211,-1.0508,-1.0273,-1.0303,0.0,0.0,0.0,0.0,0.0,0.0,0.0,0.0,0.0,0.0,0.0,0.0,0.0,0.0,0.0,0.0,0.0,0.0,0.0,0.0,0.0,0.0,0.0,0.0,0.0,-0.8709,-0.8036,0.0,0.0,0.0,0.0,0.0,0.0,0.0,0.0,0.0,0.0,0.0,0.0,-0.8535,-0.958,-1.0283,-1.0283,-1.0283,-1.0283,-1.0283,-0.9883,-0.9301,-0.8643,-0.8125,-0.7452,0.0,0.0,0.0,0.0,0.0,0.0,0.0,0.0,0.0,0.0,0.0,0.0,0.0,0.0,0.0,0.0,0.0,0.0,0.0,0.0,0.0,0.0,0.0,0.0,0.0,0.0,0.0,0.0,0.0,0.0,0.0,0.0,-0.5134,-0.5132,0.0,0.0,0.0,0.0,0.0,0.0,0.0,0.0,0.0,0.0,0.0,0.0,0.0,0.0,-1.0029,-1.0812,-1.1047,-1.0752,-1.1904,-1.2285,-1.1937,-1.2363,-1.2568,-1.2617,-1.25,0.0,-1.0781,-1.0254,0.0,0.0,0.0,0.0,0.0,0.0,0.0,0.0,0.0,0.0,0.0,0.0,0.0,0.0,0.0,0.0,0.0,0.0,0.0,0.0,0.0,0.0,-1.1028,-1.0723,-1.0535,-1.0457,0.0,-0.8509,-0.6832,-0.6905,0.0,0.0,0.0,0.0,0.0,0.0,0.0,0.0,-0.933,-0.9941,-1.0283,-1.0283,-1.0283,-1.0283,-1.0283,-0.9883,-0.9554,-0.9437,-0.873,-0.8076,-0.754,-0.7148,0.0,0.0,0.0,0.0,0.0,0.0,0.0,0.0,0.0,0.0,0.0,0.0,0.0,0.0,0.0,0.0,0.0,0.0,0.0,0.0,0.0,0.0,0.0,0.0,0.0,0.0,0.0,0.0,0.0,-0.5451,-0.5677,-0.5291,-0.5265,-0.5086,0.0,0.0,0.0,0.0,0.0,0.0,0.0,0.0,0.0,-1.0059,-1.0254,-1.0684,-1.1367,-1.1748,-1.1963,-1.2021,-1.2607,-1.2783,-1.2607,-1.2793,-1.2881,-1.2881,-1.2881,-1.2549,-1.1963,-1.1332,-1.0635,-1.0029,0.0,0.0,0.0,0.0,0.0,-0.958,-1.0498,0.0,0.0,0.0,0.0,0.0,0.0,0.0,0.0,0.0,0.0,0.0,0.0,0.0,0.0,-1.1572,-1.1238,-1.0993,-1.1504,-1.0296,-0.8894,0.0,-0.7916,-0.7512,-0.69,0.0,0.0,0.0,0.0,0.0,-0.9515,-1.001,-1.0283,-1.0283,-1.0283,-1.0283,-1.0283,-1.0107,-0.9893,-0.9612,-0.9287,-0.8896,-0.8435,-0.7773,-0.7266,0.0,0.0,0.0,0.0,0.0,0.0,0.0,0.0,0.0,0.0,0.0,0.0,0.0,0.0,0.0,0.0,0.0,0.0,0.0,0.0,0.0,0.0,0.0,0.0,0.0,0.0,0.0,0.0,-0.6014,-0.6259,-0.5494,-0.582,-0.5833,0.0,0.0,0.0,0.0,0.0,0.0,-0.8849,-0.9772,-1.0546,-1.1221,-1.1357,-1.1728,-1.2393,-1.2393,-1.2559,-1.2881,-1.2881,-1.2881,-1.2881,-1.2881,-1.2881,-1.2881,-1.2881,-1.2881,-1.2822,-1.2051,-1.1543,-1.1201,-1.0781,-1.0645,-1.0695,-1.1084,-1.1045,-1.0937,-1.2021,-1.2109,-1.1699,-1.1484,0.0,-1.0898,-0.9951,0.0,0.0,0.0,0.0,-1.04,-1.1074,0.0,-1.1582,-1.2236,-1.1862,-1.1527,-1.2231,-1.1721,-1.085,0.0,-0.9158,-0.866,-0.7859,0.0,0.0,0.0,0.0,-0.9648,-1.0068,-1.041,-1.0606,-1.0459,-1.0439,-1.04,-1.0293,-1.0283,-1.0146,-0.9787,-0.9795,-0.9609,-0.918,-0.8522,-0.8036,-0.7705,0.0,0.0,0.0,0.0,0.0,0.0,0.0,0.0,0.0,0.0,0.0,0.0,0.0,0.0,0.0,0.0,0.0,0.0,0.0,0.0,0.0,0.0,0.0,0.0,0.0,0.0,0.0,0.0,0.0,-0.5787,-0.727,0.0,0.0,0.0,0.0,-0.801,-0.8773,-0.9654,-1.0729,-1.1587,-1.2073,-1.2112,-1.2568,-1.2803,-1.2842,-1.2842,-1.2861,-1.2881,-1.2881,-1.2881,-1.2881,-1.2881,-1.2881,-1.2881,-1.2881,-1.2881,-1.2842,-1.2383,-1.2141,-1.2073,-1.167,-1.1538,-1.1596,-1.2002,-1.2102,-1.2161,-1.2686,-1.2559,-1.2266,-1.2656,-1.2263,-1.1557,-1.1498,-1.1143,0.0,0.0,-1.1445,-1.2064,-1.2112,-1.2471,-1.2793,-1.2842,-1.2832,-1.2822,-1.2842,-1.25,-1.1879,0.0,-1.077,-1.0497,-0.9622,0.0,-1.0156,-1.0156,-1.0527,-1.0967,-1.1449,-1.1528,-1.1381,-1.0918,-1.0879,-1.0713,-1.0312,-1.0283,-1.0273,-1.0254,-1.0244,-1.0059,-0.9583,-0.9524,-0.8931,-0.7725,-0.7275,0.0,0.0,0.0,0.0,0.0,0.0,0.0,0.0,0.0,0.0,0.0,0.0,0.0,0.0,0.0,0.0,0.0,0.0,0.0,0.0,0.0,0.0,0.0,0.0,0.0,0.0,0.0,0.0,-0.7598,-0.8107,0.0,-0.6653,-0.7384,-0.8082,-0.8383,-0.9802,-1.0813,-1.1183,-1.2118,-1.2646,-1.2646,-1.2803,-1.2881,-1.2881,-1.2881,-1.2881,-1.2881,-1.2881,-1.3027,-1.3281,-1.3281,-1.3281,-1.3281,-1.3281,-1.3135,-1.2871,-1.2715,-1.2646,-1.2637,-1.2471,-1.2459,-1.2422,-1.2588,-1.2646,-1.2676,-1.2832,-1.2783,-1.2676,-1.2832,-1.2666,-1.2459,-1.2459,-1.2305,-1.2178,-1.2178,-1.2402,-1.2646,-1.2646,-1.2764,-1.2881,-1.2881,-1.2881,-1.2881,-1.2881,-1.2754,-1.2559,-1.2236,-1.1719,-1.1143,-1.0557,-1.082,-1.1047,-1.0732,-1.1055,-1.143,-1.1587,-1.1606,-1.1547,-1.139,-1.1074,-1.085,-1.0703,-1.0439,-1.0283,-1.0283,-1.0283,-1.0215,-1.0059,-0.9521,-0.9014,-0.8555,-0.7598,-0.6797,0.0,0.0,0.0,0.0,0.0,0.0,0.0,0.0,0.0,0.0,0.0,0.0,0.0,0.0,0.0,0.0,0.0,0.0,0.0,0.0,0.0,0.0,0.0,0.0,0.0,0.0,-0.9712,-0.8936,-0.931,-0.9199,-0.8084,-0.8753,-0.939,-0.9619,-1.0801,-1.1627,-1.1883,-1.2513,-1.2881,-1.2881,-1.3018,-1.3096,-1.3096,-1.3232,-1.3301,-1.3301,-1.3301,-1.3447,-1.3721,-1.3721,-1.3721,-1.3721,-1.3721,-1.3477,-1.3096,-1.3096,-1.3008,-1.2881,-1.2881,-1.2881,-1.2881,-1.2881,-1.2881,-1.2881,-1.2881,-1.2881,-1.2881,-1.2881,-1.2881,-1.2881,-1.2881,-1.2881,-1.2881,-1.2881,-1.2881,-1.2881,-1.2881,-1.2881,-1.2881,-1.2881,-1.2881,-1.2881,-1.2881,-1.2881,-1.2881,-1.2881,-1.2449,-1.191,-1.1426,-1.1719,-1.1855,-1.1426,-1.1728,-1.2057,-1.2057,-1.2057,-1.1998,-1.1797,-1.1523,-1.124,-1.0937,-1.0654,-1.043,-1.0293,-1.0146,-1.0059,-1.0059,-0.9385,-0.8936,-0.8799,-0.7676,-0.6865,-0.6406,0.0,0.0,0.0,0.0,0.0,0.0,0.0,0.0,0.0,0.0,0.0,0.0,0.0,0.0,0.0,0.0,0.0,0.0,0.0,0.0,0.0,0.0,0.0,-0.8937,-1.0114,-1.0666,-0.9684,-1.0886,-1.1323,-1.0069,-1.0506,-1.1116,-1.1765,-1.1814,-1.2129,-1.2871,-1.2881,-1.2891,-1.29,-1.3301,-1.3516,-1.3525,-1.3926,-1.4077,-1.4077,-1.4077,-1.4087,-1.4097,-1.4097,-1.4097,-1.4097,-1.4097,-1.3863,-1.3525,-1.3525,-1.3331,-1.2949,-1.2929,-1.2881,-1.2881,-1.2881,-1.2881,-1.2881,-1.2881,-1.2881,-1.2881,-1.2881,-1.2881,-1.2881,-1.2881,-1.2881,-1.2881,-1.2881,-1.2881,-1.2881,-1.2881,-1.2881,-1.2881,-1.2881,-1.2881,-1.2881,-1.2881,-1.2881,-1.2881,-1.2881,-1.2881,-1.2744,-1.2278,-1.2607,-1.2744,-1.2314,-1.2607,0.0,-1.2881,-1.2881,-1.2725,-1.2248,-1.219,-1.184,-1.1025,-1.0928,-1.0732,-1.0332,-0.9883,-0.9602,-0.9612,-0.9238,-0.8809,-0.842,-0.7568,-0.6914,-0.6445,0.0,0.0,0.0,0.0,0.0,0.0,0.0,0.0,0.0,0.0,0.0,0.0,0.0,0.0,0.0,0.0,0.0,0.0,0.0,0.0,0.0,0.0,-1.0555,-1.0428,-1.1249,-1.1686,-1.1214,-1.1518,-1.1478,-1.0631,-1.1146,-1.1616,-1.1765,-1.2295,-1.2666,-1.2881,-1.2881,-1.3018,-1.333,-1.3447,-1.3652,-1.3902,-1.4019,-1.4077,-1.4077,-1.4077,-1.4297,-1.4609,-1.4609,-1.4609,-1.4609,-1.4609,-1.4365,-1.3965,-1.4501,-1.4439,-1.3908,-1.3184,-1.2881,-1.2881,-1.2881,-1.2881,-1.2881,-1.2881,-1.2881,-1.2881,-1.2881,-1.2881,-1.2881,-1.2881,-1.2881,-1.2881,-1.2881,-1.2881,-1.2881,-1.2881,-1.2881,-1.2881,-1.2881,-1.2881,-1.2881,-1.2881,-1.2881,-1.2881,-1.2881,-1.2881,-1.2842,-1.2725,-1.2803,-1.2842,-1.2725,0.0,0.0,-1.2881,-1.2881,-1.2832,-1.2715,-1.2422,-1.2083,-1.184,-1.1279,-1.0859,-1.0742,-1.0001,-0.9738,-1.0088,-0.9395,-0.8809,-0.842,-0.8175,-0.7803,0.0,0.0,0.0,0.0,0.0,0.0,0.0,0.0,0.0,0.0,0.0,0.0,0.0,0.0,0.0,0.0,0.0,0.0,0.0,0.0,0.0,0.0,-1.1051,-1.1579,-1.1759,-1.2194,-1.2445,-1.2267,-1.2236,-1.2089,-1.1742,-1.2039,-1.2311,-1.2479,-1.2926,-1.3223,-1.3398,-1.3408,-1.3516,-1.376,-1.3945,-1.416,-1.4404,-1.458,-1.4668,-1.4668,-1.4668,-1.4805,-1.5049,-1.5049,-1.5209,0.0,-1.5491,-1.545,-1.5341,-1.5805,-1.5669,0.0,0.0,0.0,0.0,0.0,-1.3037,-1.2881,-1.2881,-1.2881,-1.291,-1.3086,-1.3027,-1.291,-1.3096,-1.3018,-1.2881,-1.2881,-1.2881,-1.2881,-1.2881,-1.2881,-1.2881,-1.2881,-1.2881,-1.2881,-1.2881,-1.2881,-1.2881,-1.2881,0.0,0.0,-1.2881,-1.2881,-1.2881,-1.2881,-1.2881,-1.2881,0.0,-1.2881,-1.2881,-1.2881,-1.2656,-1.2432,-1.22,-1.1582,0.0,0.0,0.0,-0.9668,-0.9746,-0.9268,0.0,0.0,0.0,0.0,0.0,0.0,0.0,0.0,-0.7705,-0.7666,0.0,0.0,0.0,0.0,0.0,0.0,0.0,0.0,0.0,0.0,0.0,0.0,0.0,0.0,0.0,0.0,-1.2012,-1.2451,-1.2891,-1.2949,-1.293,-1.2891,-1.292,-1.2949,-1.2949,-1.2998,-1.3174,-1.3545,-1.3574,-1.374,-1.4058,0.0,0.0,0.0,0.0,-1.4805,-1.4853,-1.5225,-1.541,-1.541,-1.5468,-1.5526,-1.5526,-1.5633,-1.6026,-1.6595,-1.6595,-1.6796,-1.7047,-1.7153,-1.706,-1.6761,-1.6496,-1.5659,-1.4524,-1.3912,-1.3491,0.0,0.0,0.0,0.0,-1.3599,-1.3471,-1.3234,-1.3467,-1.332,-1.3027,-1.3027,-1.2988,-1.2949,-1.2949,-1.291,-1.2881,-1.2881,-1.2881,-1.2881,-1.2881,-1.2881,-1.2881,-1.2881,-1.2881,-1.2881,-1.2881,-1.2881,-1.2881,-1.2881,-1.2881,0.0,-1.2881,-1.2881,-1.2881,-1.2881,0.0,0.0,-1.2287,-1.1895,-1.1475,-1.1084,-1.0303,-0.9658,-0.9238,-0.9268,-0.9268,-0.9219,-0.9268,-0.9268,-0.9219,-1.0029,-1.0225,-0.9777,-0.86,-0.8291,0.0,0.0,0.0,0.0,0.0,0.0,0.0,0.0,0.0,0.0,0.0,0.0,0.0,0.0,0.0,-1.2002,-1.2471,-1.29,-1.333,-1.3389,-1.3262,-1.292,-1.3184,-1.3389,-1.3389,-1.3691,-1.3926,-1.3951,-1.3961,-1.4,-1.4077,-1.4077,0.0,-1.4648,-1.4746,-1.4951,-1.5283,-1.5371,-1.541,-1.541,0.0,0.0,-1.6322,-1.6912,-1.7246,-1.7413,-1.7413,-1.7412,-1.7542,-1.8135,-1.867,-1.8978,-1.7113,-1.6243,-1.5942,-1.516,-1.48,-1.4779,-1.4779,-1.4779,-1.4789,-1.4831,-1.48,-1.4646,-1.4133,-1.3902,0.0,-1.3887,-1.3652,-1.3389,-1.3389,-1.3135,-1.2881,-1.2881,-1.2881,-1.2881,-1.2881,-1.2881,-1.2881,-1.2881,-1.2881,-1.2881,-1.2881,-1.2881,-1.2881,-1.2881,-1.2881,-1.2881,-1.2881,-1.2881,-1.2881,-1.2881,-1.2881,-1.2842,-1.2764,-1.2353,-1.207,-1.1927,-1.1484,-1.0996,-1.0557,-1.092,-1.0898,-1.0547,-1.0889,-1.0898,-1.0537,-1.1064,-1.1312,-1.1214,-1.0566,-1.0342,0.0,0.0,0.0,0.0,0.0,0.0,0.0,0.0,0.0,0.0,0.0,-1.0156,-1.0842,0.0,-1.2109,-1.2764,-1.3057,-1.334,-1.376,-1.3818,-1.374,-1.3525,-1.3691,-1.3818,-1.3818,-1.3951,-1.4228,-1.4443,-1.4463,-1.4551,-1.4766,-1.4775,-1.4873,-1.5088,-1.5098,-1.5205,-1.541,-1.5758,-1.5921,-1.5979,-1.6698,-1.7034,-1.709,-1.7413,-1.7786,-1.8167,-1.8167,-1.834,-1.8715,-1.9097,-1.9475,-1.9697,-1.8527,-1.7748,-1.7171,-1.638,-1.5968,-1.5811,-1.5811,-1.5811,-1.5855,-1.6044,-1.5957,-1.5701,-1.5161,-1.4867,-1.4588,-1.4174,-1.3984,-1.3769,-1.3564,-1.335,-1.3145,-1.293,-1.2881,-1.2881,-1.2881,-1.2881,-1.2881,-1.2881,-1.2881,-1.2881,-1.2881,-1.2881,-1.2881,-1.2881,-1.2881,-1.2881,-1.2881,-1.2881,-1.2881,-1.2881,-1.2881,-1.2881,-1.2881,-1.248,-1.2083,-1.1904,-1.1724,-1.1498,-1.125,-1.1489,-1.1498,-1.124,-1.1489,-1.1498,-1.123,-1.168,-1.1895,-1.1895,-1.1895,-1.166,0.0,0.0,0.0,0.0,0.0,0.0,0.0,0.0,-0.9858,-1.0449,-1.0869,-1.1299,-1.1783,-1.2178,-1.2734,-1.3506,-1.3633,-1.3779,-1.4199,-1.4258,-1.4233,-1.4321,-1.4253,-1.4258,-1.4258,-1.4336,-1.4531,-1.4883,-1.4902,-1.5049,-1.5391,-1.541,-1.541,-1.541,-1.5526,-1.5633,-1.5633,-1.6368,-1.6708,-1.6708,-1.7468,-1.7786,-1.7852,-1.7961,-1.8328,-1.8927,-1.8927,-1.9254,-1.9798,-1.9798,-1.9798,-1.9798,-1.9798,-1.9216,-1.8313,-1.742,-1.6815,-1.6428,-1.6428,-1.6428,-1.6495,-1.678,-1.6688,-1.6339,-1.5911,-1.5538,-1.5088,-1.4538,-1.4326,-1.418,-1.3848,-1.3633,-1.3418,-1.3086,-1.2939,-1.2881,-1.2881,-1.2881,-1.2881,-1.2881,-1.2881,-1.2881,-1.2881,-1.2881,-1.2881,-1.2881,-1.2881,-1.2881,-1.2881,-1.2881,-1.2881,-1.2881,-1.2881,-1.2881,-1.2881,-1.2559,-1.2207,-1.1881,-1.1861,-1.1861,-1.1861,-1.1861,-1.1861,-1.1861,-1.1861,-1.1861,-1.1861,-1.2178,-1.2353,-1.2363,-1.2715,-1.2547,-1.0504,-0.9933,-0.9369,-0.9721,-0.9572,-0.9666,0.0,0.0,-1.0871,-1.1361,-1.1768,-1.2217,-1.2656,-1.3076,-1.3516,-1.3984,-1.4009,-1.4209,-1.4648,-1.4717,-1.4853,-1.5225,-1.4941,-1.4717,-1.4717,-1.5049,-1.5293,-1.5342,-1.5342,-1.5361,-1.541,-1.541,-1.541,-1.541,-1.6036,-1.6379,-1.6379,-1.7079,-1.7468,-1.7468,-1.8232,-1.8555,-1.8608,-1.9267,-1.9592,-1.9695,-1.9695,-1.9695,-1.9798,-1.9798,-1.9798,-1.9798,-1.9798,-1.9709,-1.9441,-1.8032,-1.7082,-1.6504,-1.6504,-1.6504,-1.6514,-1.6557,-1.6546,-1.6346,-1.5658,-1.5418,-1.5379,-1.5273,-1.5,-1.4697,-1.4658,-1.4072,-1.3496,-1.3447,-1.3154,-1.2881,-1.2881,-1.2881,-1.2881,-1.2881,-1.2881,-1.2881,-1.2881,-1.2881,-1.2881,-1.2881,-1.2881,-1.2881,-1.2881,-1.2881,-1.2881,-1.2881,-1.2881,-1.2881,-1.2881,-1.2832,-1.2783,-1.2734,-1.2734,-1.2734,-1.2734,-1.2734,-1.2734,-1.2734,-1.2734,-1.2734,-1.2734,-1.2783,-1.2812,-1.2812,-1.2861,-1.2832,-1.2313,-1.1659,-1.0919,-1.0613,-1.0785,-1.119,-1.1832,-1.1807,-1.1807,-1.2236,-1.248,-1.2744,-1.3164,-1.3389,-1.373,0.0,-1.4512,-1.4668,-1.5088,-1.5146,-1.5127,-1.5049,-1.5107,-1.5146,-1.5146,-1.5312,-1.541,-1.541,-1.541,-1.541,-1.541,-1.5806,-1.6036,-1.6036,-1.6754,-1.7333,-1.7685,-1.8406,-1.8946,-1.9249,-1.9987,-2.033,-2.033,-2.0669,-2.0614,-2.0326,-2.0639,-2.0602,-2.0326,-2.0652,-2.0778,-2.0752,-2.0426,-2.0076,-1.9599,-1.91,-1.8715,-1.8436,-1.8436,-1.8124,-1.7797,-1.7797,-1.7468,-1.6978,-1.6255,-1.6036,-1.5921,-1.5526,-1.5283,-1.5098,-1.4844,-1.4521,-1.4121,-1.3623,-1.3369,-1.3184,-1.293,-1.2881,-1.2881,-1.2881,-1.2881,-1.2881,-1.2881,-1.2881,-1.2881,-1.2881,-1.2881,-1.2881,-1.2881,-1.2881,-1.2881,-1.2881,-1.2881,-1.2881,-1.2881,-1.2881,-1.2881,-1.2881,-1.2881,-1.2881,-1.2881,-1.2881,-1.2881,-1.2881,-1.2881,-1.2881,-1.2881,-1.2881,-1.2881,-1.2881,-1.2881,-1.2881,-1.2916,-1.2413,-1.1974,-1.1417,-1.1713,-1.2209,-1.2383,-1.2412,-1.25,-1.2812,-1.2881,-1.3047,-1.3584,-1.3682,-1.3965,-1.4814,-1.4961,-1.5068,-1.5371,-1.5418,-1.5345,-1.5093,-1.5223,-1.5392,-1.5444,-1.5458,-1.541,-1.541,-1.5584,-1.569,-1.569,-1.6425,-1.681,-1.681,-1.7656,-1.8349,-1.8794,-1.9666,-2.0334,-2.0722,-2.1256,-2.1493,-2.1493,-2.1493,-2.128,-2.097,-2.1317,-2.1255,-2.097,-2.133,-2.1493,-2.143,-2.0932,-2.0382,-1.9916,-1.9855,-1.9527,-1.9202,-1.9202,-1.8821,-1.8394,-1.8394,-1.7895,-1.7191,-1.6652,-1.6379,-1.6093,-1.5526,-1.541,-1.5342,-1.5039,-1.4873,-1.4629,-1.4004,-1.3682,-1.3418,-1.3125,-1.2959,-1.2881,-1.2881,-1.2881,-1.2881,-1.2881,-1.2881,-1.2881,-1.2881,-1.2881,-1.2881,-1.2881,-1.2881,-1.2881,-1.2881,-1.2881,-1.2881,-1.2881,-1.2881,-1.2881,-1.2881,-1.2881,-1.2881,-1.2881,-1.2881,-1.2881,-1.2881,-1.2881,-1.2881,-1.2881,-1.2881,-1.2881,-1.2881,-1.2881,-1.2881,-1.1408,-1.1328,-1.1789,-1.2063,-1.2161,-1.2344,-1.2764,-1.2861,-1.2861,-1.2881,-1.2881,-1.3135,-1.3965,-1.4058,-1.4394,-1.5254,-1.5391,-1.54,-1.541,-1.5558,-1.5714,-1.5649,-1.533,-1.5247,0.0,-1.5499,-1.541,-1.541,-1.6036,-1.6492,-1.6492,-1.7191,-1.7578,-1.7578,-1.8841,-1.9567,-1.9591,-2.0791,-2.1468,-2.1481,-2.1493,-2.1493,-2.1493,-2.1493,-2.1481,-2.1468,-2.1481,-2.1481,-2.1468,-2.1481,-2.1493,-2.143,-2.0932,-2.0665,-2.0589,-2.0012,-1.8874,-1.7688,-1.7688,-1.7633,-1.7633,-1.7633,-1.7146,-1.6549,-1.6492,-1.5979,-1.541,-1.541,-1.541,-1.541,-1.5391,-1.5088,-1.4775,-1.4756,-1.4111,-1.3506,-1.3486,-1.3164,-1.2881,-1.2881,-1.2881,-1.2881,-1.2881,-1.2881,-1.2881,-1.2881,-1.2881,-1.2881,-1.2881,-1.2881,-1.2881,-1.2881,-1.2881,-1.2881,-1.2881,-1.2881,-1.2881,-1.2881,-1.2881,-1.2881,-1.2881,-1.2881,-1.2881,-1.2881,-1.2881,-1.2881,-1.2881,-1.2881,-1.2881,-1.2881,-1.2881,-1.2881,-1.2443,-1.2199,-1.2079,-1.2148,-1.2451,-1.2695,-1.2842,-1.2881,-1.2881,-1.2881,-1.3238,-1.3641,-1.4175,-1.4552,-1.4961,-1.5497,-1.5899,-1.6151,-1.6151,-1.6616,-1.6841,-1.6578,-1.6266,0.0,0.0,0.0,0.0,-1.6073,-1.6379,-1.6708,-1.7191,-1.7961,-1.8491,-1.8908,-1.9825,-2.0674,-2.1391,-2.1818,-2.2221,-2.2585,-2.2585,-2.2585,-2.2585,-2.2585,-2.2385,-2.2058,-2.2422,-2.2372,-2.2071,-2.2422,-2.2585,-2.2523,-2.197,-2.1531,-2.1142,-2.0577,-1.985,-1.9044,-1.9044,-1.8715,-1.834,-1.834,-1.7841,-1.7246,-1.7246,-1.7079,-1.6743,-1.6255,-1.6151,-1.6036,-1.5526,-1.5312,-1.5127,-1.4853,-1.457,-1.4277,-1.3984,-1.3809,-1.3711,-1.3711,-1.3711,-1.3623,-1.334,-1.3301,-1.3203,-1.292,-1.2881,-1.2881,-1.2881,-1.2881,-1.2881,-1.2881,-1.2881,-1.2881,-1.2881,-1.2881,-1.2881,-1.2881,-1.2881,-1.2881,-1.2881,-1.2881,-1.2881,-1.2881,-1.2881,-1.2881,-1.2881,-1.2881,-1.2881,-1.2881,-1.2881,-1.2881,-1.2789,-1.2483,-1.2219,-1.2422,-1.2676,-1.2881,-1.2881,-1.2881,-1.2881,-1.2881,-1.3372,-1.3915,-1.4307,-1.4652,-1.5122,-1.5967,-1.6208,-1.6451,-1.6845,-1.7367,-1.7626,-1.7369,-1.6975,-1.6741,0.0,0.0,0.0,-1.6451,-1.6978,-1.7601,-1.8279,-1.9,-1.9697,-2.0256,-2.0921,-2.1594,-2.2297,-2.251,-2.2786,-2.3078,-2.3078,-2.3078,-2.3078,-2.3078,-2.2937,-2.2623,-2.2975,-2.2877,-2.2636,-2.2987,-2.3078,-2.3075,-2.2523,-2.2096,-2.1694,-2.0941,-2.0426,-2.0075,-1.9874,-1.9475,-1.9097,-1.9097,-1.8608,-1.795,-1.7688,-1.7578,-1.7468,-1.6708,-1.6492,-1.6379,-1.5921,-1.5584,-1.5342,-1.5078,-1.4893,-1.4707,-1.4434,-1.4248,-1.4077,-1.4077,-1.4077,-1.4,-1.3779,-1.3603,-1.3359,-1.2939,-1.2881,-1.2881,-1.2881,-1.2881,-1.2881,-1.2881,-1.2881,-1.2881,-1.2881,-1.2881,-1.2881,-1.2881,-1.2881,-1.2881,-1.2881,-1.2881,-1.2881,-1.2881,-1.2881,-1.2881,-1.2881,-1.2881,-1.2881,-1.2881,-1.2881,-1.2881,-1.2385,-1.2219,-1.2363,-1.2783,-1.2881,-1.2881,-1.2881,-1.2881,-1.2929,-1.2929,-1.342,-1.3952,0.0,0.0,-1.4985,-1.6547,-1.6352,-1.6364,-1.75,-1.7868,-1.7989,0.0,0.0,0.0,0.0,0.0,0.0,-1.6751,0.0,-1.9042,-1.9658,-2.0365,-2.0966,-2.1506,-2.2033,-2.2322,-2.2347,-2.2874,-2.3078,-2.3078,-2.3078,-2.3078,-2.3078,-2.3078,-2.3078,-2.3078,-2.3078,-2.3078,-2.3078,-2.3078,-2.3078,-2.3027,-2.256,-2.2334,-2.2184,-2.1142,-2.0769,-2.0643,-2.0037,-1.9823,-1.9798,-1.9798,-1.9307,-1.8608,-1.7907,-1.7688,-1.7468,-1.6708,-1.6492,-1.6492,-1.6436,-1.5921,-1.541,-1.541,-1.5107,-1.4814,-1.4814,-1.4492,-1.4145,-1.4145,-1.4126,-1.4116,-1.4116,-1.3818,-1.3408,-1.3008,-1.2939,-1.293,-1.2891,-1.2881,-1.2881,-1.2881,-1.2881,-1.2881,-1.2881,-1.2881,-1.2881,-1.2881,-1.2881,-1.2881,-1.2881,-1.2881,-1.2881,-1.2881,-1.2881,-1.2881,-1.2881,-1.2881,-1.2881,-1.2881,-1.2881,-1.2881,-1.2675,-1.2715,-1.2744,-1.2852,-1.2881,-1.2881,-1.2881,-1.2881,-1.3017,-1.3457,-1.405,-1.464,0.0,0.0,0.0,-1.6895,-1.7213,0.0,-1.8312,-1.8923,0.0,-1.9952,0.0,-1.9185,-1.971,-1.9645,0.0,0.0,-1.9368,-1.9836,-2.0952,-2.1212,-2.1531,-2.2083,-2.2234,-2.251,-2.2865,-2.3002,-2.3078,-2.3078,-2.3078,-2.3078,-2.3078,-2.3078,-2.3078,-2.3078,-2.3078,-2.3078,-2.3078,-2.3078,-2.3078,-2.3065,-2.2975,-2.2673,-2.2284,-2.1995,-2.138,-2.0706,-2.0542,-2.0162,-1.9798,-1.9798,-1.9695,-1.9359,-1.8661,-1.8436,-1.8167,-1.6866,-1.6492,-1.6379,-1.5806,-1.5526,-1.541,-1.541,-1.5332,-1.5254,-1.5254,-1.5166,-1.5088,-1.5088,-1.4834,-1.4619,-1.4619,-1.4258,-1.3883,-1.3828,-1.3818,-1.3584,-1.2959,-1.2881,-1.2881,-1.2881,-1.2881,-1.2881,-1.2881,-1.2881,-1.2881,-1.2881,-1.2881,-1.2881,-1.2881,-1.2881,-1.2881,-1.2881,-1.2881,-1.2881,-1.2881,-1.2881,-1.2881,-1.2881,-1.2881,-1.2881,-1.3086,-1.3291,-1.3389,-1.3203,-1.3154,-1.3204,-1.3278,-1.3286,-1.3467,-1.4061,-1.4687,-1.5186,-1.5543,-1.5804,0.0,0.0,0.0,0.0,-1.904,-1.975,-2.03,0.0,-2.0538,0.0,-2.0868,-2.0893,-2.099,0.0,-2.0758,-2.0853,-2.182,-2.1845,-2.2108,-2.2661,-2.2673,-2.2824,-2.3078,-2.3078,-2.3078,-2.3078,-2.3078,-2.3078,-2.3078,-2.3078,-2.3078,-2.3078,0.0,-2.3078,-2.3078,-2.3078,-2.3078,-2.3078,-2.3078,-2.2949,-2.2636,-2.2397,-2.192,-2.1355,-2.1104,-2.0815,-2.0464,-1.9962,-1.9798,-1.9643,-1.8927,-1.8939,-1.8927,-1.7797,-1.7246,-1.6866,-1.6472,-1.5911,-1.541,-1.541,-1.541,-1.541,-1.541,-1.541,-1.541,-1.541,-1.5225,-1.5,-1.4814,-1.458,-1.4355,-1.4107,-1.4077,-1.3965,-1.3486,-1.3437,-1.3437,-1.3437,-1.3437,-1.3359,-1.3174,-1.3154,-1.3076,-1.2891,-1.2881,-1.2881,-1.2881,-1.2881,-1.2881,-1.2881,-1.2881,-1.2881,-1.2881,-1.2881,-1.2881,-1.2881,-1.2881,-1.3065,-1.3506,-1.3818,-1.398,-1.3613,-1.3506,-1.353,-1.3741,-1.3726,-1.3871,-1.4563,-1.5138,-1.5536,-1.5624,-1.5672,-1.6272,-1.7922,0.0,-1.7995,-1.9597,-2.03,-2.0743,-2.0819,-2.1255,-2.1631,-2.1707,-2.1707,-2.1907,-2.2385,-2.1983,-2.192,-2.2397,-2.2422,-2.2636,-2.3065,-2.3078,-2.3078,-2.3078,-2.3078,-2.3078,-2.3078,-2.3078,-2.3078,-2.3078,-2.3078,-2.3078,-2.3078,0.0,0.0,-2.3078,-2.3078,-2.3078,-2.3078,-2.3078,-2.3078,-2.3015,-2.2598,-2.2372,-2.2246,-2.1757,-2.1543,-2.1317,-2.0263,-1.9911,-1.9795,-1.8951,-1.915,-1.9475,-1.8768,-1.8112,-1.7578,-1.7578,-1.6631,-1.569,-1.569,-1.569,-1.569,-1.569,-1.569,-1.569,-1.569,-1.569,-1.5571,-1.5091,-1.5031,-1.4903,-1.4464,-1.4405,-1.4405,-1.4405,-1.4253,-1.4077,-1.4077,-1.4077,-1.3984,-1.3623,-1.3594,-1.3408,-1.2988,-1.2969,-1.2939,-1.2881,-1.2881,-1.2881,-1.2881,-1.2881,-1.2881,-1.2881,-1.2881,-1.2929,-1.3017,-1.3017,-1.3334,-1.3506,-1.3818,-1.398,-1.3613,-1.3506,-1.353,-1.3741,-1.3474,0.0,0.0,-1.4853,-1.5109,-1.557,-1.6026,-1.6741,-1.8016,-1.8097,-1.8471,-1.9648,-2.03,-2.084,0.0,-2.1832,-2.2347,-2.2811,0.0,0.0,0.0,0.0,0.0,-2.2987,-2.2927,-2.2977,-2.3078,-2.3078,-2.3078,-2.3078,-2.3078,-2.3078,-2.3078,-2.3078,-2.3078,-2.3078,-2.3078,-2.3078,-2.3078,0.0,0.0,-2.3078,-2.3078,-2.3078,-2.3078,-2.3078,-2.3078,-2.3065,-2.3025,-2.2711,-2.2297,-2.2196,-2.187,-2.138,-2.0727,-2.0514,-2.0307,-1.9071,-1.8768,-1.8715,-1.8015,-1.7688,-1.7578,-1.7578,-1.7413,-1.7246,-1.7246,-1.7246,-1.7246,-1.7246,-1.7246,-1.7246,-1.7246,-1.7246,-1.7002,-1.6331,-1.6208,-1.6177,-1.6094,-1.6084,-1.6084,-1.6084,-1.4944,-1.4077,-1.4077,-1.4077,-1.4048,-1.398,-1.397,-1.3848,-1.3428,-1.3398,-1.3242,-1.29,-1.2881,-1.2881,-1.2881,-1.2881,-1.2881,-1.2881,-1.2881,-1.3152,-1.3637,-1.3637,-1.3967,-1.3828,-1.4307,-1.4648,-1.3994,-1.3828,-1.3909,-1.4221,0.0,0.0,-1.5019,-1.5049,-1.502,-1.5602,-1.5906,0.0,-1.7589,-1.7777,-1.8154,-1.9246,-2.0125,-2.092,-2.143,-2.2234,-2.2849,0.0,0.0,0.0,0.0,0.0,0.0,-2.3078,-2.3078,-2.3078,-2.3078,-2.3078,-2.3078,-2.3078,-2.3078,-2.3078,-2.3078,-2.3078,-2.3078,-2.3078,-2.3078,-2.3078,-2.3078,-2.3078,0.0,-2.3078,-2.3078,-2.3078,-2.3078,-2.3078,-2.3078,-2.3078,-2.3078,-2.2915,-2.2736,-2.2736,-2.2573,-2.2246,-2.1707,-2.133,-2.0986,-2.036,-2.0165,-2.0061,-1.9377,-1.8924,-1.858,-1.8236,-1.7907,-1.7578,-1.7578,-1.7578,-1.7578,-1.7578,-1.7578,-1.7578,-1.7578,-1.7578,-1.7468,-1.7146,-1.709,-1.709,-1.709,-1.709,-1.6922,-1.6539,-1.5827,-1.5174,-1.4795,-1.4795,-1.4707,-1.4492,-1.4473,-1.4287,-1.3857,-1.3828,-1.3643,-1.3223,-1.3203,-1.3244,-1.3382,-1.3372,-1.3515,-1.3836,-1.3836,-1.3836,-1.3815,-1.4097,-1.4422,-1.4077,-1.4687,-1.5098,-1.4326,-1.4116,-1.4235,-1.462,-1.4283,0.0,-1.5302,-1.5117,-1.4903,-1.5417,-1.5618,-1.607,0.0,-1.7388,-1.7765,-1.8869,-1.9861,-2.0727,0.0,-2.2359,0.0,-2.3065,0.0,0.0,0.0,0.0,0.0,-2.3078,-2.3078,-2.3078,-2.3078,-2.3078,-2.3185,-2.3365,-2.3198,-2.3198,-2.3365,-2.3185,-2.3078,-2.3078,-2.3078,-2.3078,-2.3078,-2.3078,0.0,0.0,-2.3078,-2.3078,-2.3078,-2.3078,-2.3078,-2.3078,-2.3078,-2.3078,-2.3078,-2.3078,-2.3078,-2.3002,-2.2636,-2.2121,-2.1644,-2.1518,-2.1493,-2.1393,-2.0966,-2.0348,-1.9715,-1.9281,-1.8583,-1.8093,-1.8208,-1.8366,-1.8458,-1.8458,-1.8366,-1.8285,-1.8285,-1.8139,-1.8004,-1.7841,-1.7852,-1.7852,-1.7852,-1.7688,-1.7468,-1.7034,-1.6708,-1.6265,-1.569,-1.5468,-1.5283,-1.4951,-1.4922,-1.4736,-1.4297,-1.4277,-1.4082,-1.3662,-1.3647,-1.3771,-1.3926,-1.3962,-1.4236,-1.4698,-1.4698,-1.4514,-1.4179,-1.4652,-1.4971,-1.4077,-1.4482,-1.4727,-1.4248,-1.4234,-1.4426,-1.4636,0.0,-1.4177,-1.4823,-1.4551,-1.4337,-1.4878,-1.5354,-1.607,-1.72,-1.7388,-1.7765,-1.8869,-1.9522,-2.0288,-2.1355,0.0,0.0,-2.3027,0.0,0.0,0.0,0.0,0.0,0.0,-2.3078,-2.3078,-2.3078,-2.3078,-2.3424,-2.4176,-2.3484,-2.3484,-2.4176,-2.3424,-2.3078,-2.3078,-2.3078,-2.3078,-2.3078,0.0,0.0,0.0,-2.3078,-2.3078,-2.3078,-2.3078,-2.3078,-2.3078,-2.3078,-2.3078,-2.3078,-2.3078,-2.3078,-2.3065,-2.3015,-2.2686,-2.2146,-2.1644,-2.1493,-2.1481,-2.143,-2.1054,-2.0598,-2.0548,-2.0082,-1.9716,-2.0291,-2.0789,-2.1151,-2.1151,-2.0765,-2.0416,-2.0416,-1.9992,-1.9371,-1.8715,-1.8608,-1.8608,-1.8608,-1.8015,-1.7852,-1.8436,-1.7302,-1.6492,-1.6436,-1.5806,-1.54,-1.5352,-1.5352,-1.5176,-1.4756,-1.4727,-1.4531,-1.4038,-1.4236,-1.433,-1.4328,-1.4501,-1.4652,-1.4698,-1.4698,-1.4971,-1.5454,-1.5499,-1.582,-1.3854,-1.4327,-1.4877,-1.4399,-1.4626,-1.4927,-1.4809,-1.4381,-1.4062,-1.4362,-1.3984,-1.3822,-1.4752,-1.5053,-1.5567,-1.6685,-1.6861,-1.7137,-1.7928,-1.8505,-1.9371,-2.0828,-2.1481,0.0,0.0,0.0,0.0,0.0,0.0,0.0,0.0,-2.359,-2.3305,-2.3826,-2.3826,-2.4163,-2.4951,-2.4667,-2.4439,-2.4292,-2.4002,-2.3603,-2.3138,-2.359,-2.3543,-2.3138,0.0,0.0,0.0,-2.3078,-2.3078,-2.3078,-2.3078,-2.3078,-2.3078,-2.3078,-2.3078,-2.3027,-2.2761,-2.2862,-2.3075,-2.2749,-2.2711,-2.2761,-2.2548,-2.2472,-2.241,-2.2083,-2.1594,-2.1091,-2.0806,-2.0542,-2.0464,-2.1029,-2.133,-2.1493,-2.1493,-2.1317,-2.1066,-2.0781,-2.0529,-2.0147,-1.9485,-1.9371,-1.9371,-1.9371,-1.9097,-1.8874,-1.8715,-1.8167,-1.7633,-1.7191,-1.6472,-1.6036,-1.6036,-1.6036,-1.6182,-1.6488,-1.6042,-1.5846,-1.585,-1.5908,-1.5831,-1.5606,-1.5695,-1.5727,-1.5788,-1.5788,-1.5744,-1.5632,-1.5952,-1.6095,-1.3882,-1.4318,-1.483,-1.4485,-1.4919,-1.5314,-1.4881,-1.4528,-1.4238,-1.4125,-1.3609,-1.3536,-1.4676,-1.5018,-1.5452,-1.6333,-1.6637,-1.6969,-1.7556,-1.7976,-1.8827,0.0,0.0,0.0,0.0,0.0,0.0,0.0,0.0,0.0,0.0,-2.4496,-2.4047,-2.4624,-2.4624,-2.4951,-2.5728,-2.5508,-2.5119,-2.4624,-2.4624,-2.4221,-2.3484,-2.4279,-2.4337,-2.3813,0.0,0.0,0.0,-2.3531,-2.3471,-2.3424,-2.3185,-2.3078,-2.3078,-2.3078,-2.3078,-2.3075,-2.2686,-2.2711,-2.2824,-2.2435,-2.2472,-2.2686,-2.2836,-2.294,-2.299,-2.2661,-2.2159,-2.1606,-2.1054,-2.1029,-2.1255,-2.1644,-2.1857,-2.197,-2.197,-2.1845,-2.1619,-2.123,-2.0945,-2.0592,-2.0125,-1.9911,-1.9798,-1.9798,-1.9592,-1.9371,-1.9044,-1.8661,-1.8286,-1.7961,-1.7468,-1.709,-1.681,-1.681,-1.7034,-1.7578,-1.7079,-1.6938,-1.7193,-1.7247,-1.7132,-1.6848,-1.6726,-1.672,-1.6773,-1.6609,-1.6281,-1.5864,-1.6281,-1.6194,-1.4401,-1.4401,-1.4401,-1.439,-1.4987,-1.5469,-1.4927,-1.4853,-1.4752,-1.4198,-1.3609,-1.3536,-1.4676,-1.5335,-1.5852,-1.6418,-1.6951,-1.7481,-1.8087,-1.8179,-1.8791,0.0,0.0,0.0,0.0,0.0,0.0,0.0,0.0,0.0,0.0,-2.5783,-2.5398,-2.5398,-2.5398,-2.5728,-2.6457,-2.5728,-2.5398,-2.5398,-2.5398,-2.5007,-2.4292,-2.5063,-2.5398,0.0,0.0,0.0,0.0,-2.4567,-2.4292,-2.4234,-2.3424,-2.3078,-2.3078,-2.3078,-2.3078,-2.3078,-2.3065,-2.2774,-2.2322,-2.2309,-2.1945,-2.1606,-2.2159,-2.2698,-2.3078,-2.3065,-2.2736,-2.2184,-2.1619,-2.1882,-2.2297,-2.2297,-2.2723,-2.3053,-2.3053,-2.2686,-2.2297,-2.2297,-2.1418,-2.0718,-2.0706,-2.0188,-1.9798,-1.9798,-1.9202,-1.898,-1.9695,-1.8501,-1.7907,-1.8608,-1.8661,-1.8382,-1.7633,-1.7578,-1.7578,-1.7578,-1.7578,-1.7567,-1.7567,-1.7787,-1.7879,-1.7867,-1.7575,-1.7375,-1.7375,-1.6798,-1.6522,-1.6479,-1.6522,-1.6194,-1.4507,-1.4606,-1.4689,-1.5142,-1.5706,-1.6003,-1.5048,-1.5094,-1.4964,-1.3755,-1.3574,-1.3814,-1.4284,-1.4728,-1.548,-1.6937,-1.7558,-1.8072,-1.8727,0.0,0.0,-2.1203,0.0,0.0,0.0,0.0,0.0,0.0,0.0,0.0,0.0,0.0,-2.6654,-2.6176,-2.6176,-2.6496,-2.7255,-2.7034,-2.6654,-2.6176,-2.6176,-2.5783,-2.5063,-2.5837,0.0,0.0,0.0,0.0,0.0,-2.5119,-2.4738,-2.4292,-2.4002,-2.3359,-2.2573,-2.2573,-2.2334,-2.1958,-2.1581,-2.1581,-2.1681,-2.1305,-2.133,-2.1594,-2.2146,-2.2435,-2.2573,-2.2573,-2.2447,-2.2272,-2.2096,-2.2184,-2.241,-2.2786,-2.2952,-2.3078,-2.3078,-2.3,-2.2761,-2.2385,-2.1732,-2.1104,-2.0781,-2.0188,-1.9798,-1.9798,-1.9579,-1.9527,-1.9747,-1.9371,-1.9202,-1.9423,-1.9475,-1.915,-1.8394,-1.8328,-1.8555,-1.9097,-1.8608,-1.8555,-1.9097,-1.9147,-1.9055,-1.8659,-1.8535,-1.8141,-1.7388,-1.72,-1.6911,-1.6522,-1.6522,-1.6194,-1.4515,-1.4753,-1.4877,-1.5452,-1.5905,-1.5969,-1.5117,-1.4929,-1.4691,-1.3672,-1.3715,-1.404,-1.4458,-1.4935,-1.5679,-1.7114,-1.7735,-1.824,0.0,0.0,0.0,0.0,0.0,0.0,0.0,0.0,0.0,0.0,0.0,0.0,0.0,0.0,-2.7408,-2.693,-2.693,-2.7152,-2.7625,-2.7625,-2.7255,-2.651,-2.6774,-2.6549,-2.5837,-2.6549,0.0,0.0,0.0,0.0,0.0,-2.5946,-2.5398,-2.4654,-2.4142,-2.3282,-2.2284,-2.2083,-2.1782,-2.1443,-2.1091,-2.1066,-2.1117,-2.0832,-2.1041,-2.1556,-2.1895,-2.2297,-2.2623,-2.2623,-2.2623,-2.2623,-2.2623,-2.2623,-2.2711,-2.299,-2.3078,-2.3078,-2.3078,-2.3078,-2.2977,-2.2686,-2.2184,-2.1619,-2.1066,-2.0501,-2.0049,-1.9836,-1.9798,-1.9798,-1.9798,-1.9798,-1.9798,-1.9798,-1.9798,-1.9592,-1.915,-1.9097,-1.9319,-1.9747,-1.9371,-1.9307,-1.9798,-1.9798,-1.9648,-1.9334,-1.9083,-1.8694,-1.8003,-1.7589,-1.73,-1.7149,-1.6936,-1.6613,0.0,-1.4701,-1.4867,-1.5405,-1.5605,-1.5492,-1.4979,-1.4487,0.0,-1.3953,-1.3967,-1.4272,-1.5154,-1.5731,-1.6355,-1.7107,-1.7673,-1.8281,0.0,-1.9662,0.0,0.0,0.0,0.0,0.0,0.0,0.0,0.0,0.0,0.0,0.0,0.0,-2.7625,-2.7625,-2.7625,-2.7625,-2.7625,-2.7625,-2.7255,-2.6563,-2.7255,-2.7255,-2.6616,-2.7306,0.0,0.0,0.0,0.0,0.0,-2.6805,-2.6023,-2.5204,-2.3916,-2.2924,-2.2178,-2.1619,-2.1405,-2.1368,-2.1368,-2.1029,-2.0655,-2.0655,-2.1004,-2.1493,-2.1493,-2.2259,-2.3078,-2.3078,-2.3078,-2.3078,-2.3078,-2.3078,-2.3078,-2.3078,-2.3078,-2.3078,-2.3078,-2.3078,-2.3078,-2.3078,-2.2686,-2.2146,-2.1631,-2.1091,-2.0592,-2.0012,-1.9886,-1.9874,-1.9924,-1.9886,-1.9861,-1.9861,-1.9861,-1.9849,-1.9798,-1.9798,-1.9798,-1.9798,-1.9798,-1.9798,-1.9798,-1.9798,-1.9798,-1.9798,-1.9296,-1.8983,-1.8983,-1.7953,-1.7702,-1.8191,-1.7677,-1.7412,-1.3408,0.0,-1.432,-1.4937,-1.5074,-1.4966,0.0,-1.4654,-1.4795,-1.404,-1.4406,-1.4935,-1.5388,-1.5797,-1.6646,-1.8344,-1.9002,-1.9493,-2.0175,0.0,0.0,0.0,0.0,0.0,0.0,0.0,0.0,0.0,0.0,0.0,0.0,0.0,-2.7625,-2.7625,-2.7625,-2.7625,-2.7625,-2.7625,-2.7509,-2.7357,-2.7524,-2.7524,-2.7357,-2.7524,0.0,0.0,0.0,0.0,-2.6811,-2.6664,-2.5842,-2.4646,-2.3851,-2.283,-2.1692,-2.1107,-2.0577,-2.02,-2.02,-2.0112,-2.0012,-2.0012,-2.0677,-2.1493,-2.1493,-2.2259,-2.3078,-2.3078,-2.3078,-2.3078,-2.3078,-2.3078,-2.3078,-2.3078,-2.3078,-2.3078,-2.3078,-2.3078,-2.3078,-2.3078,-2.2686,-2.2272,-2.2133,-2.1656,-2.1242,-2.1104,-2.0727,-2.0614,-2.1041,-2.0727,-2.0517,-2.0517,-2.0517,-2.0288,-1.9836,-1.9798,-1.9798,-1.9798,-1.9798,-1.9798,-1.9798,-1.9798,-1.9798,-1.9798,-1.9296,-1.8983,-1.8983,-1.8342,-1.8078,-1.8204,-1.8078,-1.777,-1.2672,-1.3618,-1.4536,-1.5099,-1.5104,-1.4866,-1.4774,-1.4713,-1.4639,-1.4475,-1.4783,-1.5291,-1.5923,-1.6245,-1.6913,-1.8641,-1.9099,0.0,0.0,0.0,0.0,0.0,0.0,0.0,0.0,0.0,0.0,0.0,0.0,0.0,0.0,0.0,-2.6811,-2.7111,-2.7126,-2.726,-2.7625,-2.7625,-2.7625,-2.7625,-2.7625,-2.7625,-2.7625,-2.7625,0.0,0.0,0.0,0.0,-2.6138,-2.6138,-2.5516,-2.4453,-2.3872,-2.2803,-2.1524,-2.0979,-2.0322,-1.9798,-1.9798,-1.9798,-1.9798,-1.9798,-2.0388,-2.1154,-2.1418,-2.2083,-2.2752,-2.3002,-2.3078,-2.3078,-2.3078,-2.3078,-2.3078,-2.3078,-2.3078,-2.3078,-2.3078,-2.3078,-2.3078,-2.3078,-2.2899,-2.2611,-2.2347,-2.2071,-2.1782,-2.1531,-2.123,-2.1154,-2.1443,-2.123,-2.1041,-2.1041,-2.0869,-2.0592,-2.0225,-1.9962,-1.9798,-1.9798,-1.9798,-1.9798,-1.9798,-1.9798,-1.9798,-1.9798,-1.9522,-1.9384,-1.9384,-1.8844,-1.8706,-1.8932,-1.8694,-1.8498,-1.2241,-1.3546,-1.4878,-1.5334,-1.5145,-1.4929,-1.5273,-1.4706,-1.4278,-1.4968,-1.5237,-1.5664,-1.668,-1.695,0.0,0.0,0.0,0.0,0.0,0.0,0.0,0.0,0.0,0.0,0.0,0.0,0.0,0.0,0.0,0.0,0.0,0.0,0.0,-2.6422,-2.6615,-2.6886,-2.726,-2.752,-2.7625,-2.7625,-2.7625,-2.7565,-2.7475,-2.7475,0.0,0.0,0.0,0.0,-2.5465,-2.5465,-2.5032,-2.4332,-2.375,-2.2804,-2.1659,-2.103,-2.0446,-1.9952,-1.985,-1.9798,-1.9798,-1.9798,-2.0188,-2.0819,-2.133,-2.187,-2.2422,-2.2975,-2.3078,-2.3078,-2.3078,-2.3078,-2.3078,-2.3078,-2.3078,-2.3078,-2.3078,-2.3078,-2.3078,-2.3078,-2.3078,-2.2987,-2.2523,-2.2435,-2.2284,-2.1807,-2.1669,-2.1644,-2.1732,-2.1669,-2.1606,-2.1606,-2.1192,-2.0907,-2.0731,-2.0213,-1.9899,-1.9811,-1.9798,-1.9798,-1.9798,-1.9798,-1.9798,-1.9798,-1.9798,-1.9798,-1.9798,-1.9359,-1.9371,-1.9798,-1.9346,-1.9384,-1.2128,-1.327,-1.4219,-1.4198,-1.4463,-1.4739,-1.4672,-1.4798,-1.4937,-1.5074,-1.5813,-1.6695,-1.7413,-1.7996,-1.8837,0.0,0.0,0.0,0.0,0.0,0.0,0.0,0.0,0.0,0.0,0.0,0.0,0.0,0.0,0.0,0.0,0.0,0.0,-2.5796,-2.6621,-2.6712,-2.5899,-2.7021,-2.7625,-2.7625,-2.7625,-2.7275,-2.6737,-2.6737,-2.6378,0.0,0.0,-2.539,-2.4731,-2.4731,-2.4343,-2.3659,-2.3109,-2.2701,-2.2395,-2.1215,-2.0746,-2.0547,-2.0003,-1.9798,-1.9798,-1.9798,-2.0188,-2.0819,-2.133,-2.187,-2.2422,-2.2975,-2.3078,-2.3078,-2.3078,-2.3078,-2.3078,-2.3078,-2.3078,-2.3078,-2.3078,-2.3078,-2.3078,-2.3078,-2.3078,-2.3053,-2.2965,-2.2952,-2.2975,-2.2899,-2.2485,-2.2347,-2.2824,-2.2472,-2.2184,-2.2184,-2.2108,-2.1681,-2.0806,-2.0643,-2.0326,-1.9836,-1.9798,-1.9798,-1.9798,-1.9798,-1.9798,-1.9798,-1.9798,-1.9798,-1.9798,-1.9723,-1.9723,-1.9798,-1.9723,-1.9723,-1.1245,-1.2316,-1.3306,-1.3789,-1.4566,-1.5272,-1.5429,-1.5613,-1.5816,-1.6013,-1.6693,-1.7443,0.0,0.0,-1.9675,-2.1021,0.0,0.0,0.0,0.0,0.0,0.0,0.0,0.0,0.0,0.0,0.0,0.0,0.0,0.0,0.0,0.0,0.0,0.0,-2.6419,-2.6482,-2.6032,-2.6641,-2.6819,-2.6512,-2.6512,-2.6363,-2.6063,-2.6063,-2.5704,-2.5076,0.0,-2.4702,-2.4073,-2.4073,-2.3879,-2.3551,-2.3275,-2.2965,-2.2603,-2.1629,-2.1293,-2.1245,-2.0953,-2.062,-2.0346,-2.0346,-2.0284,-2.0363,-2.123,-2.1669,-2.2046,-2.2899,-2.3078,-2.3078,-2.3078,-2.3078,-2.3078,-2.3078,-2.3078,-2.3078,-2.3078,-2.3078,-2.3078,-2.3078,-2.3078,-2.3078,-2.3078,-2.3078,-2.3078,-2.3078,-2.2865,-2.2849,-2.304,-2.2852,-2.2761,-2.2761,-2.2485,-2.1983,-2.1179,-2.0894,-2.0413,-1.9836,-1.9798,-1.9798,-1.9798,-1.9798,-1.9798,-1.9798,-1.9798,-1.9798,-1.9798,-1.9798,-1.9798,-1.9798,-1.9798,-1.9798,-1.0906,-1.1799,-1.2781,-1.3828,-1.4852,-1.5711,-1.6139,-1.635,-1.6479,-1.6841,-1.7456,0.0,0.0,-1.9495,0.0,0.0,0.0,0.0,0.0,0.0,0.0,0.0,0.0,0.0,0.0,0.0,0.0,0.0,0.0,0.0,0.0,0.0,0.0,0.0,-2.6212,-2.627,-2.61,-2.61,-2.5935,-2.5615,-2.5615,-2.5525,-2.5375,-2.5375,-2.5016,-2.4388,-2.4388,-2.4088,-2.3595,-2.3595,-2.3595,-2.3595,-2.3595,-2.3231,-2.2649,-2.21,-2.1852,-2.1697,-2.1697,-2.139,-2.1028,-2.1028,-2.0683,-2.0425,-2.125,-2.15,-2.1729,-2.2623,-2.2877,-2.2915,-2.304,-2.3078,-2.3078,-2.3078,-2.3078,-2.3078,-2.3078,-2.3078,-2.3078,-2.3078,-2.3078,-2.3078,-2.3078,-2.3078,-2.3078,-2.3078,-2.3078,-2.3078,-2.3078,-2.3078,-2.3078,-2.3078,-2.2761,-2.2234,-2.1543,-2.0991,-2.0413,-1.9836,-1.9798,-1.9798,-1.9798,-1.9798,-1.9798,-1.9798,-1.9798,-1.9798,-1.9798,-1.9798,-1.9798,-1.9798,-1.9798,-1.9798,-1.1989,-1.262,-1.3235,-1.4348,-1.4996,-1.5469,-1.5991,-1.6422,-1.6716,-1.6857,-1.7807,0.0,0.0,-2.0258,0.0,0.0,0.0,0.0,0.0,0.0,0.0,0.0,0.0,0.0,0.0,0.0,0.0,0.0,0.0,0.0,0.0,0.0,0.0,0.0,0.0,-2.6222,-2.5304,-2.5288,-2.5389,-2.5615,-2.5615,-2.5285,-2.4657,-2.4657,-2.4328,-2.367,-2.367,-2.364,-2.3595,-2.3595,-2.3595,-2.3595,-2.3595,-2.3231,-2.2694,-2.2649,-2.2239,-2.1697,-2.1697,-2.1649,-2.1663,-2.1663,-2.1602,-2.1595,-2.1572,-2.1577,-2.1707,-2.2217,-2.2372,-2.2485,-2.294,-2.3078,-2.3078,-2.3078,-2.3078,-2.3078,-2.3078,-2.3078,-2.3078,-2.3078,-2.3078,-2.3078,-2.3078,-2.3078,-2.3078,-2.3078,-2.3078,-2.3078,-2.3078,-2.3078,-2.3078,-2.3078,-2.304,-2.2636,-2.1581,-2.0991,-2.0413,-1.9836,-1.9798,-1.9798,-1.9798,-1.9798,-1.9798,-1.9798,-1.9798,-1.9798,-1.9798,-1.9798,-1.9798,-1.9798,-1.9798,-1.9798,-1.1596,-1.2456,-1.3307,-1.4053,-1.5332,-1.6465,-1.6688,-1.7426,-1.8077,-1.8129,-1.8752,0.0,0.0,0.0,0.0,0.0,0.0,0.0,0.0,0.0,0.0,0.0,0.0,0.0,0.0,0.0,0.0,0.0,0.0,0.0,0.0,0.0,0.0,0.0,0.0,-2.6367,-2.5689,-2.5373,-2.5084,-2.4854,-2.452,-2.4223,-2.3984,-2.3984,-2.3849,-2.3595,-2.3595,-2.3595,-2.3595,-2.3595,-2.3595,-2.3595,-2.3595,-2.3465,-2.3246,-2.3246,-2.3084,-2.2891,-2.2891,-2.2665,-2.23,-2.23,-2.2053,-2.1773,-2.2111,-2.2163,-2.2205,-2.2795,-2.3218,-2.3496,-2.3195,-2.3078,-2.3078,-2.3078,-2.3078,-2.3078,-2.3078,-2.3078,-2.3078,-2.3078,-2.3078,-2.3078,-2.3078,-2.3078,-2.3078,-2.3078,-2.3078,-2.3078,-2.3078,-2.3078,-2.3078,-2.3078,-2.2824,-2.2447,-2.2033,-2.1493,-2.0941,-2.0376,-1.9999,-1.9798,-1.9798,-1.9798,-1.9798,-1.9798,-1.9798,-1.9798,-1.9798,-1.9798,-1.9798,-1.9798,-1.9798,-1.9798,-1.1571,-1.249,-1.353,-1.4223,-1.5876,-1.735,-1.7547,-1.8237,-1.898,-1.9397,-1.9871,-2.0451,-2.1017,0.0,0.0,0.0,0.0,0.0,0.0,0.0,0.0,0.0,0.0,0.0,0.0,0.0,0.0,0.0,0.0,0.0,0.0,0.0,0.0,0.0,0.0,0.0,-2.6227,-2.5726,-2.5182,-2.4672,-2.4116,-2.3752,-2.3595,-2.3595,-2.3595,-2.3595,-2.3595,-2.3595,-2.3595,-2.3595,-2.3595,-2.3595,-2.3595,-2.3595,-2.3595,-2.3595,-2.3595,-2.3595,-2.3595,-2.3334,-2.2965,-2.2965,-2.2665,-2.2356,-2.2572,-2.2738,-2.2879,-2.3272,-2.3874,-2.4256,-2.3936,-2.3649,-2.3424,-2.3125,-2.3078,-2.3078,-2.3078,-2.3078,-2.3078,-2.3078,-2.3078,-2.3078,-2.3078,-2.3078,-2.3078,-2.3078,-2.3078,-2.3078,-2.3078,-2.3078,-2.3078,-2.3078,-2.2799,-2.2498,-2.2322,-2.197,-2.1506,-2.0966,-2.0388,-1.9987,-1.9811,-1.9798,-1.9798,-1.9798,-1.9798,-1.9798,-1.9798,-1.9798,-1.9798,-1.9798,-1.9798,-1.9695,-1.2252,-1.2945,-1.395,-1.505,-1.6526,-1.7876,-1.8568,-1.8717,-1.9096,-2.0429,-2.1136,-2.1631,-2.2031,-2.2291,0.0,0.0,0.0,0.0,0.0,0.0,0.0,0.0,0.0,0.0,0.0,0.0,0.0,0.0,0.0,0.0,0.0,0.0,0.0,0.0,0.0,0.0,-2.6691,-2.6227,-2.5726,-2.5221,-2.4657,-2.4116,-2.3595,-2.3595,-2.3595,-2.3595,-2.3595,-2.3595,-2.3595,-2.3595,-2.3595,-2.3595,-2.3595,-2.3595,-2.3595,-2.3595,-2.3595,-2.3595,-2.3595,-2.3595,-2.3595,-2.3595,-2.3595,-2.3508,-2.2875,-2.3187,-2.3679,-2.3626,-2.4069,-2.4664,-2.5246,-2.4851,-2.4118,-2.3305,-2.3138,-2.3078,-2.3078,-2.3078,-2.3078,-2.3078,-2.3078,-2.3078,-2.3078,-2.3078,-2.3078,-2.3078,-2.3078,-2.3078,-2.3078,-2.3078,-2.3078,-2.3078,-2.3078,-2.2852,-2.2372,-2.2322,-2.2083,-2.1531,-2.0991,-2.0426,-1.9836,-1.9811,-1.9811,-1.9811,-1.9811,-1.9811,-1.9811,-1.9811,-1.9811,-1.9798,-1.9811,-1.9423,-1.2912,-1.3529,-1.4414,-1.5692,-1.7205,-1.8635,-1.9611,-1.9622,-1.9773,0.0,-2.16,-2.1963,-2.2098,0.0,0.0,0.0,0.0,0.0,0.0,0.0,0.0,0.0,0.0,0.0,0.0,0.0,0.0,0.0,0.0,0.0,0.0,0.0,0.0,0.0,0.0,0.0,-2.6691,-2.6227,-2.5924,-2.5762,-2.4831,-2.4116,-2.3595,-2.3595,-2.3595,-2.3595,-2.3595,-2.3595,-2.3595,-2.3595,-2.3595,-2.3595,-2.3595,-2.3595,-2.3595,-2.3595,-2.3595,-2.3595,-2.3595,-2.3595,-2.3595,-2.3595,-2.3595,-2.3551,-2.3377,-2.3768,-2.4238,-2.4227,-2.5052,-2.5813,-2.5522,-2.5618,-2.5508,-2.4221,-2.3543,-2.3078,-2.3078,-2.3078,-2.3078,-2.3078,-2.3078,-2.3078,-2.3078,-2.3078,-2.3078,-2.3078,-2.3078,-2.3078,-2.3078,-2.3078,-2.3078,-2.3078,-2.3078,-2.3015,-2.2912,-2.2887,-2.2661,-2.2108,-2.192,-2.1393,-2.0451,-2.0401,-2.0401,-2.0401,-2.079,-2.079,-2.0401,-2.0401,-2.02,-1.9811,-2.0225,-2.0015,-1.3303,-1.4227,-1.5313,-1.6566,-1.7942,-1.9259,-2.0342,0.0,0.0,0.0,-2.2164,-2.2394,-2.2572,0.0,0.0,0.0,0.0,0.0,0.0,0.0,0.0,0.0,0.0,0.0,0.0,0.0,0.0,0.0,0.0,0.0,0.0,0.0,0.0,0.0,0.0,0.0,-2.6691,-2.6401,-2.6191,-2.5997,-2.5144,-2.443,-2.3921,-2.3681,-2.3595,-2.3595,-2.3595,-2.3595,-2.3595,-2.3595,-2.3595,-2.3595,-2.3595,-2.3595,-2.3595,-2.3595,-2.3595,-2.3595,-2.3595,-2.3595,-2.3595,-2.3595,-2.3595,-2.3595,-2.3595,-2.4251,-2.4936,-2.4936,-2.5921,-2.6826,-2.6375,-2.639,-2.6122,-2.4624,-2.3943,-2.3484,-2.3198,-2.3078,-2.3078,-2.3078,-2.3078,-2.3078,-2.3078,-2.3078,-2.3078,-2.3078,-2.3078,-2.3078,-2.3078,-2.3078,-2.3078,-2.3078,-2.3078,-2.3078,-2.3078,-2.3078,-2.2927,-2.2661,-2.2435,-2.202,-2.1343,-2.1104,-2.0991,-2.0991,-2.1317,-2.133,-2.0991,-2.0991,-2.0702,-2.0162,-2.0378,-1.9937,-1.3486,-1.4898,-1.6381,-1.7503,-1.8697,0.0,-2.0815,-2.1888,-2.2663,-2.2681,0.0,-2.2886,0.0,0.0,0.0,0.0,0.0,0.0,0.0,0.0,0.0,0.0,0.0,0.0,0.0,0.0,0.0,0.0,0.0,0.0,0.0,0.0,0.0,0.0,0.0,0.0,-2.659,-2.659,-2.642,0.0,-2.5459,-2.4932,-2.4418,-2.3849,-2.3595,-2.3595,-2.3595,-2.3595,-2.3595,-2.3595,-2.3595,-2.3595,-2.3595,-2.3595,-2.3595,-2.3595,-2.3595,-2.3595,-2.3595,-2.3595,-2.3595,-2.3595,-2.3595,-2.3595,-2.3595,-2.4492,-2.554,-2.56,-2.6512,-2.755,-2.761,-2.7086,-2.6229,-2.4851,-2.4408,-2.4118,-2.3365,-2.3125,-2.3078,-2.3078,-2.3078,-2.3078,-2.3078,-2.3078,-2.3078,-2.3078,-2.3078,-2.3078,-2.3078,-2.3078,-2.3078,-2.3078,-2.3078,-2.3078,-2.3078,-2.3078,-2.3078,-2.3078,-2.2661,-2.2385,-2.2385,-2.1857,-2.1556,-2.1556,-2.1606,-2.1606,-2.1556,-2.1556,-2.128,-2.0632,-2.0471,-1.9634,-1.358,-1.5041,-1.6624,-1.793,-1.9686,-2.1189,-2.1428,-2.1956,-2.2463,-2.2661,-2.2995,0.0,0.0,0.0,0.0,0.0,0.0,0.0,0.0,0.0,0.0,0.0,0.0,0.0,0.0,0.0,0.0,0.0,0.0,0.0,0.0,0.0,0.0,0.0,0.0,-2.5236,-2.5845,-2.5845,-2.61,0.0,-2.5421,-2.4824,-2.4697,-2.3938,-2.3595,-2.3595,-2.3595,-2.3595,-2.3595,-2.3595,-2.3595,-2.3595,-2.3595,-2.3595,-2.3595,-2.3595,-2.3595,-2.3595,-2.3595,-2.3595,-2.3595,-2.3595,-2.3595,-2.3595,-2.3595,-2.4178,-2.4896,-2.5465,-2.6183,-2.6916,-2.749,-2.7458,-2.7137,-2.6229,-2.5119,-2.4234,-2.406,-2.3543,-2.3078,-2.3078,-2.3078,-2.3078,-2.3078,-2.3078,-2.3078,-2.3078,-2.3078,-2.3078,-2.3078,-2.3078,-2.3078,-2.3078,-2.3078,-2.3078,-2.3078,-2.3078,-2.3078,-2.3078,-2.2965,-2.2962,-2.2962,-2.2422,-2.2133,-2.2133,-2.256,-2.2573,-2.2133,-2.2133,-2.1477,-2.0313,-2.1387,-2.0605,-1.3795,-1.5526,-1.738,-1.9411,0.0,-2.1658,-2.1882,-2.2106,-2.2355,-2.2471,0.0,0.0,0.0,0.0,0.0,0.0,0.0,0.0,0.0,0.0,0.0,0.0,0.0,0.0,0.0,0.0,0.0,0.0,0.0,0.0,0.0,0.0,0.0,0.0,-2.4506,-2.4661,-2.5067,-2.5067,-2.5253,-2.5625,-2.4713,-2.4159,-2.3929,-2.3599,-2.3341,-2.3176,-2.3475,-2.3595,-2.3595,-2.3595,-2.3595,-2.3595,-2.3595,-2.3595,-2.3595,-2.3595,-2.3595,-2.3595,-2.3595,-2.3595,-2.3595,-2.3595,-2.3595,-2.3595,-2.3595,-2.4088,-2.4716,-2.542,-2.6078,-2.6737,-2.7445,-2.7625,-2.7509,-2.71,-2.6162,-2.5175,-2.4452,-2.3943,-2.3543,-2.3185,-2.3078,-2.3078,-2.3078,-2.3078,-2.3078,-2.3078,-2.3078,-2.3078,-2.3078,-2.3078,-2.3078,-2.3078,-2.3078,-2.3078,-2.3078,-2.3078,-2.3078,-2.3078,-2.3078,-2.3078,-2.3078,-2.2862,-2.2711,-2.2711,-2.2987,-2.2927,-2.2711,-2.2711,-2.2176,-2.1226,-2.1834,-2.1014,-1.3694,-1.5918,-1.8206,-2.0862,-2.1635,0.0,-2.2209,-2.231,-2.231,-2.231,0.0,0.0,0.0,0.0,0.0,0.0,0.0,0.0,0.0,0.0,0.0,0.0,0.0,0.0,0.0,0.0,0.0,0.0,0.0,0.0,0.0,0.0,-2.4269,-2.4103,-2.4133,-2.4171,-2.432,-2.432,-2.4388,-2.4475,-2.3914,-2.3324,-2.2764,-2.2973,-2.29,-2.2656,-2.3203,-2.343,-2.3445,-2.355,-2.3595,-2.3595,-2.3595,-2.3595,-2.3595,-2.3595,-2.3595,-2.3595,-2.3595,-2.3595,-2.3595,-2.3595,-2.3595,-2.3595,-2.3595,-2.3999,-2.4597,-2.5255,-2.5914,-2.6572,-2.723,-2.7535,-2.7625,-2.7625,-2.7137,-2.6336,-2.4951,-2.4394,-2.3943,-2.3424,-2.3185,-2.3078,-2.3078,-2.3078,-2.3078,-2.3078,-2.3078,-2.3078,-2.3078,-2.3078,-2.3078,-2.3078,-2.3078,-2.3078,-2.3078,-2.3078,-2.3078,-2.3078,-2.3078,-2.3078,-2.3078,-2.3078,-2.3078,-2.3078,-2.3078,-2.3078,-2.3078,-2.3078,-2.2708,-2.1977,-2.1921,-2.0996,-1.2493,0.0,-1.8762,0.0,-2.172,-2.2209,0.0,0.0,-2.231,0.0,0.0,0.0,0.0,0.0,0.0,0.0,0.0,0.0,0.0,0.0,0.0,0.0,0.0,0.0,0.0,0.0,0.0,0.0,0.0,0.0,0.0,-2.3545,-2.3241,-2.2615,-2.2598,-2.2902,-2.3528,-2.3545,-2.3866,-2.4506,-2.3772,-2.2859,-2.1818,-2.2066,-2.2247,-2.2386,-2.2692,-2.2802,-2.2847,-2.337,-2.3595,-2.3595,-2.3595,-2.3595,-2.3595,-2.3595,-2.3595,-2.3595,-2.3595,-2.3595,-2.3595,-2.3595,-2.3595,-2.3595,-2.3595,-2.367,-2.3879,-2.4522,-2.5241,-2.5899,-2.6557,-2.7141,-2.7625,-2.7625,-2.7509,-2.7203,-2.639,-2.4654,-2.3424,-2.4002,-2.3603,-2.3078,-2.3078,-2.3078,-2.3078,-2.3078,-2.3078,-2.3078,-2.3078,-2.3078,-2.3078,-2.3078,-2.3078,-2.3078,-2.3078,-2.3078,-2.3078,-2.3078,-2.3078,-2.3078,-2.3078,-2.3078,-2.3078,-2.3078,-2.3078,-2.3078,-2.3078,-2.3078,-2.2335,-2.0808,-2.1581,-2.0557,-1.3287,-1.6006,-1.8574,0.0,-2.1557,-2.2013,-2.2424,0.0,0.0,0.0,0.0,0.0,0.0,0.0,0.0,0.0,0.0,0.0,0.0,0.0,0.0,0.0,0.0,0.0,0.0,0.0,0.0,0.0,0.0,0.0,-2.2801,-2.2784,-2.2649,-2.2327,-2.231,-2.2462,-2.2784,-2.2784,-2.2953,-2.3257,-2.2936,-2.2512,-2.1974,-2.1835,-2.1756,-2.179,-2.2405,-2.2724,-2.2768,-2.334,-2.3595,-2.3595,-2.3595,-2.3595,-2.3595,-2.3595,-2.3595,-2.3595,-2.3595,-2.3595,-2.3595,-2.3595,-2.3595,-2.3595,-2.3595,-2.3595,-2.3744,-2.4388,-2.4791,-2.53,-2.6318,-2.6797,-2.7111,-2.7535,-2.7306,-2.6982,-2.71,-2.5986,-2.4881,-2.4394,-2.3662,-2.3078,-2.3078,-2.3078,-2.3078,-2.3078,-2.3078,-2.3078,-2.3078,-2.3078,-2.3078,-2.3078,-2.3078,-2.3078,-2.3078,-2.3078,-2.3078,-2.3078,-2.3078,-2.3078,-2.3078,-2.3078,-2.3078,-2.3078,-2.3078,-2.3078,-2.3078,-2.3078,-2.2689,-2.199,-2.1939,-2.1037,-1.3818,0.0,-1.7793,-1.9906,-2.0992,-2.1749,0.0,0.0,0.0,0.0,0.0,0.0,0.0,0.0,0.0,0.0,0.0,0.0,0.0,0.0,0.0,0.0,0.0,0.0,0.0,0.0,0.0,0.0,0.0,0.0,-2.2398,-2.2349,-2.231,-2.231,-2.231,-2.231,-2.231,-2.231,-2.231,-2.231,-2.231,-2.231,-2.2282,-2.1823,-2.1519,-2.1415,-2.2072,-2.237,-2.2473,-2.3116,-2.346,-2.3595,-2.3595,-2.3595,-2.3595,-2.3595,-2.3595,-2.3595,-2.3595,-2.3595,-2.3595,-2.3595,-2.3595,-2.3595,-2.3595,-2.3595,-2.3699,-2.4223,-2.4448,-2.4852,-2.5839,-2.6333,-2.6722,-2.72,-2.7085,-2.6774,-2.6745,-2.6496,-2.5783,-2.4279,-2.3543,-2.3078,-2.3078,-2.3078,-2.3078,-2.3078,-2.3078,-2.3078,-2.3078,-2.3078,-2.3078,-2.3078,-2.3078,-2.3078,-2.3078,-2.3078,-2.3078,-2.3078,-2.3078,-2.3078,-2.3078,-2.3078,-2.3078,-2.3078,-2.3078,-2.3078,-2.3078,-2.3078,-2.3005,-2.2763,-2.1939,-2.1101,0.0,-1.4813,0.0,-1.7872,-1.9924,-2.1611,0.0,0.0,0.0,0.0,0.0,0.0,0.0,0.0,0.0,0.0,0.0,0.0,0.0,0.0,0.0,0.0,0.0,0.0,0.0,0.0,0.0,0.0,0.0,0.0,-2.2669,-2.2453,-2.231,-2.231,-2.231,-2.231,-2.231,-2.231,-2.231,-2.231,-2.231,-2.231,-2.2282,-2.1823,-2.1598,-2.1589,-2.1434,-2.1515,-2.1799,-2.2458,-2.3071,-2.3595,-2.3595,-2.3595,-2.3595,-2.3595,-2.3595,-2.3595,-2.3595,-2.3595,-2.3595,-2.3595,-2.3595,-2.3595,-2.3595,-2.3595,-2.361,-2.364,-2.4118,-2.4597,-2.4672,-2.5659,-2.6602,-2.6632,-2.7111,-2.6967,-2.4894,-2.5007,-2.5007,-2.3471,-2.3138,-2.3078,-2.3078,-2.3078,-2.3078,-2.3078,-2.3078,-2.3078,-2.3078,-2.3078,-2.3078,-2.3078,-2.3078,-2.3078,-2.3078,-2.3078,-2.3078,-2.3078,-2.3078,-2.3078,-2.3078,-2.3078,-2.3078,-2.3078,-2.3078,-2.3078,-2.3078,-2.3078,-2.2689,-2.1939,-2.1037,-2.0204,0.0,0.0,0.0,-1.6567,-1.8774,-2.0835,-2.1313,0.0,0.0,0.0,0.0,0.0,0.0,0.0,0.0,0.0,0.0,0.0,0.0,0.0,0.0,0.0,0.0,0.0,0.0,0.0,0.0,0.0,0.0,0.0,-2.2721,-2.2625,-2.249,-2.231,-2.231,-2.231,-2.231,-2.231,-2.231,-2.231,-2.231,-2.231,-2.2282,-2.2135,-2.1882,-2.1568,-2.1247,-2.1229,-2.15,-2.2365,-2.2843,-2.3041,-2.3445,-2.3595,-2.3595,-2.3595,-2.3595,-2.3595,-2.3595,-2.3595,-2.3595,-2.3595,-2.3595,-2.3595,-2.3595,-2.3595,-2.3595,-2.3595,-2.3774,-2.4073,-2.4462,-2.53,-2.6183,-2.7021,-2.7445,-2.724,-2.6,-2.5563,-2.5119,-2.406,-2.3424,-2.3078,-2.3078,-2.3078,-2.3078,-2.3078,-2.3078,-2.3078,-2.3078,-2.3078,-2.3078,-2.3078,-2.3078,-2.3078,-2.3078,-2.3078,-2.3078,-2.3078,-2.3078,-2.3078,-2.3078,-2.3078,-2.3078,-2.3078,-2.3078,-2.3078,-2.3078,-2.3078,-2.2702,-2.1877,-2.0974,-2.0139,-1.1033,0.0,0.0,0.0,0.0,-1.9308,-2.0643,0.0,0.0,0.0,0.0,0.0,0.0,0.0,0.0,0.0,0.0,0.0,0.0,0.0,0.0,0.0,0.0,0.0,0.0,0.0,0.0,0.0,0.0,0.0,-2.3069,-2.2822,-2.259,-2.231,-2.231,-2.231,-2.231,-2.231,-2.231,-2.231,-2.231,-2.231,-2.231,-2.231,-2.2135,-2.1794,-2.1385,-2.1243,-2.1327,-2.1816,-2.2143,-2.2413,-2.3041,-2.3295,-2.331,-2.352,-2.3595,-2.3595,-2.3595,-2.3595,-2.3595,-2.3595,-2.3595,-2.3595,-2.3595,-2.3595,-2.3595,-2.3595,-2.3595,-2.3699,-2.4163,-2.4941,-2.5944,-2.726,-2.7625,-2.7408,-2.6669,-2.6122,-2.5453,-2.4509,-2.3884,-2.3424,-2.3138,-2.3078,-2.3078,-2.3078,-2.3078,-2.3078,-2.3078,-2.3078,-2.3078,-2.3078,-2.3078,-2.3078,-2.3078,-2.3078,-2.3078,-2.3078,-2.3078,-2.3078,-2.3078,-2.3078,-2.3078,-2.3078,-2.3078,-2.3078,-2.3078,-2.2823,-2.2445,-2.1877,-2.0719,-1.9694,0.0,0.0,0.0,0.0,0.0,0.0,0.0,0.0,0.0,0.0,0.0,0.0,0.0,0.0,0.0,0.0,0.0,0.0,0.0,0.0,0.0,0.0,0.0,0.0,0.0,0.0,0.0,0.0,0.0,-2.3714,-2.3692,-2.3069,-2.2573,-2.2321,-2.231,-2.231,-2.231,-2.231,-2.231,-2.231,-2.231,-2.231,-2.231,-2.231,-2.231,-2.2265,-2.1794,-2.1488,-2.127,-2.0887,-2.1081,-2.1764,-2.2424,-2.2694,-2.2727,-2.334,-2.3565,-2.358,-2.3595,-2.3595,-2.3595,-2.3595,-2.3595,-2.3595,-2.3595,-2.3595,-2.3595,-2.3595,-2.3595,-2.3595,-2.3625,-2.4612,-2.5929,-2.7245,-2.761,-2.7408,-2.6669,-2.651,-2.6068,-2.4567,-2.4292,-2.4002,-2.3245,-2.3078,-2.3078,-2.3078,-2.3078,-2.3078,-2.3078,-2.3078,-2.3078,-2.3078,-2.3078,-2.3078,-2.3078,-2.3078,-2.3078,-2.3078,-2.3078,-2.3078,-2.3078,-2.3078,-2.3078,-2.3078,-2.3078,-2.3078,-2.3078,-2.2249,-2.1877,-2.1815,-2.0074,-1.8787,-1.147,0.0,0.0,0.0,0.0,0.0,0.0,0.0,0.0,0.0,0.0,0.0,0.0,0.0,0.0,0.0,0.0,0.0,0.0,0.0,0.0,0.0,0.0,0.0,0.0,0.0,0.0,0.0,-2.4113,-2.3955,-2.3714,-2.3069,-2.2686,-2.2599,-2.2398,-2.231,-2.231,-2.231,-2.231,-2.231,-2.231,-2.231,-2.231,-2.231,-2.231,-2.2265,-2.1794,-2.1575,-2.1488,-2.1241,-2.1243,-2.1452,-2.1838,-2.1964,-2.2054,-2.2697,-2.2936,-2.2996,-2.3445,-2.3595,-2.3595,-2.3595,-2.3595,-2.3595,-2.3595,-2.3595,-2.3595,-2.3595,-2.3595,-2.3714,-2.4223,-2.4971,-2.5824,-2.6662,-2.723,-2.756,-2.7357,-2.7306,-2.6707,-2.4681,-2.3826,-2.3365,-2.3125,-2.3078,-2.3078,-2.3078,-2.3078,-2.3078,-2.3078,-2.3078,-2.3078,-2.3078,-2.3078,-2.3078,-2.3078,-2.3078,-2.3078,-2.3078,-2.3078,-2.3078,-2.3078,-2.3078,-2.3078,-2.3078,-2.3078,-2.2823,-2.2261,-2.2002,-2.1553,-2.091,-1.9177,-1.8202,-1.2523,-1.3413,-1.4327,0.0,0.0,0.0,0.0,-1.8157,0.0,0.0,0.0,0.0,0.0,0.0,0.0,0.0,0.0,0.0,0.0,0.0,0.0,0.0,0.0,0.0,0.0,0.0,0.0,0.0,-2.419,-2.3996,-2.3522,-2.3117,-2.2772,-2.2537,-2.2388,-2.231,-2.231,-2.231,-2.231,-2.231,-2.231,-2.231,-2.231,-2.231,-2.231,-2.2282,-2.2003,-2.1899,-2.1857,-2.1537,-2.1349,-2.1189,-2.1452,-2.1538,-2.1591,-2.2089,-2.2443,-2.2768,-2.3086,-2.3385,-2.3595,-2.3595,-2.3595,-2.3595,-2.3595,-2.3595,-2.3595,-2.3595,-2.3595,-2.3819,-2.4792,-2.533,-2.5839,-2.6782,-2.734,-2.7625,-2.7625,-2.7357,-2.6759,-2.5453,-2.461,-2.3989,-2.3649,-2.3305,-2.3078,-2.3078,-2.3078,-2.3078,-2.3078,-2.3078,-2.3078,-2.3078,-2.3078,-2.3078,-2.3078,-2.3078,-2.3078,-2.3078,-2.3078,-2.3078,-2.3078,-2.3078,-2.3078,-2.3078,-2.3078,-2.2506,-2.1365,-2.1365,-2.0719,-1.9497,-1.8462,-1.8008,-1.3793,-1.4128,-1.4892,-1.5607,0.0,0.0,-1.7323,-1.7972,0.0,0.0,0.0,0.0,0.0,0.0,0.0,0.0,0.0,0.0,0.0,0.0,0.0,0.0,0.0,0.0,0.0,0.0,-2.419,-2.419,-2.419,-2.3937,-2.3346,-2.3236,-2.294,-2.2432,-2.2321,-2.231,-2.231,-2.231,-2.231,-2.231,-2.231,-2.231,-2.231,-2.231,-2.231,-2.231,-2.231,-2.231,-2.2282,-2.1853,-2.1446,-2.1087,-2.1224,-2.1248,-2.1234,-2.1538,-2.2034,-2.2619,-2.2694,-2.3086,-2.3595,-2.3595,-2.3595,-2.3595,-2.3595,-2.3595,-2.3595,-2.3595,-2.3595,-2.3894,-2.5166,-2.5495,-2.5839,-2.7156,-2.7505,-2.7535,-2.761,-2.7086,-2.6616,-2.651,-2.5906,-2.5175,-2.4509,-2.3767,-2.3245,-2.3245,-2.3138,-2.3078,-2.3078,-2.3078,-2.3078,-2.3078,-2.3078,-2.3078,-2.3078,-2.3078,-2.3078,-2.3078,-2.3078,-2.3078,-2.3078,-2.3078,-2.3078,-2.3078,-2.3017,-2.2249,-2.0719,-2.0719,-1.9814,-1.8008,-1.8076,-1.8076,-1.6079,-1.6518,-1.6396,-1.5358,0.0,0.0,-1.5885,-1.66,0.0,0.0,0.0,0.0,0.0,0.0,0.0,0.0,0.0,0.0,0.0,0.0,0.0,0.0,0.0,0.0,0.0,0.0,-2.419,-2.419,-2.419,-2.4151,-2.4016,-2.3482,-2.3159,-2.3038,-2.2544,-2.231,-2.231,-2.231,-2.231,-2.231,-2.231,-2.231,-2.231,-2.231,-2.231,-2.231,-2.231,-2.231,-2.2282,-2.2209,-2.1899,-2.1446,-2.1167,-2.0821,-2.0559,-2.1147,-2.1607,-2.1964,-2.2488,-2.3086,-2.3595,-2.3595,-2.3595,-2.3595,-2.3595,-2.3595,-2.3595,-2.3595,-2.3595,-2.3789,-2.4612,-2.4776,-2.5151,-2.6467,-2.6782,-2.6916,-2.7455,-2.7509,-2.7203,-2.6616,-2.5906,-2.5342,-2.5231,-2.4567,-2.406,-2.406,-2.3543,-2.3078,-2.3078,-2.3078,-2.3078,-2.3078,-2.3078,-2.3078,-2.3078,-2.3078,-2.3078,-2.3078,-2.3078,-2.3078,-2.3078,-2.3078,-2.3078,-2.3078,-2.2445,-2.1939,-2.1628,-2.1628,-2.0398,-1.8008,-1.8721,-1.8654,-1.7463,-1.7727,-1.7783,-1.7511,0.0,0.0,0.0,0.0,-1.7083,0.0,0.0,0.0,0.0,0.0,0.0,0.0,0.0,0.0,0.0,0.0,0.0,0.0,0.0,0.0,0.0,0.0,-2.4303,-2.4209,-2.419,-2.4132,-2.3976,-2.3631,-2.33,-2.2972,-2.2652,-2.2453,-2.231,-2.231,-2.231,-2.231,-2.231,-2.231,-2.231,-2.231,-2.231,-2.231,-2.231,-2.231,-2.231,-2.231,-2.2163,-2.1899,-2.1477,-2.1181,-2.0975,-2.111,-2.131,-2.1576,-2.2261,-2.2783,-2.3191,-2.349,-2.3595,-2.3595,-2.3595,-2.3595,-2.3595,-2.3595,-2.3595,-2.3834,-2.4852,-2.4821,-2.5046,-2.6692,-2.6826,-2.6767,-2.7475,-2.7625,-2.7357,-2.6669,-2.6176,-2.5728,-2.4951,-2.4221,-2.3708,-2.3708,-2.3365,-2.3078,-2.3078,-2.3078,-2.3078,-2.3078,-2.3078,-2.3078,-2.3078,-2.3078,-2.3078,-2.3078,-2.3078,-2.3078,-2.3078,-2.3078,-2.3078,-2.3078,-2.2702,-2.2322,-2.1877,-2.1877,-2.0782,-1.8654,-1.911,-1.8844,0.0,0.0,0.0,0.0,0.0,-1.745,0.0,0.0,0.0,-1.7661,0.0,0.0,0.0,0.0,0.0,0.0,0.0,0.0,0.0,0.0,0.0,0.0,0.0,0.0,0.0,0.0,-2.4075,-2.419,-2.3914,-2.3745,-2.3798,-2.3753,-2.3437,-2.2923,-2.2772,-2.2599,-2.2388,-2.2338,-2.231,-2.231,-2.231,-2.231,-2.231,-2.231,-2.231,-2.231,-2.231,-2.231,-2.231,-2.231,-2.231,-2.2254,-2.1899,-2.1688,-2.1552,-2.1244,-2.1191,-2.1394,-2.2068,-2.2483,-2.2787,-2.34,-2.3595,-2.3595,-2.3595,-2.3595,-2.3595,-2.3595,-2.3595,-2.3879,-2.5106,-2.4926,-2.4926,-2.6916,-2.6886,-2.6617,-2.7244,-2.7408,-2.7137,-2.6229,-2.6068,-2.5728,-2.4681,-2.3884,-2.3305,-2.3305,-2.3198,-2.3078,-2.3078,-2.3078,-2.3078,-2.3078,-2.3078,-2.3078,-2.3078,-2.3078,-2.3078,-2.3078,-2.3078,-2.3078,-2.3078,-2.3078,-2.3078,-2.3078,-2.3078,-2.2763,-2.2137,-2.2137,-2.1164,-1.9299,-1.9299,-1.8844,0.0,0.0,0.0,0.0,-2.0007,0.0,0.0,0.0,-1.7149,-1.585,0.0,0.0,0.0,0.0,0.0,0.0,0.0,0.0,0.0,0.0,0.0,0.0,0.0,0.0,0.0,0.0,0.0,-2.4099,-2.2868,-2.2685,-2.4078,-2.3858,-2.3671,-2.3588,-2.3021,-2.2695,-2.2643,-2.2426,-2.231,-2.231,-2.231,-2.231,-2.231,-2.231,-2.231,-2.231,-2.231,-2.231,-2.231,-2.231,-2.231,-2.2282,-2.2237,-2.1974,-2.1582,-2.1552,-2.1439,-2.1394,-2.2068,-2.2483,-2.2787,-2.34,-2.3595,-2.3595,-2.3595,-2.3595,-2.3595,-2.3595,-2.3595,-2.3774,-2.4537,-2.4238,-2.4223,-2.6228,-2.6198,-2.5857,-2.6512,-2.6616,-2.6229,-2.4851,-2.4567,-2.4681,-2.5175,-2.4681,-2.4176,-2.4176,-2.3543,-2.3078,-2.3078,-2.3078,-2.3078,-2.3078,-2.3078,-2.3078,-2.3078,-2.3078,-2.3078,-2.3078,-2.3078,-2.3078,-2.3078,-2.3078,-2.3078,-2.3078,-2.3078,-2.3078,-2.2944,-2.2944,-2.1729,-1.9299,-1.9299,-1.8844,0.0,0.0,0.0,0.0,0.0,0.0,-1.7104,0.0,-1.6195,0.0,0.0,0.0,0.0,0.0,0.0,0.0,0.0,0.0,0.0,0.0,0.0,0.0,0.0,0.0,0.0,0.0,0.0,0.0,0.0,-2.2299,-2.3437,-2.3818,-2.3896,-2.3714,-2.3236,-2.2898,-2.2695,-2.2409,-2.231,-2.231,-2.231,-2.231,-2.231,-2.231,-2.231,-2.231,-2.231,-2.231,-2.231,-2.231,-2.231,-2.231,-2.231,-2.218,-2.2003,-2.2003,-2.1796,-2.16,-2.2402,-2.2592,-2.2595,-2.3351,-2.3595,-2.3595,-2.3595,-2.3595,-2.3595,-2.3595,-2.3595,-2.3759,-2.4448,-2.4418,-2.4597,-2.6198,-2.6378,-2.634,-2.6996,-2.6826,-2.6176,-2.5119,-2.4567,-2.4234,-2.4105,-2.3813,-2.359,-2.359,-2.3305,-2.3078,-2.3078,-2.3078,-2.3078,-2.3078,-2.3078,-2.3078,-2.3078,-2.3078,-2.3078,-2.3078,-2.3078,-2.3078,-2.3078,-2.3078,-2.3078,-2.3078,-2.3078,-2.3078,-2.3078,-2.2113,-2.1101,-2.0074,-2.0074,-1.9299,-2.2008,0.0,0.0,0.0,0.0,0.0,0.0,0.0,0.0,0.0,0.0,0.0,0.0,0.0,0.0,0.0,0.0,0.0,0.0,0.0,0.0,0.0,0.0,0.0,0.0,0.0,0.0,0.0,0.0,0.0,-2.2923,-2.3547,-2.3874,-2.3837,-2.3522,-2.3212,-2.2972,-2.2607,-2.2398,-2.2398,-2.2349,-2.231,-2.231,-2.231,-2.231,-2.231,-2.231,-2.231,-2.231,-2.231,-2.231,-2.231,-2.231,-2.231,-2.231,-2.231,-2.212,-2.2028,-2.2893,-2.307,-2.2948,-2.345,-2.3595,-2.3595,-2.3595,-2.3595,-2.364,-2.3819,-2.3879,-2.4044,-2.4717,-2.4851,-2.5181,-2.6318,-2.6587,-2.6668,-2.6938,-2.6602,-2.5906,-2.4951,-2.4337,-2.3767,-2.3198,-2.3078,-2.3078,-2.3078,-2.3078,-2.3078,-2.3078,-2.3078,-2.3078,-2.3078,-2.3078,-2.3078,-2.3078,-2.3078,-2.3078,-2.3078,-2.3078,-2.3078,-2.3078,-2.3078,-2.3078,-2.3078,-2.3078,-2.3078,-2.3078,-2.1678,-2.0846,-2.059,-2.0139,-1.9233,0.0,0.0,0.0,-2.0996,0.0,0.0,0.0,0.0,-1.779,0.0,0.0,0.0,0.0,0.0,0.0,-1.914,0.0,0.0,0.0,0.0,0.0,0.0,0.0,0.0,0.0,0.0,0.0,0.0,0.0,0.0,-2.2832,-2.3015,-2.34,-2.4171,-2.3876,-2.3671,-2.3671,-2.3021,-2.2695,-2.2669,-2.2426,-2.231,-2.231,-2.231,-2.231,-2.231,-2.231,-2.231,-2.231,-2.231,-2.231,-2.231,-2.231,-2.231,-2.231,-2.231,-2.2438,-2.278,-2.3457,-2.3987,-2.4246,-2.3736,-2.3595,-2.3595,-2.3595,-2.3595,-2.3744,-2.4418,-2.4552,-2.4701,-2.5405,-2.557,-2.5749,-2.6437,-2.6587,-2.6406,-2.5642,-2.5453,-2.5007,-2.3471,-2.3125,-2.3138,-2.3078,-2.3078,-2.3078,-2.3078,-2.3078,-2.3078,-2.3078,-2.3078,-2.3078,-2.3078,-2.3078,-2.3078,-2.3078,-2.3078,-2.3078,-2.3078,-2.3078,-2.3078,-2.3078,-2.3078,-2.3078,-2.3078,-2.3078,-2.3078,-2.3078,-2.2261,-2.1428,-2.059,-1.8854,-1.8076,0.0,0.0,-2.3382,-2.1815,0.0,0.0,0.0,0.0,0.0,0.0,0.0,0.0,0.0,0.0,0.0,-1.8448,0.0,0.0,0.0,0.0,0.0,0.0,0.0,0.0,0.0,0.0,0.0,0.0,0.0,0.0,0.0,-2.3271,-2.3914,-2.419,-2.3858,-2.3692,-2.3692,-2.3045,-2.2695,-2.2695,-2.2426,-2.231,-2.231,-2.231,-2.231,-2.231,-2.231,-2.231,-2.231,-2.231,-2.231,-2.231,-2.231,-2.231,-2.231,-2.231,-2.2664,-2.324,-2.3761,-2.4157,-2.4307,-2.3752,-2.3595,-2.3595,-2.3595,-2.3595,-2.3744,-2.4388,-2.4582,-2.4731,-2.5435,-2.5929,-2.6318,-2.6542,-2.6916,-2.719,-2.6923,-2.6108,-2.5231,-2.4724,-2.3813,-2.3078,-2.3078,-2.3078,-2.3078,-2.3078,-2.3078,-2.3078,-2.3078,-2.3078,-2.3078,-2.3078,-2.3078,-2.3078,-2.3078,-2.3078,-2.3078,-2.3078,-2.3078,-2.3078,-2.3078,-2.3078,-2.3078,-2.3078,-2.3078,-2.3078,-2.3078,-2.2322,-2.1428,-2.059,-1.9431,-1.8529,-2.2471,-2.3169,0.0,-2.2256,-2.1191,0.0,-1.8583,0.0,0.0,0.0,0.0,0.0,0.0,0.0,0.0,0.0,0.0,0.0,0.0,0.0,0.0,0.0,0.0,0.0,0.0,0.0,-1.599,-1.7384,0.0,0.0,0.0,0.0,-2.3529,-2.3768,-2.385,-2.3876,-2.3876,-2.3346,-2.2996,-2.2855,-2.2563,-2.2388,-2.231,-2.231,-2.231,-2.231,-2.231,-2.231,-2.231,-2.231,-2.231,-2.231,-2.231,-2.231,-2.231,-2.231,-2.2936,-2.3863,-2.4321,-2.4585,-2.4536,-2.3837,-2.3595,-2.3595,-2.3595,-2.3774,-2.4103,-2.4792,-2.5151,-2.548,-2.6138,-2.6617,-2.6946,-2.6946,-2.726,-2.7524,-2.7255,-2.6443,-2.5618,-2.5119,-2.4221,-2.3424,-2.3125,-2.3078,-2.3078,-2.3078,-2.3078,-2.3078,-2.3078,-2.3078,-2.3078,-2.3078,-2.3078,-2.3078,-2.3078,-2.3078,-2.3078,-2.3078,-2.3078,-2.3078,-2.3078,-2.3078,-2.3078,-2.3078,-2.3078,-2.3078,-2.3078,-2.2002,-2.1175,-2.059,-1.9365,-1.8529]},{"header":{"parameterUnit":"m.s-1","parameterCategory":1,"la1":30.6,"la2":29.2853,"lo1":-89.7004,"lo2":-87.6739,"dy":0.0162,"dx":0.0183,"nx":112,"ny":82,"refTime":"2025-02-24T06:00:00:Z","depth":0,"parameterNumber":3,"parameterNumberName":"V-component_of_WINDS"},"data":[0.0,0.0,0.0,0.0,0.0,0.0,0.0,0.0,0.0,0.0,0.0,0.0,0.0,0.0,0.0,0.0,0.0,0.0,0.0,0.0,0.0,0.0,0.0,0.0,0.0,0.0,0.0,0.0,0.0,0.0,0.0,0.0,0.0,0.0,0.0,0.0,0.0,0.0,0.0,0.0,0.0,0.0,0.0,0.0,0.0,0.0,0.0,0.0,0.0,0.0,0.0,0.0,0.0,0.0,0.0,0.0,0.0,0.0,0.0,0.0,0.0,0.0,0.0,0.0,0.0,0.0,0.0,0.0,0.0,0.0,0.0,0.0,0.0,0.0,0.0,0.0,0.0,0.0,0.0,0.0,0.0,0.0,0.0,0.0,0.0,0.0,0.0,0.0,0.0,0.0,0.0,-1.2891,-1.4225,-1.4633,-1.387,-1.3271,-1.2096,-1.0024,0.0,0.0,0.0,0.0,0.0,0.0,0.0,0.0,0.0,0.0,0.0,0.0,0.0,0.0,0.0,0.0,0.0,0.0,0.0,0.0,0.0,0.0,0.0,0.0,0.0,0.0,0.0,0.0,0.0,0.0,0.0,0.0,0.0,0.0,0.0,0.0,0.0,0.0,0.0,0.0,0.0,0.0,0.0,0.0,0.0,0.0,0.0,0.0,0.0,0.0,0.0,0.0,0.0,0.0,0.0,0.0,0.0,0.0,0.0,0.0,0.0,0.0,0.0,0.0,0.0,0.0,0.0,0.0,0.0,0.0,0.0,0.0,0.0,0.0,0.0,0.0,0.0,0.0,0.0,0.0,0.0,0.0,0.0,0.0,0.0,0.0,0.0,0.0,0.0,0.0,0.0,0.0,0.0,0.0,0.0,0.0,0.0,0.0,0.0,0.0,0.0,0.0,0.0,0.0,-1.183,-1.424,-1.5199,-1.5169,-1.3914,-1.372,-1.2583,-1.0054,0.0,0.0,0.0,0.0,0.0,0.0,0.0,0.0,0.0,0.0,0.0,0.0,0.0,0.0,0.0,0.0,0.0,0.0,0.0,0.0,0.0,0.0,0.0,0.0,0.0,0.0,0.0,0.0,0.0,0.0,0.0,0.0,0.0,0.0,0.0,0.0,0.0,0.0,0.0,0.0,0.0,0.0,0.0,0.0,0.0,0.0,0.0,0.0,0.0,0.0,0.0,0.0,0.0,0.0,0.0,0.0,0.0,0.0,0.0,0.0,0.0,0.0,0.0,0.0,0.0,0.0,0.0,0.0,0.0,0.0,0.0,0.0,0.0,0.0,0.0,0.0,0.0,0.0,0.0,0.0,0.0,0.0,0.0,0.0,0.0,0.0,0.0,0.0,0.0,0.0,0.0,0.0,0.0,0.0,0.0,0.0,0.0,0.0,0.0,0.0,0.0,0.0,0.0,-1.1898,-1.3047,-1.4626,-1.5561,-1.5588,-1.445,-1.4019,-1.2884,-1.0686,-1.0218,0.0,0.0,0.0,0.0,0.0,0.0,0.0,0.0,0.0,0.0,0.0,0.0,0.0,0.0,0.0,0.0,0.0,0.0,0.0,0.0,0.0,0.0,0.0,0.0,0.0,0.0,0.0,0.0,0.0,0.0,0.0,0.0,0.0,0.0,0.0,0.0,0.0,0.0,0.0,0.0,0.0,0.0,0.0,0.0,0.0,0.0,0.0,0.0,0.0,0.0,0.0,0.0,0.0,0.0,0.0,0.0,0.0,0.0,0.0,0.0,0.0,0.0,0.0,0.0,0.0,0.0,0.0,0.0,0.0,0.0,0.0,0.0,0.0,0.0,0.0,0.0,0.0,0.0,0.0,0.0,0.0,0.0,0.0,0.0,0.0,0.0,0.0,0.0,0.0,0.0,0.0,0.0,0.0,0.0,0.0,0.0,0.0,0.0,0.0,0.0,0.0,0.0,-1.3256,-1.4298,-1.5178,-1.5964,-1.6049,-1.5106,-1.4247,-1.3016,-1.133,-1.0415,0.0,0.0,0.0,0.0,0.0,0.0,0.0,0.0,0.0,0.0,0.0,0.0,0.0,0.0,0.0,0.0,0.0,0.0,0.0,0.0,0.0,0.0,0.0,0.0,0.0,0.0,0.0,0.0,0.0,0.0,0.0,0.0,0.0,0.0,0.0,0.0,0.0,0.0,0.0,0.0,0.0,0.0,0.0,0.0,0.0,0.0,0.0,0.0,0.0,0.0,0.0,0.0,0.0,0.0,0.0,0.0,0.0,0.0,0.0,0.0,0.0,0.0,0.0,0.0,0.0,0.0,0.0,0.0,0.0,0.0,0.0,0.0,0.0,0.0,0.0,0.0,0.0,0.0,0.0,0.0,0.0,0.0,0.0,0.0,0.0,0.0,0.0,0.0,0.0,0.0,0.0,0.0,0.0,0.0,0.0,0.0,0.0,0.0,0.0,0.0,0.0,0.0,-1.4096,-1.5418,-1.654,-1.6706,-1.646,-1.5791,-1.4428,-1.3027,-1.1649,-1.0224,0.0,0.0,0.0,0.0,0.0,0.0,0.0,0.0,0.0,0.0,0.0,0.0,0.0,0.0,0.0,0.0,0.0,0.0,0.0,0.0,0.0,0.0,0.0,0.0,0.0,0.0,0.0,0.0,0.0,0.0,0.0,0.0,0.0,0.0,0.0,0.0,0.0,0.0,0.0,0.0,0.0,0.0,0.0,0.0,0.0,0.0,0.0,0.0,0.0,0.0,0.0,0.0,0.0,0.0,0.0,0.0,0.0,0.0,0.0,0.0,0.0,0.0,0.0,0.0,0.0,0.0,0.0,0.0,0.0,0.0,0.0,0.0,0.0,0.0,0.0,0.0,0.0,0.0,0.0,0.0,0.0,0.0,0.0,0.0,0.0,0.0,0.0,0.0,0.0,0.0,0.0,0.0,0.0,0.0,0.0,0.0,0.0,0.0,0.0,0.0,0.0,0.0,-1.3963,-1.5263,0.0,-1.6977,-1.6735,-1.5831,-1.4863,-1.3524,-1.177,0.0,0.0,0.0,0.0,0.0,0.0,0.0,0.0,0.0,0.0,0.0,0.0,0.0,0.0,0.0,0.0,0.0,0.0,0.0,0.0,0.0,0.0,0.0,0.0,0.0,0.0,0.0,0.0,0.0,0.0,0.0,0.0,0.0,0.0,0.0,0.0,0.0,0.0,0.0,0.0,0.0,0.0,0.0,0.0,0.0,0.0,0.0,0.0,0.0,0.0,0.0,0.0,0.0,0.0,0.0,0.0,0.0,0.0,0.0,0.0,0.0,0.0,0.0,0.0,0.0,0.0,0.0,0.0,0.0,0.0,0.0,0.0,0.0,0.0,0.0,0.0,0.0,0.0,0.0,0.0,0.0,0.0,0.0,0.0,0.0,0.0,0.0,0.0,0.0,0.0,0.0,0.0,0.0,0.0,0.0,0.0,0.0,0.0,0.0,0.0,0.0,0.0,-1.2819,-1.4115,-1.5436,0.0,-1.7337,-1.7087,-1.6115,-1.5179,-1.3851,-1.2025,0.0,0.0,0.0,0.0,0.0,0.0,0.0,0.0,0.0,0.0,0.0,0.0,0.0,0.0,0.0,0.0,0.0,0.0,0.0,0.0,0.0,0.0,0.0,0.0,0.0,0.0,0.0,0.0,0.0,0.0,0.0,0.0,0.0,0.0,0.0,0.0,0.0,0.0,0.0,0.0,0.0,0.0,0.0,0.0,0.0,0.0,0.0,0.0,0.0,0.0,0.0,0.0,0.0,0.0,0.0,0.0,0.0,0.0,0.0,0.0,0.0,0.0,0.0,0.0,0.0,0.0,0.0,0.0,0.0,0.0,0.0,0.0,0.0,0.0,0.0,0.0,0.0,0.0,0.0,0.0,0.0,0.0,0.0,0.0,0.0,0.0,0.0,0.0,0.0,0.0,0.0,0.0,0.0,0.0,0.0,0.0,0.0,0.0,0.0,0.0,0.0,0.0,-1.321,-1.4682,-1.617,-1.7659,-1.7811,-1.7507,-1.6749,-1.5358,-1.3887,0.0,0.0,0.0,0.0,0.0,0.0,0.0,0.0,0.0,0.0,0.0,0.0,0.0,0.0,0.0,0.0,0.0,0.0,0.0,0.0,0.0,0.0,0.0,0.0,0.0,0.0,0.0,0.0,0.0,0.0,0.0,0.0,0.0,0.0,0.0,0.0,0.0,0.0,0.0,0.0,0.0,0.0,0.0,0.0,0.0,0.0,0.0,0.0,0.0,0.0,0.0,0.0,0.0,0.0,0.0,0.0,0.0,0.0,0.0,0.0,0.0,0.0,0.0,0.0,0.0,0.0,0.0,0.0,0.0,0.0,0.0,0.0,0.0,0.0,0.0,0.0,0.0,0.0,0.0,0.0,0.0,0.0,0.0,0.0,0.0,0.0,0.0,0.0,0.0,0.0,0.0,0.0,0.0,0.0,0.0,0.0,0.0,0.0,0.0,0.0,0.0,0.0,0.0,-1.3278,-1.5141,-1.6728,-1.771,-1.7811,-1.7304,-1.6018,-1.5528,-1.4174,-1.162,0.0,0.0,0.0,0.0,0.0,0.0,0.0,0.0,0.0,0.0,0.0,0.0,0.0,0.0,0.0,0.0,0.0,0.0,0.0,0.0,0.0,0.0,0.0,0.0,0.0,0.0,0.0,0.0,0.0,0.0,0.0,0.0,0.0,0.0,0.0,0.0,0.0,0.0,0.0,0.0,0.0,0.0,0.0,0.0,0.0,0.0,0.0,0.0,0.0,0.0,0.0,0.0,0.0,0.0,0.0,0.0,0.0,0.0,0.0,0.0,0.0,0.0,0.0,0.0,0.0,0.0,0.0,0.0,0.0,0.0,0.0,0.0,0.0,0.0,0.0,0.0,0.0,0.0,0.0,0.0,0.0,0.0,0.0,0.0,0.0,0.0,0.0,0.0,0.0,0.0,0.0,0.0,0.0,0.0,0.0,0.0,0.0,0.0,0.0,0.0,0.0,0.0,-1.3312,-1.5327,-1.6965,-1.7726,-1.7811,-1.732,-1.6136,-1.5764,-1.4445,-1.1756,0.0,0.0,0.0,0.0,0.0,0.0,0.0,0.0,0.0,0.0,0.0,0.0,0.0,0.0,0.0,0.0,0.0,0.0,0.0,0.0,0.0,0.0,0.0,0.0,0.0,0.0,0.0,0.0,0.0,0.0,0.0,0.0,0.0,0.0,0.0,0.0,0.0,0.0,0.0,0.0,0.0,0.0,0.0,0.0,0.0,0.0,0.0,0.0,0.0,0.0,0.0,0.0,0.0,0.0,0.0,0.0,0.0,0.0,0.0,0.0,0.0,0.0,0.0,0.0,0.0,0.0,0.0,0.0,0.0,0.0,0.0,0.0,0.0,0.0,0.0,0.0,0.0,0.0,0.0,0.0,0.0,0.0,0.0,0.0,0.0,0.0,0.0,0.0,0.0,0.0,0.0,0.0,0.0,0.0,0.0,0.0,0.0,0.0,0.0,0.0,0.0,0.0,-1.3413,-1.5428,-1.705,-1.7743,-1.7811,-1.7507,-1.6766,-1.6018,-1.4682,-1.2534,0.0,0.0,0.0,0.0,0.0,0.0,0.0,0.0,0.0,0.0,0.0,0.0,0.0,0.0,0.0,0.0,0.0,0.0,0.0,0.0,0.0,0.0,0.0,0.0,0.0,0.0,0.0,0.0,0.0,0.0,0.0,0.0,0.0,0.0,0.0,0.0,0.0,0.0,0.0,0.0,0.0,0.0,0.0,0.0,0.0,0.0,0.0,0.0,0.0,0.0,0.0,0.0,0.0,0.0,0.0,0.0,0.0,0.0,0.0,0.0,-1.3143,0.0,0.0,0.0,0.0,0.0,0.0,0.0,0.0,0.0,0.0,0.0,0.0,0.0,0.0,0.0,0.0,0.0,0.0,0.0,0.0,0.0,0.0,0.0,0.0,0.0,0.0,0.0,0.0,0.0,0.0,0.0,0.0,0.0,0.0,0.0,0.0,0.0,0.0,0.0,0.0,0.0,-1.4174,-1.6204,-1.7642,-1.7794,-1.7811,-1.7507,-1.6766,-1.6018,-1.4902,-1.3278,-1.1872,0.0,0.0,0.0,0.0,0.0,0.0,0.0,0.0,0.0,0.0,0.0,0.0,0.0,0.0,0.0,0.0,0.0,0.0,0.0,0.0,0.0,0.0,0.0,0.0,0.0,0.0,0.0,0.0,0.0,0.0,0.0,0.0,0.0,0.0,0.0,0.0,0.0,0.0,0.0,0.0,0.0,0.0,0.0,0.0,0.0,0.0,0.0,0.0,0.0,0.0,0.0,0.0,0.0,0.0,0.0,0.0,0.0,0.0,0.0,0.0,-1.4614,0.0,0.0,0.0,0.0,0.0,0.0,0.0,0.0,0.0,0.0,0.0,0.0,0.0,0.0,0.0,0.0,0.0,0.0,0.0,0.0,0.0,0.0,0.0,0.0,0.0,0.0,0.0,0.0,0.0,0.0,0.0,0.0,0.0,0.0,0.0,0.0,0.0,0.0,0.0,0.0,-1.4411,-1.642,-1.7811,-1.7811,-1.7811,-1.7642,-1.7253,-1.6542,-1.5494,-1.4022,-1.2838,0.0,0.0,0.0,0.0,0.0,0.0,0.0,0.0,0.0,0.0,0.0,0.0,0.0,0.0,0.0,0.0,0.0,0.0,0.0,0.0,0.0,0.0,0.0,0.0,0.0,0.0,0.0,0.0,0.0,0.0,0.0,0.0,0.0,0.0,0.0,0.0,0.0,0.0,0.0,0.0,0.0,0.0,0.0,0.0,0.0,0.0,0.0,0.0,0.0,0.0,0.0,0.0,0.0,0.0,-1.7929,-1.8403,-1.8538,-1.8927,-1.9418,-1.82,-1.7794,-1.7845,0.0,0.0,0.0,0.0,0.0,0.0,0.0,0.0,0.0,0.0,0.0,0.0,0.0,0.0,0.0,0.0,0.0,0.0,0.0,0.0,0.0,0.0,0.0,0.0,0.0,-1.5874,-1.5193,0.0,0.0,0.0,0.0,0.0,0.0,0.0,0.0,0.0,0.0,0.0,0.0,-1.4783,-1.6593,-1.7811,-1.7811,-1.7811,-1.7811,-1.7811,-1.7117,-1.6191,-1.4969,-1.4073,-1.2973,0.0,0.0,0.0,0.0,0.0,0.0,0.0,0.0,0.0,0.0,0.0,0.0,0.0,0.0,0.0,0.0,0.0,0.0,0.0,0.0,0.0,0.0,0.0,0.0,0.0,0.0,0.0,0.0,0.0,0.0,0.0,0.0,-1.1397,-1.1526,0.0,0.0,0.0,0.0,0.0,0.0,0.0,0.0,0.0,0.0,0.0,0.0,0.0,0.0,-1.7371,-1.8633,-1.9039,-1.8623,-2.0619,-2.1278,-2.078,-2.1414,-2.1769,-2.1854,-2.1651,0.0,-1.8674,-1.776,0.0,0.0,0.0,0.0,0.0,0.0,0.0,0.0,0.0,0.0,0.0,0.0,0.0,0.0,0.0,0.0,0.0,0.0,0.0,0.0,0.0,0.0,-1.9005,-1.8572,-1.8432,-1.8297,0.0,-1.5671,-1.3266,-1.2205,0.0,0.0,0.0,0.0,0.0,0.0,0.0,0.0,-1.6241,-1.7219,-1.7811,-1.7811,-1.7811,-1.7811,-1.7811,-1.7117,-1.6631,-1.6428,-1.5122,-1.3988,-1.3125,-1.2381,0.0,0.0,0.0,0.0,0.0,0.0,0.0,0.0,0.0,0.0,0.0,0.0,0.0,0.0,0.0,0.0,0.0,0.0,0.0,0.0,0.0,0.0,0.0,0.0,0.0,0.0,0.0,0.0,0.0,-1.1961,-1.3057,-1.3261,-1.3628,-1.3424,0.0,0.0,0.0,0.0,0.0,0.0,0.0,0.0,0.0,-1.7422,-1.776,-1.8504,-1.9688,-2.0348,-2.072,-2.0822,-2.1837,-2.2141,-2.1837,-2.2158,-2.231,-2.231,-2.231,-2.1735,-2.072,-1.9529,-1.842,-1.7371,0.0,0.0,0.0,0.0,0.0,-1.6593,-1.8183,0.0,0.0,0.0,0.0,0.0,0.0,0.0,0.0,0.0,0.0,0.0,0.0,0.0,0.0,-2.0044,-1.9965,-1.9833,-2.0128,-1.8767,-1.6816,0.0,-1.4281,-1.3834,-1.2073,0.0,0.0,0.0,0.0,0.0,-1.6563,-1.7337,-1.7811,-1.7811,-1.7811,-1.7811,-1.7811,-1.7507,-1.7134,-1.6733,-1.6086,-1.5409,-1.4683,-1.3532,-1.2584,0.0,0.0,0.0,0.0,0.0,0.0,0.0,0.0,0.0,0.0,0.0,0.0,0.0,0.0,0.0,0.0,0.0,0.0,0.0,0.0,0.0,0.0,0.0,0.0,0.0,0.0,0.0,0.0,-1.3507,-1.4657,-1.4794,-1.5464,-1.5397,0.0,0.0,0.0,0.0,0.0,0.0,-1.673,-1.745,-1.8358,-1.9435,-1.9672,-2.0314,-2.1465,-2.1465,-2.1752,-2.231,-2.231,-2.231,-2.231,-2.231,-2.231,-2.231,-2.231,-2.231,-2.2209,-2.0873,-1.9993,-1.9401,-1.8674,-1.8346,-1.843,-1.9198,-1.913,-1.8944,-2.0822,-2.0974,-2.0264,-1.9891,0.0,-1.8877,-1.7236,0.0,0.0,0.0,0.0,-1.8104,-1.9181,0.0,-2.0061,-2.1194,-2.1182,-2.1011,-2.14,-2.1037,-1.9778,0.0,-1.6607,-1.6033,-1.382,0.0,0.0,0.0,0.0,-1.6712,-1.7439,-1.8031,-1.8278,-1.8115,-1.8082,-1.8014,-1.7828,-1.7811,-1.7574,-1.7037,-1.6965,-1.6644,-1.59,-1.4836,-1.3989,-1.3413,0.0,0.0,0.0,0.0,0.0,0.0,0.0,0.0,0.0,0.0,0.0,0.0,0.0,0.0,0.0,0.0,0.0,0.0,0.0,0.0,0.0,0.0,0.0,0.0,0.0,0.0,0.0,0.0,0.0,-1.5685,-1.8107,0.0,0.0,0.0,0.0,-1.7276,-1.8601,-1.9258,-1.8771,-2.0171,-2.1017,-2.1085,-2.1769,-2.2175,-2.2243,-2.2243,-2.2276,-2.231,-2.231,-2.231,-2.231,-2.231,-2.231,-2.231,-2.231,-2.231,-2.2243,-2.1448,-2.1136,-2.1017,-2.0213,-1.9883,-1.9985,-2.0788,-2.1068,-2.117,-2.1972,-2.1752,-2.1245,-2.1921,-2.1133,-1.9917,-1.9816,-1.9299,0.0,0.0,-1.9824,-2.1,-2.1085,-2.16,-2.2158,-2.2243,-2.2226,-2.2209,-2.2243,-2.1651,-2.0679,0.0,-1.8748,-1.8274,-1.6749,0.0,-1.7591,-1.7591,-1.8234,-1.8995,-1.9731,-1.9866,-1.9613,-1.891,-1.8843,-1.8555,-1.7862,-1.7811,-1.7794,-1.776,-1.7743,-1.7422,-1.6682,-1.658,-1.5547,-1.3447,-1.2601,0.0,0.0,0.0,0.0,0.0,0.0,0.0,0.0,0.0,0.0,0.0,0.0,0.0,0.0,0.0,0.0,0.0,0.0,0.0,0.0,0.0,0.0,0.0,0.0,0.0,0.0,0.0,0.0,-1.8458,-1.9452,0.0,-1.8155,-1.9111,-1.9632,-1.9165,-2.0209,-2.0772,-2.0597,-2.1419,-2.1904,-2.1904,-2.2175,-2.231,-2.231,-2.231,-2.231,-2.231,-2.231,-2.2564,-2.3004,-2.3004,-2.3004,-2.3004,-2.3004,-2.275,-2.2293,-2.2023,-2.1904,-2.1887,-2.16,-2.1471,-2.1515,-2.1803,-2.1904,-2.1955,-2.2226,-2.2141,-2.1955,-2.2226,-2.1938,-2.1471,-2.1471,-2.1312,-2.1092,-2.1092,-2.1481,-2.1904,-2.1904,-2.2107,-2.231,-2.231,-2.231,-2.231,-2.231,-2.209,-2.1752,-2.1194,-2.0297,-1.9299,-1.8285,-1.8741,-1.9039,-1.8589,-1.9147,-1.9697,-1.9968,-2.0002,-1.99,-1.963,-1.9181,-1.8792,-1.8538,-1.8082,-1.7811,-1.7811,-1.7811,-1.7693,-1.7422,-1.6492,-1.5612,-1.4817,-1.3159,-1.1773,0.0,0.0,0.0,0.0,0.0,0.0,0.0,0.0,0.0,0.0,0.0,0.0,0.0,0.0,0.0,0.0,0.0,0.0,0.0,0.0,0.0,0.0,0.0,0.0,0.0,0.0,-1.9164,-1.9838,-2.0548,-2.0662,-1.9884,-2.0621,-2.109,-2.0986,-2.1546,-2.1867,-2.1773,-2.2116,-2.231,-2.231,-2.2547,-2.2682,-2.2682,-2.2919,-2.3038,-2.3038,-2.3038,-2.3291,-2.3765,-2.3765,-2.3765,-2.3765,-2.3765,-2.3342,-2.2682,-2.2682,-2.253,-2.231,-2.231,-2.231,-2.231,-2.231,-2.231,-2.231,-2.231,-2.231,-2.231,-2.231,-2.231,-2.231,-2.231,-2.231,-2.231,-2.231,-2.231,-2.231,-2.231,-2.231,-2.231,-2.231,-2.231,-2.231,-2.231,-2.231,-2.231,-2.231,-2.1454,-2.0525,-1.979,-2.0297,-2.0534,-1.979,-2.0314,-2.0779,-2.0779,-2.0779,-2.0677,-2.0433,-1.9959,-1.9469,-1.8944,-1.8454,-1.8065,-1.7828,-1.7574,-1.7422,-1.7422,-1.6255,-1.5477,-1.524,-1.3295,-1.1891,-1.1096,0.0,0.0,0.0,0.0,0.0,0.0,0.0,0.0,0.0,0.0,0.0,0.0,0.0,0.0,0.0,0.0,0.0,0.0,0.0,0.0,0.0,0.0,0.0,-1.7168,-1.9021,-2.0166,-1.9745,-2.1481,-2.2223,-2.0991,-2.2276,-2.3045,-2.2721,-2.2695,-2.2573,-2.2293,-2.231,-2.2327,-2.2344,-2.3038,-2.341,-2.3427,-2.412,-2.4506,-2.4506,-2.4506,-2.4523,-2.454,-2.454,-2.454,-2.454,-2.454,-2.4133,-2.3427,-2.3427,-2.2975,-2.2316,-2.2282,-2.231,-2.231,-2.231,-2.231,-2.231,-2.231,-2.231,-2.231,-2.231,-2.231,-2.231,-2.231,-2.231,-2.231,-2.231,-2.231,-2.231,-2.231,-2.231,-2.231,-2.231,-2.231,-2.231,-2.231,-2.231,-2.231,-2.231,-2.231,-2.2073,-2.1373,-2.1837,-2.2073,-2.1329,-2.1837,0.0,-2.231,-2.231,-2.204,-2.1322,-2.1221,-2.0611,-1.9096,-1.8927,-1.8589,-1.7896,-1.7117,-1.6716,-1.6733,-1.6001,-1.5257,-1.4511,-1.3109,-1.1975,-1.1164,0.0,0.0,0.0,0.0,0.0,0.0,0.0,0.0,0.0,0.0,0.0,0.0,0.0,0.0,0.0,0.0,0.0,0.0,0.0,0.0,0.0,0.0,-1.9338,-1.9407,-2.0294,-2.1191,-2.1774,-2.2364,-2.2648,-2.2541,-2.2726,-2.2797,-2.2721,-2.2527,-2.2388,-2.231,-2.231,-2.2547,-2.3088,-2.3291,-2.3646,-2.4201,-2.4404,-2.4506,-2.4506,-2.4506,-2.4763,-2.5304,-2.5304,-2.5304,-2.5304,-2.5304,-2.4881,-2.4188,-2.3779,-2.322,-2.2585,-2.2382,-2.231,-2.231,-2.231,-2.231,-2.231,-2.231,-2.231,-2.231,-2.231,-2.231,-2.231,-2.231,-2.231,-2.231,-2.231,-2.231,-2.231,-2.231,-2.231,-2.231,-2.231,-2.231,-2.231,-2.231,-2.231,-2.231,-2.231,-2.231,-2.2243,-2.204,-2.2175,-2.2243,-2.204,0.0,0.0,-2.231,-2.231,-2.2226,-2.2023,-2.1515,-2.1034,-2.0611,-1.9536,-1.8809,-1.8606,-1.741,-1.6953,-1.7473,-1.6272,-1.5257,-1.4511,-1.4089,-1.3515,0.0,0.0,0.0,0.0,0.0,0.0,0.0,0.0,0.0,0.0,0.0,0.0,0.0,0.0,0.0,0.0,0.0,0.0,0.0,0.0,0.0,0.0,-1.9532,-2.0781,-2.1105,-2.1443,-2.1885,-2.2476,-2.2537,-2.2616,-2.2798,-2.2643,-2.2674,-2.2983,-2.2847,-2.2902,-2.3207,-2.3224,-2.341,-2.3833,-2.4154,-2.4526,-2.4949,-2.5253,-2.5406,-2.5406,-2.5406,-2.5642,-2.6065,-2.6065,-2.5949,0.0,-2.5782,-2.5213,-2.4315,-2.3992,-2.345,0.0,0.0,0.0,0.0,0.0,-2.2581,-2.231,-2.231,-2.231,-2.2361,-2.2665,-2.2564,-2.2361,-2.2682,-2.2547,-2.231,-2.231,-2.231,-2.231,-2.231,-2.231,-2.231,-2.231,-2.231,-2.231,-2.231,-2.231,-2.231,-2.231,0.0,0.0,-2.231,-2.231,-2.231,-2.231,-2.231,-2.231,0.0,-2.231,-2.231,-2.231,-2.1921,-2.1532,-2.1237,-2.0061,0.0,0.0,0.0,-1.6745,-1.6881,-1.6052,0.0,0.0,0.0,0.0,0.0,0.0,0.0,0.0,-1.3413,-1.3345,0.0,0.0,0.0,0.0,0.0,0.0,0.0,0.0,0.0,0.0,0.0,0.0,0.0,0.0,0.0,0.0,-2.0805,-2.1566,-2.2327,-2.2429,-2.2395,-2.2327,-2.2378,-2.2429,-2.2429,-2.2513,-2.2818,-2.346,-2.3511,-2.3799,-2.4472,0.0,0.0,0.0,0.0,-2.5642,-2.5727,-2.637,-2.6691,-2.6691,-2.6657,-2.6624,-2.6624,-2.6539,-2.628,-2.5924,-2.5924,-2.5257,-2.4233,-2.4159,-2.3697,-2.307,-2.302,-2.2891,-2.2798,-2.3268,-2.3017,0.0,0.0,0.0,0.0,-2.3203,-2.2984,-2.2579,-2.3325,-2.3071,-2.2564,-2.2564,-2.2496,-2.2429,-2.2429,-2.2361,-2.231,-2.231,-2.231,-2.231,-2.231,-2.231,-2.231,-2.231,-2.231,-2.231,-2.231,-2.231,-2.231,-2.231,-2.231,0.0,-2.231,-2.231,-2.231,-2.231,0.0,0.0,-2.139,-2.0602,-1.9875,-1.9198,-1.7845,-1.6728,-1.6001,-1.6052,-1.6052,-1.5967,-1.6052,-1.6052,-1.5967,-1.7371,-1.771,-1.702,-1.4971,-1.436,0.0,0.0,0.0,0.0,0.0,0.0,0.0,0.0,0.0,0.0,0.0,0.0,0.0,0.0,0.0,-2.0788,-2.16,-2.2344,-2.3088,-2.319,-2.297,-2.2378,-2.2835,-2.319,-2.319,-2.3714,-2.412,-2.4286,-2.4303,-2.4371,-2.4506,-2.4506,0.0,-2.5372,-2.5541,-2.5896,-2.6471,-2.6623,-2.6691,-2.6691,0.0,0.0,-2.612,-2.5672,-2.5449,-2.5335,-2.5335,-2.5217,-2.4936,-2.4508,-2.4004,-2.3436,-2.3127,-2.2984,-2.298,-2.3457,-2.3571,-2.3423,-2.3423,-2.3423,-2.3439,-2.362,-2.3571,-2.3552,-2.4113,-2.4201,0.0,-2.4052,-2.3646,-2.319,-2.319,-2.275,-2.231,-2.231,-2.231,-2.231,-2.231,-2.231,-2.231,-2.231,-2.231,-2.231,-2.231,-2.231,-2.231,-2.231,-2.231,-2.231,-2.231,-2.231,-2.231,-2.231,-2.231,-2.2243,-2.2107,-2.1397,-2.0906,-2.0763,-1.9891,-1.9046,-1.8285,-1.8819,-1.8877,-1.8268,-1.886,-1.8877,-1.8251,-1.9164,-1.9495,-1.9326,-1.8302,-1.7912,0.0,0.0,0.0,0.0,0.0,0.0,0.0,0.0,0.0,0.0,0.0,-1.7591,-1.8684,0.0,-2.0974,-2.2107,-2.2615,-2.3105,-2.3833,-2.3934,-2.3799,-2.3427,-2.3714,-2.3934,-2.3934,-2.4286,-2.4644,-2.5017,-2.505,-2.5203,-2.5575,-2.5592,-2.5761,-2.6133,-2.615,-2.6336,-2.6691,-2.6487,-2.6367,-2.6332,-2.5835,-2.5615,-2.5577,-2.5335,-2.5051,-2.4776,-2.4776,-2.4672,-2.4389,-2.4116,-2.3837,-2.3578,-2.3396,-2.3235,-2.3205,-2.3722,-2.3673,-2.3331,-2.3331,-2.3331,-2.3395,-2.3786,-2.3657,-2.3499,-2.4381,-2.4379,-2.416,-2.4428,-2.4222,-2.3849,-2.3494,-2.3122,-2.2767,-2.2395,-2.231,-2.231,-2.231,-2.231,-2.231,-2.231,-2.231,-2.231,-2.231,-2.231,-2.231,-2.231,-2.231,-2.231,-2.231,-2.231,-2.231,-2.231,-2.231,-2.231,-2.231,-2.1617,-2.1034,-2.0619,-2.0204,-1.9816,-1.9486,-1.9799,-1.9816,-1.9469,-1.9799,-1.9816,-1.9452,-2.023,-2.0602,-2.0602,-2.0602,-2.0196,0.0,0.0,0.0,0.0,0.0,0.0,0.0,0.0,-1.6407,-1.7918,-1.8826,-1.957,-2.0306,-2.1092,-2.2057,-2.3393,-2.3613,-2.3866,-2.4594,-2.4695,-2.4777,-2.4929,-2.4811,-2.4695,-2.4695,-2.4831,-2.5169,-2.5778,-2.5812,-2.6065,-2.6657,-2.6691,-2.6691,-2.6691,-2.6624,-2.6539,-2.6539,-2.6068,-2.5852,-2.5852,-2.5297,-2.5051,-2.5028,-2.495,-2.4657,-2.4225,-2.4225,-2.3991,-2.3595,-2.3595,-2.3595,-2.3595,-2.3595,-2.3519,-2.344,-2.4087,-2.4015,-2.357,-2.357,-2.357,-2.3667,-2.4301,-2.4056,-2.3774,-2.4855,-2.4745,-2.4381,-2.4804,-2.4814,-2.456,-2.3985,-2.3613,-2.3241,-2.2665,-2.2412,-2.231,-2.231,-2.231,-2.231,-2.231,-2.231,-2.231,-2.231,-2.231,-2.231,-2.231,-2.231,-2.231,-2.231,-2.231,-2.231,-2.231,-2.231,-2.231,-2.231,-2.1752,-2.1143,-2.0475,-2.0441,-2.0441,-2.0441,-2.0441,-2.0441,-2.0441,-2.0441,-2.0441,-2.0441,-2.1092,-2.1397,-2.1414,-2.2023,-2.1623,-1.4795,-1.3302,-1.3014,-1.5482,-1.5621,-1.5929,0.0,0.0,-1.8735,-1.9579,-2.0382,-2.116,-2.1921,-2.2649,-2.341,-2.4222,-2.4388,-2.4611,-2.5372,-2.549,-2.5727,-2.637,-2.5879,-2.549,-2.549,-2.6065,-2.6488,-2.6573,-2.6573,-2.6607,-2.6691,-2.6691,-2.6691,-2.6691,-2.6297,-2.6085,-2.6085,-2.5561,-2.5297,-2.5297,-2.4752,-2.4511,-2.4471,-2.4006,-2.3767,-2.3681,-2.3681,-2.3681,-2.3595,-2.3595,-2.3595,-2.3595,-2.3595,-2.3593,-2.3688,-2.4705,-2.5324,-2.5658,-2.5658,-2.5658,-2.5675,-2.574,-2.5724,-2.5782,-2.6319,-2.6438,-2.6371,-2.6454,-2.5981,-2.5456,-2.5389,-2.4374,-2.3376,-2.3291,-2.2784,-2.231,-2.231,-2.231,-2.231,-2.231,-2.231,-2.231,-2.231,-2.231,-2.231,-2.231,-2.231,-2.231,-2.231,-2.231,-2.231,-2.231,-2.231,-2.231,-2.231,-2.2226,-2.2141,-2.2057,-2.2057,-2.2057,-2.2057,-2.2057,-2.2057,-2.2057,-2.2057,-2.2057,-2.2057,-2.2141,-2.2192,-2.2192,-2.2276,-2.2226,-1.7343,-1.6728,-1.6733,-1.7662,-1.831,-1.9091,-2.039,-2.045,-2.045,-2.1194,-2.1617,-2.2073,-2.2801,-2.319,-2.3782,0.0,-2.5135,-2.5406,-2.6133,-2.6234,-2.6201,-2.6065,-2.6167,-2.6234,-2.6234,-2.6522,-2.6691,-2.6691,-2.6691,-2.6691,-2.6691,-2.6436,-2.6297,-2.6297,-2.5799,-2.5697,-2.6096,-2.5568,-2.5487,-2.5895,-2.5354,-2.5105,-2.5105,-2.4852,-2.4567,-2.4223,-2.4597,-2.4552,-2.4223,-2.4612,-2.4762,-2.4732,-2.4343,-2.4354,-2.464,-2.4337,-2.4389,-2.4576,-2.4576,-2.4831,-2.5067,-2.5067,-2.5297,-2.5652,-2.6139,-2.6297,-2.6367,-2.6624,-2.6471,-2.615,-2.571,-2.5152,-2.4458,-2.3596,-2.3156,-2.2835,-2.2395,-2.231,-2.231,-2.231,-2.231,-2.231,-2.231,-2.231,-2.231,-2.231,-2.231,-2.231,-2.231,-2.231,-2.231,-2.231,-2.231,-2.231,-2.231,-2.231,-2.231,-2.231,-2.231,-2.231,-2.231,-2.231,-2.231,-2.231,-2.231,-2.231,-2.231,-2.231,-2.231,-2.231,-2.231,-2.231,-1.897,-1.9023,-1.9256,-1.9479,-2.0391,-2.1254,-2.1448,-2.1498,-2.1651,-2.2192,-2.231,-2.2598,-2.3528,-2.3697,-2.4188,-2.5659,-2.5913,-2.6099,-2.6623,-2.6438,-2.6051,-2.5496,-2.5715,-2.6,-2.6219,-2.6506,-2.6691,-2.6691,-2.659,-2.6505,-2.6505,-2.6033,-2.5762,-2.5762,-2.5452,-2.5488,-2.5986,-2.5629,-2.5678,-2.6168,-2.5786,-2.5615,-2.5615,-2.5615,-2.536,-2.4881,-2.5405,-2.533,-2.4881,-2.542,-2.5615,-2.554,-2.4836,-2.4836,-2.5037,-2.398,-2.3794,-2.4032,-2.4032,-2.4307,-2.4632,-2.4632,-2.4973,-2.5486,-2.5888,-2.6085,-2.6262,-2.6624,-2.6691,-2.6573,-2.6048,-2.5761,-2.5338,-2.4255,-2.3697,-2.3241,-2.2733,-2.2446,-2.231,-2.231,-2.231,-2.231,-2.231,-2.231,-2.231,-2.231,-2.231,-2.231,-2.231,-2.231,-2.231,-2.231,-2.231,-2.231,-2.231,-2.231,-2.231,-2.231,-2.231,-2.231,-2.231,-2.231,-2.231,-2.231,-2.231,-2.231,-2.231,-2.231,-2.231,-2.231,-2.231,-2.231,-1.8893,-1.8668,-1.8866,-2.0685,-2.117,-2.138,-2.2107,-2.2276,-2.2276,-2.231,-2.231,-2.275,-2.4188,-2.4472,-2.4932,-2.642,-2.6657,-2.6674,-2.6691,-2.5765,-2.5026,-2.5044,-2.4414,-2.4282,0.0,-2.6051,-2.6691,-2.6691,-2.6297,-2.6013,-2.6013,-2.5486,-2.5221,-2.5221,-2.5346,-2.5385,-2.5416,-2.5561,-2.5585,-2.56,-2.5615,-2.5615,-2.5615,-2.5615,-2.56,-2.5585,-2.56,-2.56,-2.5585,-2.56,-2.5615,-2.554,-2.4836,-2.4627,-2.4537,-2.3849,-2.4266,-2.5144,-2.5144,-2.5182,-2.5182,-2.5182,-2.554,-2.5977,-2.6013,-2.6332,-2.6691,-2.6691,-2.6691,-2.6691,-2.6657,-2.6133,-2.5592,-2.5558,-2.4441,-2.3393,-2.3359,-2.2801,-2.231,-2.231,-2.231,-2.231,-2.231,-2.231,-2.231,-2.231,-2.231,-2.231,-2.231,-2.231,-2.231,-2.231,-2.231,-2.231,-2.231,-2.231,-2.231,-2.231,-2.231,-2.231,-2.231,-2.231,-2.231,-2.231,-2.231,-2.231,-2.231,-2.231,-2.231,-2.231,-2.231,-2.231,-1.9816,-2.0104,-2.0404,-2.1042,-2.1566,-2.1989,-2.2243,-2.231,-2.231,-2.231,-2.2032,-2.2152,-2.3131,-2.3747,-2.4413,-2.5413,-2.5946,-2.6227,-2.6227,-2.5586,-2.4968,-2.4463,-2.4928,0.0,0.0,0.0,0.0,-2.6229,-2.6085,-2.5852,-2.5486,-2.495,-2.4876,-2.5321,-2.5035,-2.5304,-2.6181,-2.6234,-2.6482,-2.6916,-2.6916,-2.6916,-2.6916,-2.6916,-2.6677,-2.6288,-2.6722,-2.6662,-2.6303,-2.6722,-2.6916,-2.6841,-2.6183,-2.5659,-2.5196,-2.4522,-2.4187,-2.4158,-2.4158,-2.4389,-2.4672,-2.4672,-2.5012,-2.5449,-2.5449,-2.5561,-2.5783,-2.6139,-2.6227,-2.6297,-2.6624,-2.6522,-2.6201,-2.5727,-2.5236,-2.4729,-2.4222,-2.3917,-2.3748,-2.3748,-2.3748,-2.3596,-2.3105,-2.3038,-2.2868,-2.2378,-2.231,-2.231,-2.231,-2.231,-2.231,-2.231,-2.231,-2.231,-2.231,-2.231,-2.231,-2.231,-2.231,-2.231,-2.231,-2.231,-2.231,-2.231,-2.231,-2.231,-2.231,-2.231,-2.231,-2.231,-2.231,-2.231,-2.0567,-2.0982,-2.1271,-2.1515,-2.1955,-2.231,-2.231,-2.231,-2.231,-2.231,-2.1928,-2.1842,-2.2566,-2.311,-2.3737,-2.4587,-2.5198,-2.5576,-2.5693,-2.5034,-2.4372,-2.3907,-2.4356,-2.4588,0.0,0.0,0.0,-2.5947,-2.5652,-2.5371,-2.5274,-2.4761,-2.4762,-2.5465,-2.5379,-2.5734,-2.6572,-2.6826,-2.7156,-2.7625,-2.7625,-2.7625,-2.7625,-2.7625,-2.7335,-2.6961,-2.738,-2.7385,-2.6976,-2.7395,-2.7625,-2.75,-2.6841,-2.6333,-2.5854,-2.4956,-2.4343,-2.3924,-2.3684,-2.3837,-2.4116,-2.4116,-2.4471,-2.4934,-2.5144,-2.5221,-2.5297,-2.5852,-2.6013,-2.6085,-2.6367,-2.659,-2.6573,-2.6116,-2.5795,-2.5473,-2.5,-2.4678,-2.4506,-2.4506,-2.4506,-2.4371,-2.3866,-2.3562,-2.3139,-2.2412,-2.231,-2.231,-2.231,-2.231,-2.231,-2.231,-2.231,-2.231,-2.231,-2.231,-2.231,-2.231,-2.231,-2.231,-2.231,-2.231,-2.231,-2.231,-2.231,-2.231,-2.231,-2.231,-2.231,-2.231,-2.231,-2.231,-2.113,-2.1271,-2.1414,-2.2141,-2.231,-2.231,-2.231,-2.231,-2.2282,-2.2282,-2.1899,-2.1796,0.0,0.0,-2.2965,-2.3963,-2.4473,-2.4841,-2.5109,-2.4147,-2.3444,0.0,0.0,0.0,0.0,0.0,0.0,-2.5917,0.0,-2.4704,-2.5388,-2.4926,-2.4986,-2.563,-2.6258,-2.6602,-2.6632,-2.726,-2.7625,-2.7625,-2.7625,-2.7625,-2.7625,-2.7625,-2.7625,-2.7625,-2.7625,-2.7625,-2.7625,-2.7625,-2.7625,-2.7565,-2.6886,-2.6617,-2.6437,-2.5196,-2.4642,-2.4492,-2.3879,-2.3625,-2.3595,-2.3595,-2.3948,-2.4471,-2.4989,-2.5144,-2.5297,-2.5852,-2.6013,-2.6013,-2.6049,-2.6367,-2.6691,-2.6691,-2.6167,-2.5659,-2.5659,-2.5101,-2.4625,-2.4625,-2.4591,-2.4574,-2.4574,-2.3934,-2.3224,-2.253,-2.2412,-2.2395,-2.2327,-2.231,-2.231,-2.231,-2.231,-2.231,-2.231,-2.231,-2.231,-2.231,-2.231,-2.231,-2.231,-2.231,-2.231,-2.231,-2.231,-2.231,-2.231,-2.231,-2.231,-2.231,-2.231,-2.231,-2.1843,-2.2023,-2.2073,-2.226,-2.231,-2.231,-2.231,-2.231,-2.2209,-2.1853,-2.143,-2.1103,0.0,0.0,0.0,-2.2729,-2.3368,0.0,-2.4523,-2.4004,0.0,-2.4204,0.0,-2.489,-2.5571,-2.5718,0.0,0.0,-2.5586,-2.5275,-2.553,-2.5392,-2.5659,-2.6318,-2.6497,-2.6826,-2.737,-2.7535,-2.7625,-2.7625,-2.7625,-2.7625,-2.7625,-2.7625,-2.7625,-2.7625,-2.7625,-2.7625,-2.7625,-2.7625,-2.7625,-2.761,-2.738,-2.7021,-2.6557,-2.6213,-2.548,-2.4567,-2.4373,-2.4029,-2.3595,-2.3595,-2.3681,-2.3906,-2.443,-2.4576,-2.4776,-2.5726,-2.6013,-2.6085,-2.6436,-2.6624,-2.6691,-2.6691,-2.6556,-2.642,-2.642,-2.6268,-2.6133,-2.6133,-2.5693,-2.5321,-2.5321,-2.4695,-2.4167,-2.3951,-2.3934,-2.3528,-2.2446,-2.231,-2.231,-2.231,-2.231,-2.231,-2.231,-2.231,-2.231,-2.231,-2.231,-2.231,-2.231,-2.231,-2.231,-2.231,-2.231,-2.231,-2.231,-2.231,-2.231,-2.231,-2.231,-2.231,-2.2665,-2.3021,-2.319,-2.2868,-2.2784,-2.2642,-2.2099,-2.2003,-2.1869,-2.1446,-2.0975,-2.0616,-2.0348,-2.069,0.0,0.0,0.0,0.0,-2.3937,-2.4066,-2.4193,0.0,-2.5137,0.0,-2.6001,-2.6032,-2.6153,0.0,-2.5864,-2.5637,-2.6004,-2.6033,-2.6348,-2.7006,-2.7021,-2.72,-2.7625,-2.7625,-2.7625,-2.7625,-2.7625,-2.7625,-2.7625,-2.7625,-2.7625,-2.7625,0.0,-2.7625,-2.7625,-2.7625,-2.7625,-2.7625,-2.7625,-2.735,-2.6976,-2.6692,-2.6123,-2.545,-2.5151,-2.4807,-2.4388,-2.3789,-2.3595,-2.3724,-2.4225,-2.4241,-2.4225,-2.5067,-2.5449,-2.5726,-2.598,-2.635,-2.6691,-2.6691,-2.6691,-2.6691,-2.6691,-2.6691,-2.6691,-2.6691,-2.637,-2.5981,-2.5659,-2.5253,-2.4864,-2.4557,-2.4506,-2.4188,-2.3359,-2.3274,-2.3274,-2.3274,-2.3274,-2.3139,-2.2818,-2.2784,-2.2649,-2.2327,-2.231,-2.231,-2.231,-2.231,-2.231,-2.231,-2.231,-2.231,-2.231,-2.231,-2.231,-2.231,-2.231,-2.218,-2.3393,-2.3934,-2.4337,-2.3579,-2.3393,-2.3085,-2.1883,-2.1546,-2.136,-2.0895,-2.0457,-2.0156,-2.0088,-2.015,-2.0548,-2.1549,0.0,-2.2522,-2.3458,-2.4193,-2.4612,-2.4701,-2.533,-2.5779,-2.5869,-2.5869,-2.6108,-2.6677,-2.6198,-2.6123,-2.6692,-2.6722,-2.6976,-2.761,-2.7625,-2.7625,-2.7625,-2.7625,-2.7625,-2.7625,-2.7625,-2.7625,-2.7625,-2.7625,-2.7625,-2.7625,0.0,0.0,-2.7625,-2.7625,-2.7625,-2.7625,-2.7625,-2.7625,-2.755,-2.6931,-2.6662,-2.6512,-2.5929,-2.5674,-2.5405,-2.4148,-2.3729,-2.3801,-2.4256,-2.4074,-2.3837,-2.4348,-2.4816,-2.5221,-2.5221,-2.5855,-2.6505,-2.6505,-2.6505,-2.6505,-2.6505,-2.6505,-2.6505,-2.6505,-2.6505,-2.6303,-2.5747,-2.5646,-2.5427,-2.4801,-2.47,-2.47,-2.47,-2.4563,-2.4506,-2.4506,-2.4506,-2.4222,-2.3596,-2.3545,-2.3224,-2.2496,-2.2462,-2.2412,-2.231,-2.231,-2.231,-2.231,-2.231,-2.231,-2.231,-2.231,-2.2282,-2.2209,-2.2209,-2.1974,-2.3393,-2.3934,-2.4337,-2.3579,-2.3393,-2.3085,-2.1883,-2.1151,0.0,0.0,-1.9622,-1.9425,-1.9057,-1.9441,-2.0219,-2.147,-2.1759,-2.2209,-2.3415,-2.4193,-2.4837,0.0,-2.6019,-2.6632,-2.7186,0.0,0.0,0.0,0.0,0.0,-2.7395,-2.7445,-2.7505,-2.7625,-2.7625,-2.7625,-2.7625,-2.7625,-2.7625,-2.7625,-2.7625,-2.7625,-2.7625,-2.7625,-2.7625,-2.7625,0.0,0.0,-2.7625,-2.7625,-2.7625,-2.7625,-2.7625,-2.7625,-2.761,-2.744,-2.7066,-2.6572,-2.6452,-2.6063,-2.548,-2.4702,-2.4448,-2.4417,-2.441,-2.4348,-2.4389,-2.491,-2.5144,-2.5221,-2.5221,-2.5335,-2.5449,-2.5449,-2.5449,-2.5449,-2.5449,-2.5449,-2.5449,-2.5449,-2.5449,-2.5566,-2.5884,-2.5938,-2.5889,-2.5756,-2.574,-2.574,-2.574,-2.4994,-2.4506,-2.4506,-2.4506,-2.4455,-2.4337,-2.432,-2.3985,-2.3257,-2.3207,-2.2936,-2.2344,-2.231,-2.231,-2.231,-2.231,-2.231,-2.231,-2.231,-2.2106,-2.1718,-2.1718,-2.1507,-2.3951,-2.478,-2.5372,-2.4239,-2.3951,-2.3496,-2.1691,0.0,0.0,-1.9223,-1.8751,-1.8548,-1.8676,-1.8957,0.0,-2.0961,-2.1186,-2.1635,-2.2936,-2.3984,-2.4821,-2.554,-2.6497,-2.723,0.0,0.0,0.0,0.0,0.0,0.0,-2.7625,-2.7625,-2.7625,-2.7625,-2.7625,-2.7625,-2.7625,-2.7625,-2.7625,-2.7625,-2.7625,-2.7625,-2.7625,-2.7625,-2.7625,-2.7625,-2.7625,0.0,-2.7625,-2.7625,-2.7625,-2.7625,-2.7625,-2.7625,-2.7625,-2.7625,-2.743,-2.7096,-2.7096,-2.6901,-2.6512,-2.5869,-2.542,-2.5122,-2.5031,-2.5013,-2.4996,-2.4914,-2.5113,-2.5224,-2.4871,-2.4989,-2.5221,-2.5221,-2.5221,-2.5221,-2.5221,-2.5221,-2.5221,-2.5221,-2.5221,-2.5297,-2.554,-2.5577,-2.5577,-2.5577,-2.5577,-2.5689,-2.5961,-2.5577,-2.538,-2.5625,-2.5625,-2.5473,-2.5101,-2.5067,-2.4746,-2.4002,-2.3951,-2.363,-2.2902,-2.2868,-2.2596,-2.1945,-2.1928,-2.184,-2.1615,-2.1615,-2.1615,-2.1582,-2.1399,-2.1181,-2.4506,-2.5439,-2.615,-2.4814,-2.4326,-2.3575,-2.1472,-2.0304,0.0,-1.8646,-1.7936,-1.7682,-1.8373,-1.8612,-1.9151,0.0,-2.0722,-2.1171,-2.2488,-2.367,-2.4702,0.0,-2.6647,0.0,-2.761,0.0,0.0,0.0,0.0,0.0,-2.7625,-2.7625,-2.7625,-2.7625,-2.7625,-2.7509,-2.7357,-2.7524,-2.7524,-2.7357,-2.7509,-2.7625,-2.7625,-2.7625,-2.7625,-2.7625,-2.7625,0.0,0.0,-2.7625,-2.7625,-2.7625,-2.7625,-2.7625,-2.7625,-2.7625,-2.7625,-2.7625,-2.7625,-2.7625,-2.7535,-2.6976,-2.6363,-2.5794,-2.5644,-2.5615,-2.5495,-2.4986,-2.5016,-2.5121,-2.4568,-2.4661,-2.4902,-2.5061,-2.5163,-2.5289,-2.5289,-2.5163,-2.5052,-2.5052,-2.4966,-2.4894,-2.5012,-2.5028,-2.5028,-2.5028,-2.5144,-2.5297,-2.5615,-2.5852,-2.6156,-2.6505,-2.6657,-2.6471,-2.5896,-2.5845,-2.5524,-2.4763,-2.4729,-2.4391,-2.3663,-2.3401,-2.2805,-2.1859,-2.1603,-2.1306,-2.0991,-2.0991,-2.1118,-2.1321,-2.1023,-2.0797,-2.4506,-2.5084,-2.5507,-2.4678,-2.3689,-2.2536,-2.1295,0.0,-1.8393,-1.7902,-1.7264,-1.701,-1.7652,-1.8298,-1.9151,-2.0498,-2.0722,-2.1171,-2.2488,-2.3266,-2.4178,-2.545,0.0,0.0,-2.7565,0.0,0.0,0.0,0.0,0.0,0.0,-2.7625,-2.7625,-2.7625,-2.7625,-2.7306,-2.6616,-2.7255,-2.7255,-2.6616,-2.7306,-2.7625,-2.7625,-2.7625,-2.7625,-2.7625,0.0,0.0,0.0,-2.7625,-2.7625,-2.7625,-2.7625,-2.7625,-2.7625,-2.7625,-2.7625,-2.7625,-2.7625,-2.7625,-2.761,-2.755,-2.7036,-2.6393,-2.5794,-2.5615,-2.56,-2.554,-2.5091,-2.4657,-2.4597,-2.4146,-2.3917,-2.4506,-2.5108,-2.5544,-2.5544,-2.5078,-2.4656,-2.4656,-2.4145,-2.3921,-2.4389,-2.4471,-2.4471,-2.4471,-2.491,-2.5028,-2.4576,-2.5411,-2.6013,-2.6049,-2.6436,-2.6674,-2.659,-2.659,-2.6285,-2.5558,-2.5507,-2.5169,-2.4438,-2.3345,-2.2712,-2.2599,-2.16,-2.1023,-2.0991,-2.0991,-2.0797,-2.0416,-2.0382,-2.0158,-2.3755,-2.4202,-2.4396,-2.3612,-2.2848,-2.1924,-2.0383,-1.9171,-1.8161,-1.7269,-1.6592,-1.6473,-1.7503,-1.7939,-1.8553,-1.9884,-2.0094,-2.0423,-2.1365,-2.2054,-2.3086,-2.4822,-2.56,0.0,0.0,0.0,0.0,0.0,0.0,0.0,0.0,-2.7137,-2.7408,-2.693,-2.693,-2.6602,-2.5837,-2.6108,-2.6322,-2.651,-2.6774,-2.7152,-2.7575,-2.7137,-2.7203,-2.7575,0.0,0.0,0.0,-2.7625,-2.7625,-2.7625,-2.7625,-2.7625,-2.7625,-2.7625,-2.7625,-2.7565,-2.7126,-2.7245,-2.75,-2.7111,-2.7066,-2.7126,-2.6871,-2.6782,-2.6707,-2.6318,-2.5734,-2.5136,-2.4686,-2.4373,-2.4388,-2.5061,-2.542,-2.5615,-2.5615,-2.5405,-2.5106,-2.4657,-2.4358,-2.4118,-2.3955,-2.3921,-2.3921,-2.3921,-2.4116,-2.4266,-2.4389,-2.4776,-2.5182,-2.5486,-2.598,-2.6297,-2.6297,-2.6297,-2.6023,-2.5389,-2.5673,-2.5359,-2.429,-2.3807,-2.3034,-2.1879,-2.1405,-2.0871,-2.0208,-2.0208,-2.0243,-2.028,-2.0054,-1.9965,-2.3103,-2.3364,-2.339,-2.2846,-2.2118,-2.1175,-1.9747,-1.8763,-1.7899,-1.6908,-1.6219,-1.6203,-1.749,-1.7584,-1.7933,-1.9465,-1.9566,-1.9694,-2.0374,-2.0863,-2.1754,0.0,0.0,0.0,0.0,0.0,0.0,0.0,0.0,0.0,0.0,-2.6269,-2.6707,-2.6176,-2.6176,-2.5837,-2.5063,-2.5287,-2.5673,-2.6176,-2.6176,-2.6549,-2.7255,-2.6496,-2.6443,-2.6916,0.0,0.0,0.0,-2.7188,-2.724,-2.7306,-2.7509,-2.7625,-2.7625,-2.7625,-2.7625,-2.75,-2.7036,-2.7066,-2.72,-2.6737,-2.6782,-2.7036,-2.7215,-2.746,-2.752,-2.7006,-2.6408,-2.5749,-2.5091,-2.5061,-2.533,-2.5794,-2.6048,-2.6183,-2.6183,-2.6033,-2.5764,-2.53,-2.4851,-2.4433,-2.3984,-2.3729,-2.3595,-2.3595,-2.3767,-2.3921,-2.4158,-2.443,-2.4712,-2.495,-2.5297,-2.5577,-2.5762,-2.5762,-2.5615,-2.5221,-2.5561,-2.535,-2.4441,-2.4068,-2.3258,-2.1957,-2.1409,-2.074,-1.9989,-1.9794,-1.9839,-2.0124,-1.9839,-1.9909,-2.2714,-2.2714,-2.2714,-2.2698,-2.1503,-2.0159,-1.9541,-1.8507,-1.7503,-1.6846,-1.6219,-1.6203,-1.749,-1.7257,-1.7528,-1.9394,-1.9244,-1.9161,-1.9825,-1.9926,-2.0239,0.0,0.0,0.0,0.0,0.0,0.0,0.0,0.0,0.0,0.0,-2.5007,-2.5398,-2.5398,-2.5398,-2.5063,-2.435,-2.5063,-2.5398,-2.5398,-2.5398,-2.5783,-2.651,-2.5728,-2.5398,0.0,0.0,0.0,0.0,-2.6229,-2.651,-2.6563,-2.7306,-2.7625,-2.7625,-2.7625,-2.7625,-2.7625,-2.761,-2.7141,-2.6602,-2.6587,-2.6153,-2.5749,-2.6408,-2.7051,-2.7625,-2.761,-2.7096,-2.6437,-2.5764,-2.6078,-2.6572,-2.6572,-2.7081,-2.7595,-2.7595,-2.7036,-2.6572,-2.6572,-2.5525,-2.4582,-2.4567,-2.4059,-2.3595,-2.3595,-2.4032,-2.4184,-2.3681,-2.4552,-2.4989,-2.4471,-2.443,-2.4617,-2.5182,-2.5221,-2.5221,-2.5221,-2.5221,-2.5205,-2.5205,-2.4037,-2.3406,-2.339,-2.1606,-2.0707,-2.0707,-2.0019,-1.969,-1.9726,-1.969,-1.9909,-2.1407,-2.1552,-2.1472,-2.1131,-2.0469,-1.9587,-1.85,-1.7751,-1.7063,-1.6248,-1.5684,-1.5682,-1.6799,-1.6647,-1.6968,-1.8811,-1.8664,-1.8551,-1.914,0.0,0.0,-2.1389,0.0,0.0,0.0,0.0,0.0,0.0,0.0,0.0,0.0,0.0,-2.4105,-2.4624,-2.4624,-2.4279,-2.3484,-2.3708,-2.4105,-2.4624,-2.4624,-2.5007,-2.5728,-2.4951,0.0,0.0,0.0,0.0,0.0,-2.5673,-2.6068,-2.651,-2.6774,-2.6872,-2.6901,-2.6901,-2.6617,-2.6168,-2.5719,-2.5719,-2.5839,-2.539,-2.542,-2.5734,-2.6393,-2.6737,-2.6901,-2.6901,-2.6752,-2.6542,-2.6333,-2.6437,-2.6707,-2.7156,-2.7475,-2.7625,-2.7625,-2.741,-2.7126,-2.6677,-2.5899,-2.5151,-2.4657,-2.4059,-2.3595,-2.3595,-2.3752,-2.3794,-2.3638,-2.3921,-2.4032,-2.3879,-2.3837,-2.4074,-2.4632,-2.4657,-2.4511,-2.4116,-2.4471,-2.4511,-2.4116,-2.3751,-2.3322,-2.294,-2.2385,-2.162,-2.0722,-2.0498,-2.0154,-1.969,-1.969,-1.9909,-2.0162,-2.04,-2.0383,-2.032,-1.9817,-1.9031,-1.7936,-1.7326,-1.6679,-1.5728,-1.5299,-1.5322,-1.6128,-1.5876,-1.6165,-1.7955,-1.7813,-1.7691,0.0,0.0,0.0,0.0,0.0,0.0,0.0,0.0,0.0,0.0,0.0,0.0,0.0,0.0,-2.3305,-2.3826,-2.3826,-2.3603,-2.3078,-2.3078,-2.3484,-2.4292,-2.4002,-2.4221,-2.4951,-2.4221,0.0,0.0,0.0,0.0,0.0,-2.4838,-2.5398,-2.6094,-2.6117,-2.6316,-2.6557,-2.6318,-2.5959,-2.5555,-2.5136,-2.5106,-2.5166,-2.4716,-2.5076,-2.5689,-2.6093,-2.6572,-2.6961,-2.6961,-2.6961,-2.6961,-2.6961,-2.6961,-2.7066,-2.752,-2.7625,-2.7625,-2.7625,-2.7625,-2.7505,-2.7036,-2.6437,-2.5764,-2.5106,-2.4433,-2.3894,-2.364,-2.3595,-2.3595,-2.3595,-2.3595,-2.3595,-2.3595,-2.3595,-2.3767,-2.4074,-2.4116,-2.3964,-2.3638,-2.3921,-2.3948,-2.3595,-2.3595,-2.3415,-2.3041,-2.2843,-2.2278,-2.1455,-2.0961,-2.0617,-2.0438,-2.0183,-2.0425,0.0,-1.9246,-1.9463,-1.9986,-1.9356,-1.8463,-1.7772,-1.7113,0.0,-1.5294,-1.5043,-1.5105,-1.5421,-1.5059,-1.5252,-1.7033,-1.6844,-1.6678,0.0,-1.786,0.0,0.0,0.0,0.0,0.0,0.0,0.0,0.0,0.0,0.0,0.0,0.0,-2.3078,-2.3078,-2.3078,-2.3078,-2.3078,-2.3078,-2.3484,-2.4234,-2.3484,-2.3484,-2.4176,-2.3424,0.0,0.0,0.0,0.0,0.0,-2.382,-2.4587,-2.5204,-2.5313,-2.5798,-2.6314,-2.5764,-2.551,-2.5465,-2.5465,-2.5061,-2.4507,-2.4507,-2.5031,-2.5615,-2.5615,-2.6527,-2.7625,-2.7625,-2.7625,-2.7625,-2.7625,-2.7625,-2.7625,-2.7625,-2.7625,-2.7625,-2.7625,-2.7625,-2.7625,-2.7625,-2.7036,-2.6393,-2.5779,-2.5136,-2.4433,-2.3849,-2.3699,-2.3684,-2.3744,-2.3699,-2.367,-2.367,-2.367,-2.3655,-2.3595,-2.3595,-2.3595,-2.3595,-2.3595,-2.3595,-2.3595,-2.3595,-2.3595,-2.3595,-2.2996,-2.2724,-2.2724,-2.1395,-2.1096,-2.168,-2.1066,-2.1311,-1.641,0.0,-1.8578,-1.8364,-1.8125,-1.7757,0.0,-1.6346,-1.5659,-1.5188,-1.4596,-1.4422,-1.5188,-1.499,-1.5254,-1.6957,-1.6811,-1.6723,-1.7308,0.0,0.0,0.0,0.0,0.0,0.0,0.0,0.0,0.0,0.0,0.0,0.0,0.0,-2.3078,-2.3078,-2.3078,-2.3078,-2.3078,-2.3078,-2.3185,-2.3365,-2.3198,-2.3198,-2.3365,-2.3198,0.0,0.0,0.0,0.0,-2.2498,-2.2673,-2.2963,-2.3286,-2.3851,-2.4163,-2.4411,-2.4713,-2.4522,-2.4073,-2.4073,-2.3969,-2.3849,-2.3849,-2.4642,-2.5615,-2.5615,-2.6527,-2.7625,-2.7625,-2.7625,-2.7625,-2.7625,-2.7625,-2.7625,-2.7625,-2.7625,-2.7625,-2.7625,-2.7625,-2.7625,-2.7625,-2.7036,-2.6542,-2.6378,-2.5809,-2.5315,-2.5151,-2.4702,-2.4567,-2.5076,-2.4702,-2.4343,-2.4343,-2.4343,-2.4178,-2.364,-2.3595,-2.3595,-2.3595,-2.3595,-2.3595,-2.3595,-2.3595,-2.3595,-2.3595,-2.2996,-2.2724,-2.2724,-2.1859,-2.1545,-2.1695,-2.1545,-2.1749,-1.5169,-1.6668,-1.8111,-1.8155,-1.7921,-1.756,-1.6996,-1.6056,-1.5159,-1.4665,-1.4214,-1.4073,-1.4655,-1.4563,-1.4898,-1.6276,-1.6312,0.0,0.0,0.0,0.0,0.0,0.0,0.0,0.0,0.0,0.0,0.0,0.0,0.0,0.0,0.0,-2.2498,-2.2749,-2.2761,-2.2874,-2.3078,-2.3078,-2.3078,-2.3078,-2.3078,-2.3078,-2.3078,-2.3078,0.0,0.0,0.0,0.0,-2.1933,-2.1933,-2.218,-2.2605,-2.2654,-2.3103,-2.3696,-2.3712,-2.3689,-2.3595,-2.3595,-2.3595,-2.3595,-2.3595,-2.4298,-2.5211,-2.5525,-2.6318,-2.7235,-2.7535,-2.7625,-2.7625,-2.7625,-2.7625,-2.7625,-2.7625,-2.7625,-2.7625,-2.7625,-2.7625,-2.7625,-2.7625,-2.729,-2.6946,-2.6632,-2.6303,-2.5959,-2.5659,-2.53,-2.5211,-2.5555,-2.53,-2.5076,-2.5076,-2.4761,-2.4433,-2.4103,-2.3789,-2.3595,-2.3595,-2.3595,-2.3595,-2.3595,-2.3595,-2.3595,-2.3595,-2.3266,-2.3101,-2.3101,-2.2458,-2.2293,-2.2562,-2.2278,-2.244,-1.4588,-1.6144,-1.7652,-1.8034,-1.7811,-1.7326,-1.6814,-1.577,-1.4721,-1.4019,-1.3901,-1.3981,-1.4183,-1.4286,0.0,0.0,0.0,0.0,0.0,0.0,0.0,0.0,0.0,0.0,0.0,0.0,0.0,0.0,0.0,0.0,0.0,0.0,0.0,-2.2171,-2.194,-2.2163,-2.2874,-2.299,-2.3078,-2.3078,-2.3078,-2.3027,-2.2952,-2.2952,0.0,0.0,0.0,0.0,-2.1368,-2.1368,-2.1665,-2.2101,-2.1667,-2.2215,-2.3226,-2.285,-2.3009,-2.3465,-2.3551,-2.3595,-2.3595,-2.3595,-2.4059,-2.4701,-2.542,-2.6063,-2.6722,-2.738,-2.7625,-2.7625,-2.7625,-2.7625,-2.7625,-2.7625,-2.7625,-2.7625,-2.7625,-2.7625,-2.7625,-2.7625,-2.7625,-2.7395,-2.6841,-2.6737,-2.6557,-2.5989,-2.5824,-2.5794,-2.5899,-2.5824,-2.5749,-2.5749,-2.5255,-2.4806,-2.4597,-2.4088,-2.3714,-2.361,-2.3595,-2.3595,-2.3595,-2.3595,-2.3595,-2.3595,-2.3595,-2.3595,-2.3595,-2.3071,-2.3086,-2.3595,-2.3056,-2.3101,-1.4453,-1.5815,-1.6649,-1.5837,-1.5993,-1.6085,-1.5128,-1.4479,-1.4052,-1.3934,-1.399,-1.4196,-1.4676,-1.5167,-1.5806,0.0,0.0,0.0,0.0,0.0,0.0,0.0,0.0,0.0,0.0,0.0,0.0,0.0,0.0,0.0,0.0,0.0,0.0,-2.155,-2.0427,-2.0404,-2.1732,-2.2673,-2.3078,-2.3078,-2.3078,-2.2887,-2.2435,-2.2435,-2.2133,0.0,0.0,-2.1305,-2.0844,-2.0844,-2.0608,-2.0296,-2.0716,-2.1076,-2.1345,-2.2356,-2.274,-2.292,-2.3421,-2.3595,-2.3595,-2.3595,-2.4059,-2.4701,-2.542,-2.6063,-2.6722,-2.738,-2.7625,-2.7625,-2.7625,-2.7625,-2.7625,-2.7625,-2.7625,-2.7625,-2.7625,-2.7625,-2.7625,-2.7625,-2.7625,-2.7595,-2.749,-2.7475,-2.738,-2.729,-2.6797,-2.6632,-2.72,-2.6782,-2.6437,-2.6437,-2.6348,-2.5839,-2.4686,-2.4492,-2.4223,-2.364,-2.3595,-2.3595,-2.3595,-2.3595,-2.3595,-2.3595,-2.3595,-2.3595,-2.3595,-2.3505,-2.3505,-2.3595,-2.3505,-2.3505,-1.346,-1.4677,-1.5579,-1.518,-1.632,-1.7338,-1.6618,-1.5819,-1.514,-1.4932,-1.4704,-1.4702,0.0,0.0,-1.6509,-1.7639,0.0,0.0,0.0,0.0,0.0,0.0,0.0,0.0,0.0,0.0,0.0,0.0,0.0,0.0,0.0,0.0,0.0,0.0,-1.9195,-1.9506,-2.0893,-2.1382,-2.1814,-2.2246,-2.2246,-2.2121,-2.187,-2.187,-2.1568,-2.1041,0.0,-2.0727,-2.02,-2.02,-2.0037,-1.985,-2.0144,-2.0497,-2.0894,-2.1819,-2.2146,-2.2193,-2.2469,-2.2801,-2.3098,-2.3098,-2.3541,-2.4268,-2.53,-2.5824,-2.6273,-2.729,-2.7625,-2.7625,-2.7625,-2.7625,-2.7625,-2.7625,-2.7625,-2.7625,-2.7625,-2.7625,-2.7625,-2.7625,-2.7625,-2.7625,-2.7625,-2.7625,-2.7625,-2.7625,-2.737,-2.723,-2.758,-2.7355,-2.7126,-2.7126,-2.6797,-2.6198,-2.5241,-2.4791,-2.4328,-2.364,-2.3595,-2.3595,-2.3595,-2.3595,-2.3595,-2.3595,-2.3595,-2.3595,-2.3595,-2.3595,-2.3595,-2.3595,-2.3595,-2.3595,-1.3056,-1.3938,-1.4768,-1.5224,-1.6641,-1.7915,-1.7768,-1.6711,-1.5775,-1.5705,-1.5376,0.0,0.0,-1.6358,0.0,0.0,0.0,0.0,0.0,0.0,0.0,0.0,0.0,0.0,0.0,0.0,0.0,0.0,0.0,0.0,0.0,0.0,0.0,0.0,-1.7931,-1.8395,-1.9757,-1.9757,-2.0354,-2.1493,-2.1493,-2.1418,-2.1292,-2.1292,-2.0991,-2.0464,-2.0464,-2.0213,-1.9798,-1.9798,-1.9798,-1.9798,-1.9798,-2.0194,-2.0845,-2.1342,-2.1568,-2.1697,-2.1697,-2.2053,-2.2452,-2.2452,-2.277,-2.3393,-2.4771,-2.5174,-2.5441,-2.6961,-2.7385,-2.743,-2.758,-2.7625,-2.7625,-2.7625,-2.7625,-2.7625,-2.7625,-2.7625,-2.7625,-2.7625,-2.7625,-2.7625,-2.7625,-2.7625,-2.7625,-2.7625,-2.7625,-2.7625,-2.7625,-2.7625,-2.7625,-2.7625,-2.7126,-2.6497,-2.5674,-2.5016,-2.4328,-2.364,-2.3595,-2.3595,-2.3595,-2.3595,-2.3595,-2.3595,-2.3595,-2.3595,-2.3595,-2.3595,-2.3595,-2.3595,-2.3595,-2.3595,-1.4288,-1.4391,-1.4443,-1.5727,-1.5872,-1.5879,-1.6487,-1.5381,-1.4531,-1.5515,-1.5685,0.0,0.0,-1.6999,0.0,0.0,0.0,0.0,0.0,0.0,0.0,0.0,0.0,0.0,0.0,0.0,0.0,0.0,0.0,0.0,0.0,0.0,0.0,0.0,0.0,-1.6306,-1.78,-1.7789,-1.9045,-2.1493,-2.1493,-2.1217,-2.0781,-2.0781,-2.0413,-1.9861,-1.9861,-1.9836,-1.9798,-1.9798,-1.9798,-1.9798,-1.9798,-2.0194,-2.0795,-2.0845,-2.1197,-2.1697,-2.1697,-2.1744,-2.1758,-2.1758,-2.1791,-2.2072,-2.3439,-2.3858,-2.4214,-2.6128,-2.6662,-2.6797,-2.746,-2.7625,-2.7625,-2.7625,-2.7625,-2.7625,-2.7625,-2.7625,-2.7625,-2.7625,-2.7625,-2.7625,-2.7625,-2.7625,-2.7625,-2.7625,-2.7625,-2.7625,-2.7625,-2.7625,-2.7625,-2.7625,-2.758,-2.6976,-2.5719,-2.5016,-2.4328,-2.364,-2.3595,-2.3595,-2.3595,-2.3595,-2.3595,-2.3595,-2.3595,-2.3595,-2.3595,-2.3595,-2.3595,-2.3595,-2.3595,-2.3595,-1.3107,-1.3594,-1.427,-1.5203,-1.5466,-1.5762,-1.6761,-1.6537,-1.6205,-1.6613,-1.6445,0.0,0.0,0.0,0.0,0.0,0.0,0.0,0.0,0.0,0.0,0.0,0.0,0.0,0.0,0.0,0.0,0.0,0.0,0.0,0.0,0.0,0.0,0.0,0.0,-1.5921,-1.6922,-1.7357,-1.8308,-1.977,-2.0213,-2.0326,-2.0125,-2.0125,-2.0012,-1.9798,-1.9798,-1.9798,-1.9798,-1.9798,-1.9798,-1.9798,-1.9798,-1.9952,-2.0207,-2.0207,-2.0333,-2.0521,-2.0521,-2.0769,-2.1161,-2.1161,-2.139,-2.1868,-2.2796,-2.3664,-2.4554,-2.5652,-2.6243,-2.6674,-2.7399,-2.7625,-2.7625,-2.7625,-2.7625,-2.7625,-2.7625,-2.7625,-2.7625,-2.7625,-2.7625,-2.7625,-2.7625,-2.7625,-2.7625,-2.7625,-2.7625,-2.7625,-2.7625,-2.7625,-2.7625,-2.7625,-2.72,-2.6752,-2.6258,-2.5615,-2.4956,-2.4283,-2.3834,-2.3595,-2.3595,-2.3595,-2.3595,-2.3595,-2.3595,-2.3595,-2.3595,-2.3595,-2.3595,-2.3595,-2.3595,-2.3595,-1.2683,-1.3162,-1.395,-1.4474,-1.4935,-1.5553,-1.6579,-1.6784,-1.6866,-1.7161,-1.6822,-1.6487,-1.6718,0.0,0.0,0.0,0.0,0.0,0.0,0.0,0.0,0.0,0.0,0.0,0.0,0.0,0.0,0.0,0.0,0.0,0.0,0.0,0.0,0.0,0.0,0.0,-1.6151,-1.6866,-1.7633,-1.834,-1.9097,-1.9579,-1.9798,-1.9798,-1.9798,-1.9798,-1.9798,-1.9798,-1.9798,-1.9798,-1.9798,-1.9798,-1.9798,-1.9798,-1.9798,-1.9798,-1.9798,-1.9798,-1.9798,-2.0105,-2.0497,-2.0497,-2.0769,-2.1215,-2.1893,-2.2837,-2.39,-2.4739,-2.5379,-2.6012,-2.6701,-2.7086,-2.7306,-2.756,-2.7625,-2.7625,-2.7625,-2.7625,-2.7625,-2.7625,-2.7625,-2.7625,-2.7625,-2.7625,-2.7625,-2.7625,-2.7625,-2.7625,-2.7625,-2.7625,-2.7625,-2.7625,-2.7171,-2.6811,-2.6602,-2.6183,-2.563,-2.4986,-2.4298,-2.3819,-2.361,-2.3595,-2.3595,-2.3595,-2.3595,-2.3595,-2.3595,-2.3595,-2.3595,-2.3595,-2.3595,-2.3681,-1.3489,-1.3347,-1.353,-1.3671,-1.4302,-1.5067,-1.558,-1.5706,-1.5953,-1.6916,-1.6662,-1.608,-1.5426,-1.627,0.0,0.0,0.0,0.0,0.0,0.0,0.0,0.0,0.0,0.0,0.0,0.0,0.0,0.0,0.0,0.0,0.0,0.0,0.0,0.0,0.0,0.0,-1.541,-1.6151,-1.6866,-1.7578,-1.8328,-1.9097,-1.9798,-1.9798,-1.9798,-1.9798,-1.9798,-1.9798,-1.9798,-1.9798,-1.9798,-1.9798,-1.9798,-1.9798,-1.9798,-1.9798,-1.9798,-1.9798,-1.9798,-1.9798,-1.9798,-1.9798,-1.9798,-1.9901,-2.0597,-2.1154,-2.1889,-2.3218,-2.3964,-2.4557,-2.5246,-2.596,-2.6669,-2.7408,-2.7575,-2.7625,-2.7625,-2.7625,-2.7625,-2.7625,-2.7625,-2.7625,-2.7625,-2.7625,-2.7625,-2.7625,-2.7625,-2.7625,-2.7625,-2.7625,-2.7625,-2.7625,-2.7625,-2.7355,-2.6662,-2.6602,-2.6318,-2.5659,-2.5016,-2.4343,-2.364,-2.361,-2.361,-2.361,-2.361,-2.361,-2.361,-2.361,-2.361,-2.3595,-2.361,-2.3879,-1.2524,-1.2727,-1.3266,-1.4067,-1.489,-1.5499,-1.5599,-1.596,-1.6299,0.0,-1.6056,-1.5522,-1.533,0.0,0.0,0.0,0.0,0.0,0.0,0.0,0.0,0.0,0.0,0.0,0.0,0.0,0.0,0.0,0.0,0.0,0.0,0.0,0.0,0.0,0.0,0.0,-1.541,-1.6151,-1.6595,-1.681,-1.8124,-1.9097,-1.9798,-1.9798,-1.9798,-1.9798,-1.9798,-1.9798,-1.9798,-1.9798,-1.9798,-1.9798,-1.9798,-1.9798,-1.9798,-1.9798,-1.9798,-1.9798,-1.9798,-1.9798,-1.9798,-1.9798,-1.9798,-1.985,-2.0055,-2.1121,-2.2406,-2.279,-2.3566,-2.4496,-2.519,-2.5175,-2.5287,-2.6549,-2.7203,-2.7625,-2.7625,-2.7625,-2.7625,-2.7625,-2.7625,-2.7625,-2.7625,-2.7625,-2.7625,-2.7625,-2.7625,-2.7625,-2.7625,-2.7625,-2.7625,-2.7625,-2.7625,-2.755,-2.7305,-2.7275,-2.7006,-2.6348,-2.6123,-2.5495,-2.4373,-2.4313,-2.4313,-2.4313,-2.4777,-2.4777,-2.4313,-2.4313,-2.4073,-2.361,-2.4103,-2.4606,-1.2624,-1.3094,-1.3788,-1.4464,-1.4989,-1.532,-1.526,0.0,0.0,0.0,-1.5233,-1.4893,-1.4658,0.0,0.0,0.0,0.0,0.0,0.0,0.0,0.0,0.0,0.0,0.0,0.0,0.0,0.0,0.0,0.0,0.0,0.0,0.0,0.0,0.0,0.0,0.0,-1.541,-1.5864,-1.6208,-1.6482,-1.7688,-1.8661,-1.9371,-1.9695,-1.9798,-1.9798,-1.9798,-1.9798,-1.9798,-1.9798,-1.9798,-1.9798,-1.9798,-1.9798,-1.9798,-1.9798,-1.9798,-1.9798,-1.9798,-1.9798,-1.9798,-1.9798,-1.9798,-1.9798,-1.9798,-2.0896,-2.2159,-2.2159,-2.2933,-2.3943,-2.4381,-2.4394,-2.4681,-2.6176,-2.6826,-2.7255,-2.7524,-2.7625,-2.7625,-2.7625,-2.7625,-2.7625,-2.7625,-2.7625,-2.7625,-2.7625,-2.7625,-2.7625,-2.7625,-2.7625,-2.7625,-2.7625,-2.7625,-2.7625,-2.7625,-2.7625,-2.7445,-2.7006,-2.6737,-2.6243,-2.5435,-2.5151,-2.5016,-2.5016,-2.5405,-2.542,-2.5016,-2.5016,-2.4672,-2.4029,-2.4941,-2.5518,-1.3195,-1.3893,-1.4556,-1.4752,-1.474,0.0,-1.4642,-1.4419,-1.4299,-1.438,0.0,-1.4163,0.0,0.0,0.0,0.0,0.0,0.0,0.0,0.0,0.0,0.0,0.0,0.0,0.0,0.0,0.0,0.0,0.0,0.0,0.0,0.0,0.0,0.0,0.0,0.0,-1.5352,-1.5352,-1.5718,0.0,-1.7092,-1.7784,-1.8484,-1.9399,-1.9798,-1.9798,-1.9798,-1.9798,-1.9798,-1.9798,-1.9798,-1.9798,-1.9798,-1.9798,-1.9798,-1.9798,-1.9798,-1.9798,-1.9798,-1.9798,-1.9798,-1.9798,-1.9798,-1.9798,-1.9798,-2.0552,-2.143,-2.1481,-2.2246,-2.3015,-2.3065,-2.3649,-2.4567,-2.596,-2.6404,-2.6669,-2.7357,-2.756,-2.7625,-2.7625,-2.7625,-2.7625,-2.7625,-2.7625,-2.7625,-2.7625,-2.7625,-2.7625,-2.7625,-2.7625,-2.7625,-2.7625,-2.7625,-2.7625,-2.7625,-2.7625,-2.7625,-2.7625,-2.7006,-2.6677,-2.6677,-2.6048,-2.5689,-2.5689,-2.5749,-2.5749,-2.5689,-2.5689,-2.536,-2.4807,-2.5968,-2.6533,-1.1857,-1.2399,-1.3047,-1.3946,-1.4107,-1.4025,-1.3982,-1.3587,-1.3431,-1.4229,-1.4023,0.0,0.0,0.0,0.0,0.0,0.0,0.0,0.0,0.0,0.0,0.0,0.0,0.0,0.0,0.0,0.0,0.0,0.0,0.0,0.0,0.0,0.0,0.0,0.0,-1.457,-1.4922,-1.4922,-1.5145,0.0,-1.604,-1.6353,-1.658,-1.8787,-1.9798,-1.9798,-1.9798,-1.9798,-1.9798,-1.9798,-1.9798,-1.9798,-1.9798,-1.9798,-1.9798,-1.9798,-1.9798,-1.9798,-1.9798,-1.9798,-1.9798,-1.9798,-1.9798,-1.9798,-1.9798,-2.0288,-2.0983,-2.1368,-2.197,-2.2585,-2.2965,-2.3245,-2.359,-2.4567,-2.5673,-2.6563,-2.6721,-2.7203,-2.7625,-2.7625,-2.7625,-2.7625,-2.7625,-2.7625,-2.7625,-2.7625,-2.7625,-2.7625,-2.7625,-2.7625,-2.7625,-2.7625,-2.7625,-2.7625,-2.7625,-2.7625,-2.7625,-2.7625,-2.749,-2.7365,-2.7365,-2.6722,-2.6378,-2.6378,-2.6886,-2.6901,-2.6378,-2.6378,-2.6287,-2.6116,-2.6411,-2.7344,-1.1575,-1.2295,-1.2861,-1.3718,0.0,-1.3732,-1.3409,-1.3152,-1.3037,-1.3569,0.0,0.0,0.0,0.0,0.0,0.0,0.0,0.0,0.0,0.0,0.0,0.0,0.0,0.0,0.0,0.0,0.0,0.0,0.0,0.0,0.0,0.0,0.0,0.0,-1.4077,-1.4238,-1.4473,-1.4473,-1.458,-1.4795,-1.5293,-1.5764,-1.6216,-1.8108,-1.9156,-1.9447,-1.9698,-1.9798,-1.9798,-1.9798,-1.9798,-1.9798,-1.9798,-1.9798,-1.9798,-1.9798,-1.9798,-1.9798,-1.9798,-1.9798,-1.9798,-1.9798,-1.9798,-1.9798,-1.9798,-2.0213,-2.0832,-2.133,-2.1882,-2.2435,-2.2927,-2.3078,-2.3185,-2.3662,-2.461,-2.5618,-2.6336,-2.6826,-2.7203,-2.7509,-2.7625,-2.7625,-2.7625,-2.7625,-2.7625,-2.7625,-2.7625,-2.7625,-2.7625,-2.7625,-2.7625,-2.7625,-2.7625,-2.7625,-2.7625,-2.7625,-2.7625,-2.7625,-2.7625,-2.7625,-2.7625,-2.7245,-2.7066,-2.7066,-2.7395,-2.7445,-2.7066,-2.7066,-2.6901,-2.6565,-2.7204,-2.8014,-1.1238,-1.2269,-1.2986,-1.3419,-1.3585,0.0,-1.3017,-1.2881,-1.2881,-1.2881,0.0,0.0,0.0,0.0,0.0,0.0,0.0,0.0,0.0,0.0,0.0,0.0,0.0,0.0,0.0,0.0,0.0,0.0,0.0,0.0,0.0,0.0,-1.3941,-1.3916,-1.3863,-1.3955,-1.397,-1.397,-1.4009,-1.4131,-1.4654,-1.5292,-1.6013,-1.7155,-1.8053,-1.8759,-1.9384,-1.966,-1.9673,-1.9761,-1.9798,-1.9798,-1.9798,-1.9798,-1.9798,-1.9798,-1.9798,-1.9798,-1.9798,-1.9798,-1.9798,-1.9798,-1.9798,-1.9798,-1.9798,-2.0137,-2.0639,-2.1192,-2.1744,-2.2297,-2.2849,-2.3002,-2.3078,-2.3078,-2.359,-2.4452,-2.5837,-2.639,-2.6826,-2.7306,-2.7509,-2.7625,-2.7625,-2.7625,-2.7625,-2.7625,-2.7625,-2.7625,-2.7625,-2.7625,-2.7625,-2.7625,-2.7625,-2.7625,-2.7625,-2.7625,-2.7625,-2.7625,-2.7625,-2.7625,-2.7625,-2.7625,-2.7625,-2.7625,-2.7625,-2.7625,-2.7625,-2.7625,-2.7425,-2.7139,-2.8057,-2.8635,-0.9287,0.0,-1.1953,0.0,-1.273,-1.3017,0.0,0.0,-1.2881,0.0,0.0,0.0,0.0,0.0,0.0,0.0,0.0,0.0,0.0,0.0,0.0,0.0,0.0,0.0,0.0,0.0,0.0,0.0,0.0,0.0,0.0,-1.3594,-1.3418,-1.3057,-1.3047,-1.3223,-1.3584,-1.3594,-1.3779,-1.4077,-1.3864,-1.3871,-1.4169,-1.5307,-1.6462,-1.7569,-1.8623,-1.9133,-1.9171,-1.961,-1.9798,-1.9798,-1.9798,-1.9798,-1.9798,-1.9798,-1.9798,-1.9798,-1.9798,-1.9798,-1.9798,-1.9798,-1.9798,-1.9798,-1.9798,-1.9861,-2.0037,-2.0668,-2.1179,-2.1732,-2.2284,-2.2774,-2.3078,-2.3078,-2.3185,-2.3543,-2.4394,-2.6094,-2.7306,-2.6774,-2.7152,-2.7625,-2.7625,-2.7625,-2.7625,-2.7625,-2.7625,-2.7625,-2.7625,-2.7625,-2.7625,-2.7625,-2.7625,-2.7625,-2.7625,-2.7625,-2.7625,-2.7625,-2.7625,-2.7625,-2.7625,-2.7625,-2.7625,-2.7625,-2.7625,-2.7625,-2.7625,-2.7625,-2.8079,-2.9037,-2.8639,-2.9358,-0.9047,-1.0099,-1.1105,0.0,-1.2072,-1.2014,-1.2239,0.0,0.0,0.0,0.0,0.0,0.0,0.0,0.0,0.0,0.0,0.0,0.0,0.0,0.0,0.0,0.0,0.0,0.0,0.0,0.0,0.0,0.0,0.0,-1.3164,-1.3154,-1.3076,-1.2891,-1.2881,-1.2969,-1.3154,-1.3154,-1.3252,-1.3428,-1.3242,-1.3194,-1.3334,-1.418,-1.5375,-1.6872,-1.8387,-1.8983,-1.9021,-1.9585,-1.9798,-1.9798,-1.9798,-1.9798,-1.9798,-1.9798,-1.9798,-1.9798,-1.9798,-1.9798,-1.9798,-1.9798,-1.9798,-1.9798,-1.9798,-1.9798,-1.9924,-2.0555,-2.0894,-2.123,-2.2083,-2.2485,-2.2749,-2.3002,-2.3424,-2.3767,-2.3662,-2.4768,-2.5877,-2.639,-2.71,-2.7625,-2.7625,-2.7625,-2.7625,-2.7625,-2.7625,-2.7625,-2.7625,-2.7625,-2.7625,-2.7625,-2.7625,-2.7625,-2.7625,-2.7625,-2.7625,-2.7625,-2.7625,-2.7625,-2.7625,-2.7625,-2.7625,-2.7625,-2.7625,-2.7625,-2.7625,-2.7625,-2.7894,-2.84,-2.8463,-2.9088,-0.8551,0.0,-1.0118,-1.1262,-1.1398,-1.1262,0.0,0.0,0.0,0.0,0.0,0.0,0.0,0.0,0.0,0.0,0.0,0.0,0.0,0.0,0.0,0.0,0.0,0.0,0.0,0.0,0.0,0.0,0.0,0.0,-1.2608,-1.2774,-1.2881,-1.2881,-1.2881,-1.2881,-1.2881,-1.2881,-1.2881,-1.2881,-1.2881,-1.2881,-1.2929,-1.3505,-1.4515,-1.5846,-1.7557,-1.8522,-1.8857,-1.9397,-1.9685,-1.9798,-1.9798,-1.9798,-1.9798,-1.9798,-1.9798,-1.9798,-1.9798,-1.9798,-1.9798,-1.9798,-1.9798,-1.9798,-1.9798,-1.9798,-1.9886,-2.0326,-2.0605,-2.0853,-2.1681,-2.2096,-2.2422,-2.2824,-2.3441,-2.4002,-2.3975,-2.4279,-2.5007,-2.6496,-2.7203,-2.7625,-2.7625,-2.7625,-2.7625,-2.7625,-2.7625,-2.7625,-2.7625,-2.7625,-2.7625,-2.7625,-2.7625,-2.7625,-2.7625,-2.7625,-2.7625,-2.7625,-2.7625,-2.7625,-2.7625,-2.7625,-2.7625,-2.7625,-2.7625,-2.7625,-2.7625,-2.7625,-2.766,-2.786,-2.8463,-2.9042,0.0,-0.796,0.0,-0.9653,-1.0538,-1.119,0.0,0.0,0.0,0.0,0.0,0.0,0.0,0.0,0.0,0.0,0.0,0.0,0.0,0.0,0.0,0.0,0.0,0.0,0.0,0.0,0.0,0.0,0.0,0.0,-1.1864,-1.251,-1.2881,-1.2881,-1.2881,-1.2881,-1.2881,-1.2881,-1.2881,-1.2881,-1.2881,-1.2881,-1.2929,-1.3505,-1.3826,-1.402,-1.5788,-1.719,-1.8292,-1.8844,-1.9359,-1.9798,-1.9798,-1.9798,-1.9798,-1.9798,-1.9798,-1.9798,-1.9798,-1.9798,-1.9798,-1.9798,-1.9798,-1.9798,-1.9798,-1.9798,-1.9811,-1.9836,-2.0238,-2.0731,-2.0794,-2.1531,-2.2322,-2.2347,-2.2749,-2.3754,-2.5892,-2.5783,-2.5783,-2.724,-2.7575,-2.7625,-2.7625,-2.7625,-2.7625,-2.7625,-2.7625,-2.7625,-2.7625,-2.7625,-2.7625,-2.7625,-2.7625,-2.7625,-2.7625,-2.7625,-2.7625,-2.7625,-2.7625,-2.7625,-2.7625,-2.7625,-2.7625,-2.7625,-2.7625,-2.7625,-2.7625,-2.7625,-2.7894,-2.8463,-2.9088,-2.9673,0.0,0.0,0.0,-0.8441,-0.8955,-0.9386,-0.9657,0.0,0.0,0.0,0.0,0.0,0.0,0.0,0.0,0.0,0.0,0.0,0.0,0.0,0.0,0.0,0.0,0.0,0.0,0.0,0.0,0.0,0.0,0.0,-1.1765,-1.203,-1.2403,-1.2881,-1.2881,-1.2881,-1.2881,-1.2881,-1.2881,-1.2881,-1.2881,-1.2881,-1.2929,-1.3104,-1.3409,-1.3873,-1.4877,-1.5997,-1.7178,-1.8436,-1.9083,-1.9334,-1.9673,-1.9798,-1.9798,-1.9798,-1.9798,-1.9798,-1.9798,-1.9798,-1.9798,-1.9798,-1.9798,-1.9798,-1.9798,-1.9798,-1.9798,-1.9798,-1.9949,-2.02,-2.0618,-2.123,-2.197,-2.2673,-2.2927,-2.3471,-2.4781,-2.5231,-2.5673,-2.6721,-2.7306,-2.7625,-2.7625,-2.7625,-2.7625,-2.7625,-2.7625,-2.7625,-2.7625,-2.7625,-2.7625,-2.7625,-2.7625,-2.7625,-2.7625,-2.7625,-2.7625,-2.7625,-2.7625,-2.7625,-2.7625,-2.7625,-2.7625,-2.7625,-2.7625,-2.7625,-2.7625,-2.7625,-2.791,-2.8511,-2.9134,-2.9717,-0.5622,0.0,0.0,0.0,0.0,-0.7997,-0.8551,0.0,0.0,0.0,0.0,0.0,0.0,0.0,0.0,0.0,0.0,0.0,0.0,0.0,0.0,0.0,0.0,0.0,0.0,0.0,0.0,0.0,0.0,0.0,-1.1065,-1.1566,-1.2138,-1.2881,-1.2881,-1.2881,-1.2881,-1.2881,-1.2881,-1.2881,-1.2881,-1.2881,-1.2881,-1.2881,-1.3104,-1.3552,-1.4154,-1.5153,-1.6513,-1.7904,-1.8581,-1.8807,-1.9334,-1.9547,-1.956,-1.9736,-1.9798,-1.9798,-1.9798,-1.9798,-1.9798,-1.9798,-1.9798,-1.9798,-1.9798,-1.9798,-1.9798,-1.9798,-1.9798,-1.9886,-2.0275,-2.0928,-2.1769,-2.2874,-2.3078,-2.3305,-2.4118,-2.4681,-2.5342,-2.6283,-2.6878,-2.7306,-2.7575,-2.7625,-2.7625,-2.7625,-2.7625,-2.7625,-2.7625,-2.7625,-2.7625,-2.7625,-2.7625,-2.7625,-2.7625,-2.7625,-2.7625,-2.7625,-2.7625,-2.7625,-2.7625,-2.7625,-2.7625,-2.7625,-2.7625,-2.7625,-2.7625,-2.781,-2.8091,-2.8511,-2.9316,-3.0038,0.0,0.0,0.0,0.0,0.0,0.0,0.0,0.0,0.0,0.0,0.0,0.0,0.0,0.0,0.0,0.0,0.0,0.0,0.0,0.0,0.0,0.0,0.0,0.0,0.0,0.0,0.0,0.0,0.0,-0.9762,-0.9814,-1.1065,-1.2129,-1.2822,-1.2881,-1.2881,-1.2881,-1.2881,-1.2881,-1.2881,-1.2881,-1.2881,-1.2881,-1.2881,-1.2881,-1.292,-1.3552,-1.4769,-1.6395,-1.7066,-1.7689,-1.8182,-1.8733,-1.8958,-1.907,-1.9585,-1.9773,-1.9786,-1.9798,-1.9798,-1.9798,-1.9798,-1.9798,-1.9798,-1.9798,-1.9798,-1.9798,-1.9798,-1.9798,-1.9798,-1.9823,-2.0652,-2.1757,-2.2862,-2.3065,-2.3305,-2.4118,-2.4292,-2.4738,-2.6229,-2.651,-2.6774,-2.7458,-2.7625,-2.7625,-2.7625,-2.7625,-2.7625,-2.7625,-2.7625,-2.7625,-2.7625,-2.7625,-2.7625,-2.7625,-2.7625,-2.7625,-2.7625,-2.7625,-2.7625,-2.7625,-2.7625,-2.7625,-2.7625,-2.7625,-2.7625,-2.7625,-2.8222,-2.8511,-2.8559,-2.9761,-3.0658,-0.4869,0.0,0.0,0.0,0.0,0.0,0.0,0.0,0.0,0.0,0.0,0.0,0.0,0.0,0.0,0.0,0.0,0.0,0.0,0.0,0.0,0.0,0.0,0.0,0.0,0.0,0.0,0.0,-0.8956,-0.9316,-0.9762,-1.1065,-1.1873,-1.208,-1.2608,-1.2881,-1.2881,-1.2881,-1.2881,-1.2881,-1.2881,-1.2881,-1.2881,-1.2881,-1.2881,-1.292,-1.3552,-1.4078,-1.4631,-1.6079,-1.6747,-1.6987,-1.8001,-1.843,-1.8505,-1.9045,-1.9246,-1.9296,-1.9673,-1.9798,-1.9798,-1.9798,-1.9798,-1.9798,-1.9798,-1.9798,-1.9798,-1.9798,-1.9798,-1.9899,-2.0326,-2.0953,-2.1669,-2.2372,-2.2849,-2.3125,-2.3365,-2.3424,-2.4047,-2.6122,-2.693,-2.7357,-2.756,-2.7625,-2.7625,-2.7625,-2.7625,-2.7625,-2.7625,-2.7625,-2.7625,-2.7625,-2.7625,-2.7625,-2.7625,-2.7625,-2.7625,-2.7625,-2.7625,-2.7625,-2.7625,-2.7625,-2.7625,-2.7625,-2.7625,-2.781,-2.8238,-2.8415,-2.8732,-2.918,-3.0393,-3.1055,-0.5187,-0.5115,-0.5179,0.0,0.0,0.0,0.0,-0.6475,0.0,0.0,0.0,0.0,0.0,0.0,0.0,0.0,0.0,0.0,0.0,0.0,0.0,0.0,0.0,0.0,0.0,0.0,0.0,0.0,-0.8804,-0.9211,-1.0167,-1.0965,-1.1665,-1.2236,-1.2666,-1.2881,-1.2881,-1.2881,-1.2881,-1.2881,-1.2881,-1.2881,-1.2881,-1.2881,-1.2881,-1.2929,-1.3286,-1.342,-1.3525,-1.4802,-1.544,-1.5823,-1.6987,-1.7441,-1.7562,-1.8371,-1.8832,-1.9021,-1.9371,-1.9623,-1.9798,-1.9798,-1.9798,-1.9798,-1.9798,-1.9798,-1.9798,-1.9798,-1.9798,-1.9987,-2.0803,-2.1255,-2.1681,-2.2472,-2.284,-2.3078,-2.3078,-2.3365,-2.3989,-2.5342,-2.6162,-2.6759,-2.7086,-2.7408,-2.7625,-2.7625,-2.7625,-2.7625,-2.7625,-2.7625,-2.7625,-2.7625,-2.7625,-2.7625,-2.7625,-2.7625,-2.7625,-2.7625,-2.7625,-2.7625,-2.7625,-2.7625,-2.7625,-2.7625,-2.7625,-2.8042,-2.8873,-2.8873,-2.9316,-3.0166,-3.0878,-3.119,-0.5643,-0.5212,-0.5164,-0.4996,0.0,0.0,-0.5462,-0.6057,0.0,0.0,0.0,0.0,0.0,0.0,0.0,0.0,0.0,0.0,0.0,0.0,0.0,0.0,0.0,0.0,0.0,0.0,-0.8804,-0.8804,-0.8804,-0.9309,-1.0517,-1.0712,-1.1375,-1.2627,-1.2822,-1.2881,-1.2881,-1.2881,-1.2881,-1.2881,-1.2881,-1.2881,-1.2881,-1.2881,-1.2881,-1.2881,-1.2881,-1.2881,-1.2929,-1.3457,-1.4061,-1.4697,-1.5777,-1.6231,-1.6441,-1.7597,-1.8407,-1.8895,-1.8958,-1.9371,-1.9798,-1.9798,-1.9798,-1.9798,-1.9798,-1.9798,-1.9798,-1.9798,-1.9798,-2.0049,-2.1117,-2.1393,-2.1681,-2.2786,-2.2977,-2.3002,-2.3065,-2.3649,-2.4176,-2.4292,-2.4908,-2.5618,-2.6283,-2.6982,-2.7458,-2.7458,-2.7575,-2.7625,-2.7625,-2.7625,-2.7625,-2.7625,-2.7625,-2.7625,-2.7625,-2.7625,-2.7625,-2.7625,-2.7625,-2.7625,-2.7625,-2.7625,-2.7625,-2.7625,-2.7675,-2.8222,-2.9316,-2.9316,-2.9935,-3.119,-3.1151,-3.1151,-0.5733,-0.5287,-0.5091,-0.4259,0.0,0.0,-0.4405,-0.4604,0.0,0.0,0.0,0.0,0.0,0.0,0.0,0.0,0.0,0.0,0.0,0.0,0.0,0.0,0.0,0.0,0.0,0.0,-0.8804,-0.8804,-0.8804,-0.891,-0.9159,-1.021,-1.0922,-1.1174,-1.2304,-1.2881,-1.2881,-1.2881,-1.2881,-1.2881,-1.2881,-1.2881,-1.2881,-1.2881,-1.2881,-1.2881,-1.2881,-1.2881,-1.2929,-1.3017,-1.342,-1.4061,-1.4753,-1.5336,-1.5846,-1.6522,-1.7419,-1.843,-1.8869,-1.9371,-1.9798,-1.9798,-1.9798,-1.9798,-1.9798,-1.9798,-1.9798,-1.9798,-1.9798,-1.9962,-2.0652,-2.0882,-2.1104,-2.2209,-2.2472,-2.2585,-2.3037,-2.3185,-2.3543,-2.4176,-2.4908,-2.5453,-2.5563,-2.6229,-2.6721,-2.6721,-2.7203,-2.7625,-2.7625,-2.7625,-2.7625,-2.7625,-2.7625,-2.7625,-2.7625,-2.7625,-2.7625,-2.7625,-2.7625,-2.7625,-2.7625,-2.7625,-2.7625,-2.7625,-2.8091,-2.8463,-2.8701,-2.8701,-2.954,-3.119,-3.0699,-3.074,-0.6442,-0.5547,-0.5015,-0.4285,0.0,0.0,0.0,0.0,-0.4538,0.0,0.0,0.0,0.0,0.0,0.0,0.0,0.0,0.0,0.0,0.0,0.0,0.0,0.0,0.0,0.0,0.0,-0.8427,-0.8752,-0.8804,-0.8962,-0.9263,-0.9909,-1.0618,-1.1266,-1.1981,-1.251,-1.2881,-1.2881,-1.2881,-1.2881,-1.2881,-1.2881,-1.2881,-1.2881,-1.2881,-1.2881,-1.2881,-1.2881,-1.2881,-1.2881,-1.3055,-1.342,-1.4014,-1.4422,-1.4755,-1.5337,-1.6278,-1.7394,-1.7946,-1.8697,-1.9459,-1.971,-1.9798,-1.9798,-1.9798,-1.9798,-1.9798,-1.9798,-1.9798,-1.9999,-2.0853,-2.092,-2.1016,-2.2397,-2.251,-2.246,-2.2952,-2.3078,-2.3365,-2.4118,-2.4624,-2.5063,-2.5837,-2.6549,-2.7034,-2.7034,-2.7357,-2.7625,-2.7625,-2.7625,-2.7625,-2.7625,-2.7625,-2.7625,-2.7625,-2.7625,-2.7625,-2.7625,-2.7625,-2.7625,-2.7625,-2.7625,-2.7625,-2.7625,-2.791,-2.8189,-2.8511,-2.8511,-2.9271,-3.074,-3.0435,-3.0601,0.0,0.0,0.0,0.0,0.0,-0.3669,0.0,0.0,0.0,-0.4567,0.0,0.0,0.0,0.0,0.0,0.0,0.0,0.0,0.0,0.0,0.0,0.0,0.0,0.0,0.0,0.0,-0.7881,-0.8745,-0.8704,-0.8937,-0.9555,-0.9718,-1.0312,-1.1366,-1.1665,-1.208,-1.2666,-1.2832,-1.2881,-1.2881,-1.2881,-1.2881,-1.2881,-1.2881,-1.2881,-1.2881,-1.2881,-1.2881,-1.2881,-1.2881,-1.2881,-1.2978,-1.342,-1.3684,-1.3862,-1.4329,-1.5326,-1.649,-1.7087,-1.8044,-1.912,-1.9635,-1.9798,-1.9798,-1.9798,-1.9798,-1.9798,-1.9798,-1.9798,-2.0037,-2.1066,-2.0916,-2.0916,-2.2585,-2.256,-2.2334,-2.3166,-2.3305,-2.359,-2.4567,-2.4738,-2.5063,-2.6122,-2.6878,-2.7408,-2.7408,-2.7524,-2.7625,-2.7625,-2.7625,-2.7625,-2.7625,-2.7625,-2.7625,-2.7625,-2.7625,-2.7625,-2.7625,-2.7625,-2.7625,-2.7625,-2.7625,-2.7625,-2.7625,-2.7625,-2.786,-2.8334,-2.8334,-2.8996,-3.0293,-3.0293,-3.0601,0.0,0.0,0.0,0.0,-0.3618,0.0,0.0,0.0,-0.3178,-0.3009,0.0,0.0,0.0,0.0,0.0,0.0,0.0,0.0,0.0,0.0,0.0,0.0,0.0,0.0,0.0,0.0,0.0,-0.8712,-0.8323,-0.8257,-0.8883,-0.9458,-0.9865,-1.0012,-1.1166,-1.1814,-1.1913,-1.2559,-1.2881,-1.2881,-1.2881,-1.2881,-1.2881,-1.2881,-1.2881,-1.2881,-1.2881,-1.2881,-1.2881,-1.2881,-1.2881,-1.2929,-1.2968,-1.3334,-1.3815,-1.3862,-1.4942,-1.649,-1.7087,-1.8044,-1.912,-1.9635,-1.9798,-1.9798,-1.9798,-1.9798,-1.9798,-1.9798,-1.9798,-1.9949,-2.0589,-2.0338,-2.0326,-2.2008,-2.1983,-2.2084,-2.3767,-2.4176,-2.4567,-2.596,-2.6229,-2.6122,-2.5618,-2.6122,-2.6616,-2.6616,-2.7203,-2.7625,-2.7625,-2.7625,-2.7625,-2.7625,-2.7625,-2.7625,-2.7625,-2.7625,-2.7625,-2.7625,-2.7625,-2.7625,-2.7625,-2.7625,-2.7625,-2.7625,-2.7625,-2.7625,-2.771,-2.771,-2.8575,-3.0293,-3.0293,-3.0601,0.0,0.0,0.0,0.0,0.0,0.0,-0.3209,0.0,-0.2856,0.0,0.0,0.0,0.0,0.0,0.0,0.0,0.0,0.0,0.0,0.0,0.0,0.0,0.0,0.0,0.0,0.0,0.0,0.0,0.0,-0.8116,-0.853,-0.8964,-0.9413,-0.9762,-1.0712,-1.1416,-1.1814,-1.255,-1.2881,-1.2881,-1.2881,-1.2881,-1.2881,-1.2881,-1.2881,-1.2881,-1.2881,-1.2881,-1.2881,-1.2881,-1.2881,-1.2881,-1.2881,-1.3065,-1.3286,-1.3286,-1.3952,-1.5054,-1.6351,-1.7335,-1.8216,-1.942,-1.9798,-1.9798,-1.9798,-1.9798,-1.9798,-1.9798,-1.9798,-1.9936,-2.0514,-2.0489,-2.0639,-2.1983,-2.2133,-2.2299,-2.3364,-2.3943,-2.4624,-2.5673,-2.6229,-2.6563,-2.6654,-2.6916,-2.7137,-2.7137,-2.7408,-2.7625,-2.7625,-2.7625,-2.7625,-2.7625,-2.7625,-2.7625,-2.7625,-2.7625,-2.7625,-2.7625,-2.7625,-2.7625,-2.7625,-2.7625,-2.7625,-2.7625,-2.7625,-2.7625,-2.7625,-2.8304,-2.9042,-2.9761,-2.9761,-3.0293,-0.8228,0.0,0.0,0.0,0.0,0.0,0.0,0.0,0.0,0.0,0.0,0.0,0.0,0.0,0.0,0.0,0.0,0.0,0.0,0.0,0.0,0.0,0.0,0.0,0.0,0.0,0.0,0.0,0.0,0.0,-0.8343,-0.8571,-0.8926,-0.951,-1.0167,-1.0762,-1.1266,-1.2147,-1.2608,-1.2608,-1.2774,-1.2881,-1.2881,-1.2881,-1.2881,-1.2881,-1.2881,-1.2881,-1.2881,-1.2881,-1.2881,-1.2881,-1.2881,-1.2881,-1.2881,-1.2881,-1.3357,-1.4169,-1.5587,-1.6761,-1.7929,-1.9331,-1.9798,-1.9798,-1.9798,-1.9798,-1.9836,-1.9987,-2.0037,-2.0175,-2.074,-2.0945,-2.1129,-2.2083,-2.2309,-2.2576,-2.3521,-2.4163,-2.4908,-2.5837,-2.6443,-2.6982,-2.7524,-2.7625,-2.7625,-2.7625,-2.7625,-2.7625,-2.7625,-2.7625,-2.7625,-2.7625,-2.7625,-2.7625,-2.7625,-2.7625,-2.7625,-2.7625,-2.7625,-2.7625,-2.7625,-2.7625,-2.7625,-2.7625,-2.7625,-2.7625,-2.7625,-2.8638,-2.9225,-2.9406,-2.9717,-3.0335,0.0,0.0,0.0,-0.4272,0.0,0.0,0.0,0.0,-0.1478,0.0,0.0,0.0,0.0,0.0,0.0,-0.2605,0.0,0.0,0.0,0.0,0.0,0.0,0.0,0.0,0.0,0.0,0.0,0.0,0.0,0.0,-0.831,-0.8434,-0.8517,-0.8798,-0.9465,-0.9865,-0.9865,-1.1166,-1.1814,-1.1864,-1.2559,-1.2881,-1.2881,-1.2881,-1.2881,-1.2881,-1.2881,-1.2881,-1.2881,-1.2881,-1.2881,-1.2881,-1.2881,-1.2881,-1.2881,-1.2881,-1.3549,-1.4443,-1.5016,-1.6718,-1.8773,-1.9567,-1.9798,-1.9798,-1.9798,-1.9798,-1.9924,-2.0489,-2.0693,-2.0819,-2.1317,-2.1455,-2.1606,-2.2184,-2.2309,-2.2853,-2.4871,-2.5342,-2.5783,-2.724,-2.756,-2.7575,-2.7625,-2.7625,-2.7625,-2.7625,-2.7625,-2.7625,-2.7625,-2.7625,-2.7625,-2.7625,-2.7625,-2.7625,-2.7625,-2.7625,-2.7625,-2.7625,-2.7625,-2.7625,-2.7625,-2.7625,-2.7625,-2.7625,-2.7625,-2.7625,-2.7625,-2.8238,-2.8826,-2.9406,-3.0617,-3.1151,0.0,0.0,-0.8395,-0.5896,0.0,0.0,0.0,0.0,0.0,0.0,0.0,0.0,0.0,0.0,0.0,-0.133,0.0,0.0,0.0,0.0,0.0,0.0,0.0,0.0,0.0,0.0,0.0,0.0,0.0,0.0,0.0,-0.8241,-0.8704,-0.8804,-0.9458,-0.9814,-0.9814,-1.1116,-1.1814,-1.1814,-1.2559,-1.2881,-1.2881,-1.2881,-1.2881,-1.2881,-1.2881,-1.2881,-1.2881,-1.2881,-1.2881,-1.2881,-1.2881,-1.2881,-1.2881,-1.2881,-1.3283,-1.4033,-1.5801,-1.7391,-1.8821,-1.9579,-1.9798,-1.9798,-1.9798,-1.9798,-1.9924,-2.0555,-2.0718,-2.0844,-2.1343,-2.1757,-2.2083,-2.2272,-2.2585,-2.3018,-2.3715,-2.4667,-2.5563,-2.6054,-2.6916,-2.7625,-2.7625,-2.7625,-2.7625,-2.7625,-2.7625,-2.7625,-2.7625,-2.7625,-2.7625,-2.7625,-2.7625,-2.7625,-2.7625,-2.7625,-2.7625,-2.7625,-2.7625,-2.7625,-2.7625,-2.7625,-2.7625,-2.7625,-2.7625,-2.7625,-2.7625,-2.8189,-2.8826,-2.9406,-3.0208,-3.0838,-1.1265,-1.0195,0.0,-0.6698,-0.6026,0.0,-0.3026,0.0,0.0,0.0,0.0,0.0,0.0,0.0,0.0,0.0,0.0,0.0,0.0,0.0,0.0,0.0,0.0,0.0,0.0,0.0,-0.3582,-0.3973,0.0,0.0,0.0,0.0,-0.8332,-0.8651,-0.9155,-0.9465,-0.9465,-1.0517,-1.1216,-1.1458,-1.2187,-1.2666,-1.2881,-1.2881,-1.2881,-1.2881,-1.2881,-1.2881,-1.2881,-1.2881,-1.2881,-1.2881,-1.2881,-1.2881,-1.2881,-1.2881,-1.3242,-1.4056,-1.6404,-1.7699,-1.8489,-1.9475,-1.9798,-1.9798,-1.9798,-1.9949,-2.0225,-2.0803,-2.1104,-2.138,-2.1933,-2.2334,-2.2611,-2.2611,-2.2874,-2.3198,-2.3484,-2.4337,-2.5175,-2.5673,-2.6549,-2.7306,-2.756,-2.7625,-2.7625,-2.7625,-2.7625,-2.7625,-2.7625,-2.7625,-2.7625,-2.7625,-2.7625,-2.7625,-2.7625,-2.7625,-2.7625,-2.7625,-2.7625,-2.7625,-2.7625,-2.7625,-2.7625,-2.7625,-2.7625,-2.7625,-2.7625,-2.8415,-2.9012,-2.9406,-3.0251,-3.0838]}]]